GFSWCAN_500_rhum_000.txt.gz
RH
35 28 26 31 26 20 14 7 3 3 13 29 51 83 98 94 98 100 100 100 97 94 97 93 100 100 92 52 60 100 96 97 95 86 92 95 64 26 37 57 57 54 62 68 64 62 64 71 74 74 72 73 74 76
35 28 25 29 29 20 15 8 3 3 2 21 40 52 91 83 90 90 97 95 100 100 100 100 100 99 95 67 100 89 96 100 100 99 94 97 83 38 31 52 55 46 44 55 69 60 54 58 67 63 60 68 74 75
35 30 26 27 29 22 16 9 3 3 2 7 33 42 72 79 84 99 96 85 96 90 97 96 94 100 79 70 81 94 90 100 99 99 97 93 90 58 61 50 66 53 45 42 51 54 65 70 70 69 71 78 80 76
36 32 28 27 30 23 18 10 4 2 2 2 24 38 74 69 88 96 92 87 83 100 99 97 99 98 75 71 68 80 81 100 100 100 99 93 91 71 91 76 69 74 60 44 49 66 78 86 85 76 77 87 88 87
38 34 29 28 30 24 20 11 6 2 2 2 14 29 51 62 76 82 83 86 92 97 84 83 92 87 66 78 55 71 88 90 98 99 96 97 96 90 72 91 92 96 81 60 60 78 78 83 79 81 81 89 84 98
40 36 30 31 30 25 20 10 6 2 1 2 3 23 42 55 84 76 69 66 66 74 69 79 87 77 65 66 51 90 100 98 99 98 98 98 99 77 76 86 100 95 85 83 74 83 95 93 95 83 86 92 82 76
42 39 31 34 32 27 19 10 6 2 1 1 1 11 30 53 92 73 59 66 75 71 60 76 75 68 75 62 58 94 100 100 96 97 91 96 100 93 94 90 97 79 82 86 78 78 88 94 96 86 76 83 78 86
45 41 31 32 33 28 19 11 6 2 1 3 3 9 21 52 99 83 86 97 78 60 71 79 76 77 82 73 66 94 100 99 99 99 100 97 98 87 94 92 80 73 67 73 81 76 78 83 87 92 93 86 74 87
49 42 34 31 33 29 19 10 5 2 1 4 3 11 27 40 100 85 92 94 71 67 72 68 75 86 89 78 76 96 99 100 96 96 95 96 88 96 95 90 86 80 77 70 70 76 82 96 85 92 94 90 79 88
54 45 37 33 33 30 18 10 5 1 3 3 2 15 32 37 100 91 100 95 74 69 64 81 80 86 92 86 89 94 100 100 94 96 91 88 100 96 93 96 100 100 100 98 94 98 100 78 73 86 96 100 100 100
59 48 39 34 35 30 17 10 5 1 4 3 1 25 40 69 97 93 100 85 66 58 71 84 92 88 89 80 86 94 96 100 98 100 94 97 99 96 94 94 94 97 98 95 97 100 100 96 91 100 100 100 99 86
63 52 40 34 37 32 19 11 5 0 4 4 10 72 76 90 98 98 99 72 53 58 68 88 94 84 82 79 79 90 93 97 97 99 98 99 93 97 89 87 88 94 97 98 99 99 99 100 100 100 100 99 98 96
64 56 41 34 38 34 22 14 7 1 4 11 47 85 100 100 100 100 75 67 48 45 76 99 100 100 92 89 84 85 83 85 90 97 100 95 90 92 86 89 90 89 94 99 98 89 86 88 88 86 85 84 83 86
67 58 42 37 37 36 28 18 10 3 4 28 61 86 100 100 98 87 62 50 50 68 95 100 98 86 83 94 87 72 60 75 81 84 92 89 82 98 98 92 86 92 100 97 90 77 76 81 85 84 83 81 86 92
72 60 45 41 37 36 34 24 14 7 0 16 82 100 100 100 96 84 70 58 58 62 96 100 100 100 100 83 80 67 56 55 58 74 83 91 86 83 93 100 98 98 94 95 97 97 92 80 77 85 96 99 95 88
73 61 48 45 40 40 39 30 19 10 3 2 29 67 92 87 88 78 69 65 61 65 99 96 95 100 97 80 69 72 67 61 66 86 84 91 90 91 86 84 90 98 97 96 100 100 99 100 100 99 99 94 88 94
74 62 52 48 42 44 42 37 24 17 8 2 12 47 67 82 73 75 71 65 63 72 92 81 78 87 87 78 64 60 75 91 93 94 79 80 92 95 100 97 97 96 94 94 92 90 90 87 87 90 91 95 100 100
77 63 52 49 44 48 49 41 32 23 14 8 1 6 39 63 73 73 70 70 83 80 81 78 81 78 73 66 82 100 99 98 96 90 74 69 79 88 93 93 84 79 81 82 80 75 70 67 67 70 77 93 100 100
80 64 56 52 49 48 51 47 41 26 22 14 8 3 5 39 58 62 78 74 85 97 99 85 79 66 67 75 98 100 96 85 77 72 66 65 70 72 83 89 88 79 68 63 60 59 57 54 54 56 61 71 83 88
79 67 61 58 54 50 52 50 46 32 28 22 13 8 5 2 49 83 83 94 98 100 100 92 69 65 74 84 99 100 95 88 73 66 61 59 63 76 82 81 75 72 78 79 77 72 69 65 61 62 66 70 76 85
79 73 67 64 60 55 52 50 47 38 32 30 17 11 7 5 2 37 100 98 95 100 100 95 78 79 79 82 97 100 99 92 80 71 61 61 65 74 74 73 73 72 78 82 83 82 83 84 89 94 93 94 100 100
79 76 73 68 63 61 61 59 51 42 36 31 17 11 7 6 5 2 19 99 100 100 100 99 94 87 96 97 100 100 98 92 86 78 72 69 75 78 80 78 77 82 86 92 97 96 94 94 90 93 99 100 99 99
83 79 76 72 66 64 64 62 58 46 37 25 15 10 7 6 5 5 3 11 98 100 100 100 100 93 94 96 100 100 100 98 91 80 81 85 92 96 91 86 86 88 91 100 100 100 100 98 97 100 100 100 100 100
84 80 72 68 69 67 63 62 51 43 31 18 12 8 7 6 6 6 6 2 6 93 100 100 100 100 100 100 100 100 100 100 98 95 96 97 100 100 92 92 97 100 100 100 100 100 100 100 100 100 100 100 100 100
83 81 74 70 65 62 60 52 48 36 21 13 9 7 6 6 7 8 10 8 2 4 84 100 100 100 100 100 100 100 100 94 95 99 96 91 100 100 100 100 100 100 100 100 100 100 100 100 100 100 100 100 100 100
88 72 77 64 59 60 57 54 42 24 14 9 8 7 6 7 9 12 16 13 5 1 7 78 100 100 100 100 100 100 100 98 89 91 94 95 98 100 100 100 100 100 100 100 100 100 100 100 100 100 100 100 100 96
89 87 76 60 62 64 60 48 28 16 9 7 7 7 7 9 14 22 19 15 7 4 3 10 67 100 100 100 100 100 100 100 89 89 94 95 100 100 100 100 100 100 100 100 100 100 100 100 100 100 100 100 100 100
91 74 61 69 73 68 54 33 18 9 7 7 7 8 10 18 25 25 21 17 9 8 38 90 46 55 100 100 100 100 100 100 100 92 94 96 92 92 100 100 100 96 100 100 100 100 100 100 100 100 100 100 100 100
69 64 66 73 72 58 38 21 10 7 7 7 7 9 15 28 33 29 21 18 9 7 58 100 100 93 86 100 100 100 100 85 71 68 71 83 100 100 100 100 100 100 100 100 100 100 100 100 100 100 100 100 100 100
83 73 73 73 62 43 27 13 7 7 7 7 7 13 28 39 35 22 13 10 5 14 67 100 100 100 100 100 99 100 100 99 97 95 100 100 96 96 100 100 100 100 100 100 100 100 100 100 100 100 100 100 100 100
80 76 69 64 48 35 19 8 7 7 7 7 10 19 37 42 31 13 9 6 6 54 97 100 100 100 100 100 100 100 100 100 100 99 100 98 96 96 100 100 100 100 100 100 100 100 100 100 100 100 100 100 100 100
70 67 62 51 42 28 10 8 8 8 7 8 15 30 47 43 18 11 11 29 97 100 100 100 100 100 100 100 100 100 100 100 100 100 100 100 100 100 100 100 100 100 100 100 100 100 100 100 100 100 100 100 100 100
62 62 58 53 38 14 8 8 8 7 7 12 21 38 50 45 21 18 50 100 100 100 100 100 100 100 100 100 100 100 100 99 100 100 100 100 100 100 100 100 100 100 100 100 100 100 100 100 100 100 100 100 98 92

GFSWCAN_500_rhum_003.txt.gz
RH
57 53 51 36 29 22 21 20 11 7 2 12 34 48 60 61 69 77 78 87 90 96 100 92 79 84 97 69 62 63 62 76 92 96 99 100 87 51 58 44 49 54 47 49 59 70 86 99 94 100 94 93 98 95
61 58 53 39 31 23 22 21 13 8 2 2 23 47 48 62 75 69 80 84 89 96 85 88 68 81 100 60 52 62 66 87 96 98 99 100 91 50 48 44 37 53 45 39 46 65 76 76 78 85 79 79 80 88
65 66 56 43 33 25 22 21 14 10 4 1 3 26 56 63 64 82 94 93 84 87 78 86 78 94 92 98 74 72 75 97 98 100 100 100 95 75 42 26 36 51 46 36 39 50 65 82 86 80 78 75 75 67
70 73 61 46 37 29 24 21 15 10 6 2 2 9 20 60 74 79 72 81 98 100 88 100 98 87 78 88 78 93 97 99 99 100 100 93 97 87 56 39 42 56 50 43 42 51 59 66 74 75 78 93 93 93
74 72 66 51 42 34 25 22 16 11 6 2 1 3 16 48 78 90 76 81 89 88 77 87 84 91 94 95 92 96 78 96 99 97 100 99 96 99 72 60 67 63 61 59 52 53 63 62 77 86 95 89 84 87
77 72 70 58 46 37 25 23 18 12 6 2 2 2 24 48 83 90 82 94 78 66 64 65 72 92 94 82 90 89 69 98 98 95 100 98 95 91 86 74 99 77 68 80 76 68 79 84 89 100 100 89 79 71
74 61 70 63 49 37 26 24 20 12 7 2 2 1 17 74 98 88 81 83 82 73 62 68 69 84 89 79 82 74 68 99 100 100 99 91 84 72 85 99 96 79 79 93 91 83 78 84 91 93 91 92 80 78
78 68 76 65 50 35 28 26 21 12 6 2 3 2 7 73 88 89 80 90 86 74 67 80 74 75 81 75 79 72 69 91 95 100 98 97 88 78 88 92 70 71 70 90 94 90 94 94 97 98 98 97 79 82
83 75 81 68 50 36 28 27 22 12 5 2 3 2 3 47 79 84 94 100 96 76 66 70 72 77 76 76 79 80 75 88 96 98 98 96 91 94 96 93 90 84 74 71 76 77 84 90 93 96 97 94 92 92
85 80 85 69 50 37 29 28 23 12 3 4 3 3 2 52 100 100 100 100 100 83 69 72 78 78 74 81 80 72 65 82 93 99 97 97 99 99 96 97 97 89 85 79 76 73 77 90 97 95 98 100 99 87
88 79 86 68 51 37 31 30 23 12 2 6 3 3 0 66 100 100 100 100 98 71 78 79 84 76 72 74 79 70 66 78 92 96 92 97 94 83 95 96 96 100 100 98 95 94 95 98 98 97 100 98 98 98
83 82 91 67 51 38 32 31 24 11 2 9 7 3 8 88 100 100 100 100 87 86 76 90 98 91 85 74 75 71 62 72 86 91 95 95 88 95 98 98 96 99 96 98 96 98 98 96 94 95 98 99 98 96
91 91 90 66 50 40 33 32 26 12 2 18 17 12 42 100 100 100 97 96 77 73 74 100 94 90 89 88 84 80 63 59 75 83 89 88 98 98 100 100 95 96 97 98 97 96 96 97 97 97 95 93 92 86
94 91 91 67 52 42 34 33 30 15 5 14 34 26 72 100 100 96 94 81 73 67 68 85 100 99 94 94 83 82 69 62 64 73 81 77 91 97 98 100 100 100 98 100 100 99 98 99 98 97 96 93 89 83
96 88 92 71 55 43 36 34 34 21 10 4 40 55 63 86 96 95 68 67 72 70 69 69 86 99 92 79 86 80 67 56 62 62 70 73 75 94 100 100 100 100 100 100 100 100 98 90 84 82 81 78 77 83
100 89 94 76 58 46 39 37 37 28 17 10 7 52 71 72 74 58 44 51 58 66 70 73 88 95 81 77 83 84 75 77 70 59 59 63 68 78 94 100 100 99 100 100 100 100 100 100 100 99 96 93 96 95
100 97 90 81 64 51 44 42 40 37 26 18 11 4 58 71 73 80 69 59 56 59 62 66 74 84 80 76 71 94 100 99 93 90 81 78 79 86 92 96 100 100 100 100 100 100 100 100 100 100 99 94 91 97
100 99 96 89 70 55 49 46 43 43 37 28 23 14 6 26 73 74 84 91 80 78 72 66 56 62 69 64 72 100 97 100 89 81 70 71 78 85 90 93 95 100 100 100 100 100 100 100 100 100 97 90 88 91
100 100 100 89 74 60 55 54 48 48 47 42 32 28 20 12 4 24 62 83 97 97 88 74 58 49 54 63 65 72 94 93 97 92 83 70 73 75 85 88 95 98 99 96 96 97 95 91 82 73 66 65 63 66
100 100 100 90 76 65 60 59 53 48 52 48 39 34 33 24 14 9 5 11 47 74 77 74 64 51 49 62 70 73 79 92 91 98 92 83 72 72 78 81 85 97 100 100 97 85 74 70 70 70 68 66 63 66
100 100 100 95 78 66 63 60 58 52 51 51 47 42 36 31 20 15 11 8 5 4 45 77 86 71 67 63 67 72 92 100 96 86 82 81 83 77 69 71 80 100 100 99 97 96 93 89 86 83 83 83 89 96
100 100 100 96 74 65 66 66 60 55 49 46 44 42 37 32 24 18 14 11 8 6 4 19 80 100 100 100 94 92 95 100 99 90 78 70 66 73 84 86 87 89 99 100 100 95 92 92 92 94 97 100 100 100
100 100 100 86 70 64 65 66 64 56 50 44 44 45 42 31 24 20 13 8 6 5 5 6 10 73 100 100 99 100 100 100 100 90 79 76 71 68 74 85 91 90 94 98 100 100 96 96 100 100 100 100 100 100
100 99 94 79 73 69 67 67 58 51 50 52 50 48 37 28 20 14 8 6 5 5 5 6 8 22 84 100 100 100 99 100 100 96 86 82 84 77 78 84 94 100 100 100 98 100 100 100 100 100 100 100 100 100
100 100 87 74 73 72 70 59 52 51 55 56 52 40 30 23 12 7 6 5 5 5 6 7 9 10 36 89 100 100 100 100 100 100 99 92 90 91 100 100 100 100 99 99 98 100 100 100 100 100 100 100 100 100
100 90 90 80 74 75 71 65 61 59 58 56 46 34 26 12 7 6 5 6 6 7 9 12 13 12 9 50 93 100 100 100 100 100 99 100 94 97 99 97 100 100 100 100 100 100 100 100 100 100 100 100 100 100
100 91 85 76 75 70 63 63 62 59 59 52 38 28 14 7 6 6 6 6 8 11 14 14 14 12 7 8 80 96 100 100 100 100 100 100 100 91 90 98 100 100 100 100 100 100 100 100 100 100 100 100 100 100
100 94 76 76 76 68 64 64 61 61 55 45 34 15 8 7 6 6 5 6 10 17 18 16 15 10 4 4 19 90 100 100 100 100 100 94 79 83 91 99 100 100 100 100 100 100 100 100 100 100 100 100 100 100
98 87 81 84 78 76 70 60 59 55 48 41 21 9 8 7 6 6 7 10 17 20 19 16 15 11 6 4 11 35 96 100 100 100 100 100 96 90 98 100 100 100 100 100 100 100 100 100 100 100 100 100 100 100
92 87 86 86 78 72 60 55 54 51 46 28 12 8 8 6 5 6 10 17 20 14 9 10 10 8 9 30 66 38 66 99 100 100 100 100 99 100 100 100 100 100 100 100 100 100 100 100 100 100 100 100 100 100
86 96 93 80 69 60 54 54 53 51 34 15 9 8 7 6 8 17 24 20 11 8 6 5 6 16 44 87 100 93 95 100 99 100 100 100 100 100 100 100 100 92 100 100 100 100 100 100 100 100 100 100 100 100
100 100 85 73 63 58 56 57 55 44 23 10 9 8 6 6 11 27 27 18 9 13 12 46 72 80 92 96 97 100 100 100 96 100 100 100 100 100 100 100 100 100 100 100 100 100 100 100 100 100 100 100 100 100
93 91 86 69 61 59 60 58 52 36 15 9 9 8 7 8 20 35 29 16 30 71 95 99 100 98 96 99 97 100 100 100 100 99 100 100 100 100 100 100 100 100 99 100 100 100 100 100 100 100 100 100 100 100

GFSWCAN_500_rhum_006.txt.gz
RH
80 65 65 64 66 57 41 32 20 19 18 11 3 23 27 31 37 70 88 85 86 69 78 75 75 90 100 74 65 99 99 81 77 70 68 92 67 51 64 50 44 53 59 58 74 84 79 78 98 97 93 84 84 100
76 68 65 66 66 61 46 34 19 18 20 13 7 2 27 26 31 48 68 69 71 90 85 93 82 78 99 85 76 68 77 75 74 88 89 84 85 48 62 56 43 41 49 53 55 67 77 80 83 83 89 87 84 77
73 62 61 64 60 56 51 36 22 18 20 14 9 3 3 38 50 45 55 74 74 73 85 92 89 78 91 69 58 63 80 72 73 89 91 83 84 51 48 56 52 43 37 51 45 55 72 75 74 79 84 84 84 82
64 66 64 66 64 61 55 38 26 18 20 15 10 4 2 10 49 62 61 75 62 60 73 59 57 78 85 85 81 71 90 75 92 93 98 93 90 76 61 47 45 44 38 49 48 45 60 69 71 86 91 96 90 92
63 80 73 71 71 62 55 39 28 19 20 15 10 3 2 2 34 60 60 64 61 65 72 64 70 76 86 82 99 87 82 95 84 88 96 99 86 87 78 66 49 38 38 56 56 52 51 60 80 87 87 96 93 99
62 82 79 79 76 69 57 45 27 21 20 12 7 4 3 2 20 56 67 71 65 70 73 76 84 82 88 100 98 88 99 86 82 97 95 90 98 81 77 78 68 48 40 62 71 71 61 63 82 85 92 89 82 82
63 74 90 85 79 74 58 51 27 23 21 11 4 5 3 2 28 84 73 74 72 77 96 84 84 77 97 100 87 84 96 83 78 93 96 99 98 81 86 91 88 58 63 68 73 86 75 66 83 81 84 78 81 87
67 64 92 86 95 74 62 51 26 24 22 10 4 6 2 2 33 97 92 91 81 90 89 84 77 58 77 94 84 78 82 81 82 93 95 97 95 91 96 92 71 69 61 76 85 94 93 79 91 93 94 92 92 87
69 75 92 85 93 79 67 47 27 24 21 7 5 5 2 2 40 100 100 100 96 86 81 92 80 67 67 80 76 76 73 75 82 91 96 99 100 98 93 90 85 80 76 72 73 85 91 93 97 98 97 93 91 91
73 91 100 90 84 78 69 43 29 26 20 6 5 4 2 3 61 100 100 100 100 91 99 100 98 74 64 68 71 67 65 73 76 85 98 98 100 89 82 86 93 96 92 80 76 73 77 79 85 90 95 95 96 88
89 93 98 100 86 77 70 42 31 28 18 4 7 3 2 11 99 100 100 100 99 90 100 98 85 69 64 67 71 69 70 67 71 91 98 99 97 99 97 98 96 84 94 90 88 80 72 70 80 90 93 94 98 99
71 78 93 100 96 73 70 42 32 28 18 4 9 3 7 80 100 100 100 100 90 93 100 98 82 71 69 60 59 56 61 63 65 84 94 99 100 100 96 97 97 98 100 99 97 98 96 94 98 100 86 92 94 97
62 66 90 100 100 78 70 42 34 30 20 5 15 4 42 89 100 100 100 98 86 96 100 98 83 72 67 65 65 66 58 58 61 69 81 87 98 100 100 98 99 100 98 100 100 96 95 98 100 98 98 96 93 91
81 67 78 93 100 91 72 45 36 34 25 10 16 23 46 66 82 99 83 79 84 100 100 90 74 67 66 64 64 70 68 68 61 62 70 71 88 97 100 100 100 100 100 99 100 100 99 98 98 96 93 95 95 90
85 74 73 97 100 95 75 49 39 35 31 18 7 27 37 60 68 69 53 63 87 92 98 97 83 76 67 65 73 69 70 71 73 81 75 67 69 83 92 100 100 100 100 99 98 98 98 98 98 98 98 97 94 87
90 84 90 100 99 97 80 56 43 38 35 28 18 10 37 40 53 58 59 63 69 84 92 88 82 71 62 67 73 68 78 98 100 96 86 64 58 63 76 94 100 100 100 100 100 99 98 98 98 96 93 93 96 96
100 100 98 100 100 96 85 65 48 42 37 36 29 21 8 44 56 56 55 63 65 68 76 79 76 67 59 68 76 99 100 94 88 87 81 83 65 64 76 88 94 100 100 100 100 100 100 100 100 100 100 100 100 100
100 100 100 100 100 99 94 72 54 49 42 40 38 36 28 14 20 68 71 60 54 54 54 61 65 68 61 60 76 97 100 100 100 98 92 86 84 82 80 84 97 99 100 100 100 100 100 100 100 100 99 100 98 97
100 100 100 100 100 96 96 84 61 56 50 45 41 39 35 31 24 11 26 61 65 65 74 81 84 70 64 58 63 73 97 100 100 97 87 85 86 88 94 87 91 100 100 100 100 99 99 99 99 99 99 98 98 90
100 100 100 100 100 94 98 87 71 63 59 52 47 44 42 39 33 30 26 16 12 28 58 57 58 58 62 66 67 66 67 85 100 100 91 80 78 86 93 96 92 99 100 97 100 100 100 99 100 100 99 93 82 76
100 100 100 100 100 93 96 92 77 68 63 60 53 47 45 41 41 39 34 31 24 21 16 12 8 12 37 47 54 62 65 65 80 100 99 88 76 74 81 92 94 90 95 92 92 100 100 100 100 99 95 90 90 95
100 100 100 100 100 93 96 96 79 71 62 62 55 48 44 42 40 41 39 38 34 28 24 20 16 11 8 6 7 21 49 67 63 84 100 98 76 66 69 79 85 90 95 97 95 99 100 97 99 100 100 100 100 100
100 100 100 100 100 96 100 96 85 74 61 62 54 46 39 40 43 44 43 40 35 30 26 21 14 9 6 5 4 5 5 33 78 90 96 97 78 70 75 78 75 84 93 100 100 95 98 100 100 100 100 100 100 100
100 100 100 100 100 99 100 98 88 73 67 60 51 45 43 45 44 43 42 37 33 26 18 12 8 5 4 3 3 4 6 7 31 100 100 100 99 74 70 88 79 78 74 79 97 96 97 100 100 100 100 100 100 100
100 100 97 100 100 100 100 96 88 77 68 60 53 50 48 42 40 39 39 33 24 15 9 6 4 3 3 4 4 4 5 7 19 95 100 100 100 100 98 99 99 84 74 67 75 92 100 100 100 100 100 100 100 100
100 98 97 100 100 99 97 100 91 73 64 55 50 51 45 40 41 39 34 22 12 8 5 4 4 4 4 4 5 6 7 8 10 62 100 100 100 100 100 100 100 96 87 84 92 100 100 100 100 100 100 100 100 100
95 97 100 100 98 95 100 99 82 66 58 56 53 48 42 42 40 34 20 12 8 5 4 4 4 4 5 8 8 8 13 10 9 27 99 100 100 100 100 100 100 100 98 94 98 100 100 100 100 100 100 100 100 100
100 100 100 96 88 97 99 83 69 66 63 56 48 44 42 43 35 23 14 9 6 4 4 4 4 8 10 16 16 12 12 12 10 11 76 100 100 100 100 100 100 100 100 100 100 100 100 100 100 100 100 100 100 100
100 100 90 86 89 93 86 79 76 67 57 48 44 46 46 40 28 16 10 7 5 4 4 7 12 12 13 12 13 14 13 9 8 8 40 99 100 100 98 100 100 100 100 100 100 100 100 100 100 100 100 100 100 100
99 89 89 94 96 91 87 78 69 59 52 47 46 50 46 35 20 13 8 6 5 4 6 10 12 9 5 6 10 12 10 5 4 10 13 85 100 100 100 100 100 100 100 98 99 100 100 100 100 100 100 100 100 100
100 95 97 100 100 94 85 76 66 58 52 49 52 50 44 28 14 8 7 5 5 6 9 12 9 4 4 5 7 8 8 16 19 52 43 75 100 100 100 100 100 99 100 100 100 100 100 100 100 100 100 100 100 100
95 96 100 100 100 94 86 74 66 58 55 56 54 47 38 21 10 8 6 6 6 11 14 11 15 20 22 29 37 74 81 71 90 99 69 91 100 100 100 100 100 100 100 100 100 100 100 100 100 100 100 100 100 100
98 100 96 91 92 89 80 74 63 60 60 56 52 42 31 16 8 7 6 6 10 17 15 27 53 68 84 90 92 87 95 100 100 100 99 93 100 100 100 100 100 100 100 100 100 100 100 100 100 100 100 100 100 100

GFSWCAN_500_rhum_012.txt.gz
RH
98 98 97 98 88 75 54 48 49 45 33 45 40 34 25 25 21 11 10 22 33 37 51 55 57 28 40 45 50 64 64 67 63 52 45 42 41 37 50 57 69 84 80 84 76 62 58 56 60 63 61 70 71 61
98 99 98 96 93 81 55 51 54 54 38 36 41 37 27 21 20 16 6 11 24 36 43 56 55 56 61 65 80 92 82 78 95 77 65 58 61 50 44 57 74 87 70 66 56 54 46 48 54 64 67 67 66 75
94 99 97 97 93 76 58 54 52 56 42 38 41 42 30 21 18 14 9 6 24 31 39 54 56 62 78 76 78 100 100 96 96 89 87 88 69 51 40 41 53 65 65 63 49 47 49 46 49 61 61 66 66 75
97 100 98 98 85 78 76 54 54 51 45 42 41 44 31 22 18 13 8 6 27 41 47 59 60 64 75 93 81 99 100 100 96 82 86 84 71 54 45 40 51 52 53 61 66 53 42 52 47 47 55 67 71 82
100 100 100 96 81 82 93 65 53 48 58 52 47 43 29 23 14 8 5 5 61 71 55 64 70 72 83 99 99 88 93 91 88 76 87 94 83 64 67 55 69 55 50 48 57 61 53 48 49 45 50 68 75 89
100 98 95 87 89 96 95 70 60 57 75 61 48 40 26 16 10 5 2 6 64 100 80 83 71 82 100 100 96 100 81 61 61 69 94 98 86 73 78 88 77 58 48 56 59 54 51 52 56 48 48 71 81 86
100 95 90 95 99 100 84 74 63 62 76 61 46 33 21 11 6 1 3 6 78 100 96 84 74 86 100 98 100 100 99 98 72 84 98 91 94 83 78 78 64 63 61 70 77 67 71 72 68 61 67 76 80 92
98 92 87 93 99 92 86 81 75 66 72 56 47 29 13 7 2 2 4 16 100 100 100 92 78 99 96 88 100 100 98 100 98 100 100 99 100 91 78 64 68 74 72 83 89 79 82 100 96 79 86 91 90 89
98 99 88 92 100 95 98 89 86 64 72 58 43 21 10 3 2 3 6 91 100 100 100 98 92 95 96 100 100 100 100 100 100 100 100 100 100 100 100 95 88 82 78 86 89 94 100 100 100 99 99 100 98 97
100 87 79 94 100 96 100 92 80 62 81 55 36 16 8 2 2 5 59 100 100 96 100 99 95 97 90 85 87 94 100 100 100 100 100 100 100 100 100 100 91 79 79 86 91 88 88 94 92 99 100 100 100 100
88 76 85 100 100 100 100 89 71 84 75 53 30 15 7 2 5 42 100 100 99 100 100 100 99 97 80 76 74 90 98 99 100 100 100 100 97 94 98 100 98 90 88 87 95 95 96 90 80 87 99 100 100 98
88 77 75 100 100 100 100 94 76 95 74 45 27 14 8 7 19 72 94 91 84 90 97 95 98 85 76 71 68 61 62 80 97 100 100 89 87 98 100 100 100 96 94 99 95 100 98 90 85 80 88 99 99 100
90 85 90 100 100 100 100 99 92 92 73 44 28 15 11 20 30 56 64 66 78 95 100 97 94 82 80 79 69 60 53 58 62 75 90 89 86 99 99 100 100 100 99 97 99 98 99 99 99 100 98 97 98 100
92 86 72 100 100 100 100 100 100 100 76 45 32 19 20 31 52 67 64 75 81 98 100 100 98 95 88 86 70 62 56 50 58 64 68 70 83 82 91 98 100 100 100 100 98 93 94 98 99 100 100 99 100 99
86 99 97 98 100 100 100 100 100 100 80 47 36 28 13 26 52 67 67 67 76 85 91 99 96 94 90 80 74 66 54 57 64 67 72 75 77 80 78 81 95 99 99 99 100 96 95 94 99 97 97 97 98 98
100 100 100 100 100 100 100 100 100 100 94 54 42 35 26 17 33 44 54 59 63 72 80 81 80 80 77 72 73 64 60 62 52 51 58 67 80 89 86 75 72 90 98 100 97 98 100 100 93 93 99 99 98 98
81 100 100 100 100 100 100 100 100 100 99 66 48 41 36 31 16 29 39 59 59 62 59 61 67 75 79 74 70 68 73 75 54 48 50 58 66 81 98 89 73 64 77 98 100 100 100 100 100 99 98 99 99 99
100 100 100 100 100 100 100 100 100 100 100 89 61 48 43 40 38 18 21 38 69 84 76 74 75 70 73 73 72 88 96 91 82 68 57 57 64 75 87 98 96 85 76 77 87 99 100 100 100 100 100 100 100 100
100 100 100 100 100 100 100 100 100 100 100 100 82 56 50 48 46 42 31 20 24 43 53 71 68 66 69 69 77 86 87 88 89 84 75 63 62 68 80 92 100 100 97 91 87 87 90 97 100 100 99 100 100 100
100 100 100 100 100 100 100 100 100 100 100 100 100 69 60 55 51 49 49 45 36 29 18 21 34 39 44 46 50 53 55 61 73 73 78 82 73 66 63 70 86 95 100 100 100 99 97 97 99 100 100 100 100 100
100 100 100 100 100 100 100 100 100 100 100 100 100 96 72 64 58 53 53 51 50 47 45 45 42 28 14 12 16 23 38 50 57 59 51 45 45 47 53 53 53 73 87 97 95 100 100 100 100 100 100 100 100 100
100 100 100 100 100 99 100 100 100 100 100 100 100 100 88 74 68 63 57 55 53 49 44 42 41 43 42 38 35 32 31 29 27 24 20 19 20 19 25 38 49 51 50 64 83 90 97 95 94 99 100 99 100 100
100 100 100 100 100 94 99 100 100 100 100 100 100 99 99 90 78 67 59 61 55 45 45 43 41 43 45 45 44 41 39 37 34 32 30 27 25 23 21 14 11 24 40 50 50 60 83 82 84 98 100 100 100 100
100 100 100 100 92 91 100 100 100 100 100 100 100 100 100 99 91 79 69 64 52 44 44 41 40 40 39 37 36 34 33 32 27 20 17 16 16 17 18 18 16 12 8 13 38 48 53 75 83 80 96 100 100 100
100 100 98 87 92 95 100 100 100 100 100 100 100 100 100 100 92 84 78 70 57 43 39 38 38 36 35 34 34 31 28 26 24 22 20 18 16 13 9 6 5 5 7 5 7 32 52 61 73 78 79 98 100 100
98 100 91 88 99 100 100 100 100 100 100 100 99 100 100 97 95 86 84 65 50 47 42 39 36 34 32 31 31 30 28 24 22 19 16 14 12 9 6 4 3 2 2 3 4 6 43 65 77 73 70 79 98 99
97 86 92 100 100 100 100 100 100 100 100 100 100 100 99 92 91 86 73 57 48 41 40 39 38 34 33 33 30 27 24 21 18 15 10 6 4 3 2 2 2 2 2 2 3 4 58 74 90 85 76 70 81 98
88 91 100 100 100 100 100 100 100 100 100 100 100 100 90 96 90 77 66 53 41 38 41 40 34 33 33 30 27 23 20 17 12 6 4 3 2 2 2 2 2 3 3 3 3 4 76 100 100 100 93 74 75 91
82 100 100 100 100 100 100 99 100 100 100 94 95 98 100 100 89 77 61 49 42 42 44 38 36 33 30 27 23 20 14 8 4 3 3 3 3 3 4 6 8 7 4 4 4 11 99 100 100 100 100 100 100 96
92 100 100 100 100 98 95 99 100 100 98 100 100 100 99 94 82 69 60 51 45 45 41 38 35 32 28 24 17 9 6 4 3 4 4 6 5 4 4 5 10 11 6 6 6 14 96 100 100 100 100 100 100 98
100 100 100 100 97 93 97 99 97 99 100 98 96 94 92 86 79 64 54 46 44 42 39 36 34 30 26 16 8 4 5 5 6 10 20 24 10 6 9 11 12 12 10 9 9 16 75 100 100 100 100 100 100 100
100 100 98 92 92 91 92 99 99 96 98 94 94 90 85 74 64 59 54 48 46 44 40 36 33 27 15 7 4 5 7 10 28 44 60 62 25 8 12 13 12 11 11 14 60 98 100 100 100 100 100 100 100 100
100 98 91 86 91 100 99 91 94 98 100 96 94 86 73 61 54 53 51 49 47 44 38 35 28 15 6 4 6 8 15 33 49 65 73 83 63 13 8 10 10 21 58 60 100 100 100 99 100 100 100 100 100 100

GFSWCAN_500_rhum_015.txt.gz
RH
100 95 99 98 99 99 96 99 92 48 50 52 53 47 54 52 43 31 27 19 8 23 29 36 33 29 28 35 43 48 46 45 40 34 31 29 29 28 27 41 55 53 85 91 94 87 71 61 58 52 56 61 65 58
77 81 99 98 98 100 94 100 77 65 60 62 59 48 50 46 44 41 30 24 20 9 18 32 42 56 53 38 48 58 56 56 48 44 42 34 36 32 30 37 45 61 68 82 83 77 58 58 49 42 44 52 59 57
94 90 100 98 97 99 74 98 85 78 77 66 66 55 55 51 41 38 34 29 19 12 9 20 39 51 58 65 62 59 87 82 78 88 88 78 53 49 37 34 36 54 64 81 74 59 52 50 50 45 43 47 59 63
98 100 100 98 99 99 79 96 77 82 87 78 68 61 60 53 43 38 33 22 13 10 7 18 41 44 67 69 67 78 100 100 100 100 100 100 90 71 63 41 36 48 54 65 64 61 67 59 45 45 47 46 65 71
100 99 98 98 99 100 92 99 91 87 82 73 70 64 55 52 42 34 22 12 6 3 6 30 62 65 64 82 90 84 90 100 100 100 99 99 96 83 72 64 73 34 52 50 58 53 54 59 59 50 48 48 66 77
99 99 98 98 96 97 99 100 98 100 81 74 74 60 60 49 37 20 10 2 2 2 15 74 100 80 83 81 96 100 88 94 95 100 93 100 94 91 90 88 58 38 47 46 58 60 51 53 54 52 53 56 77 84
100 100 98 99 100 99 98 97 100 100 83 85 72 60 58 40 20 8 2 2 3 12 46 100 100 80 75 97 95 100 99 100 88 70 66 93 98 88 86 76 74 68 75 72 64 65 67 66 60 61 59 67 89 96
100 100 100 98 88 78 82 94 100 98 95 89 64 71 45 25 11 2 3 7 58 100 100 100 100 100 79 99 100 97 100 100 95 87 97 98 97 83 93 88 85 76 74 78 96 90 81 72 67 77 83 77 100 100
100 100 99 98 96 82 91 98 100 97 92 79 76 60 37 16 5 3 6 73 100 100 100 100 94 95 86 100 100 100 100 100 100 100 100 99 84 90 100 96 95 79 76 83 87 83 83 75 67 88 96 96 100 99
99 100 99 100 90 98 84 99 100 98 92 70 84 49 20 12 4 14 82 100 100 92 100 100 100 97 99 100 100 100 100 100 100 100 96 83 80 100 100 100 96 88 78 76 77 77 80 93 88 84 97 99 100 100
100 100 91 100 86 82 80 100 100 100 93 82 77 36 13 8 16 67 97 96 100 100 100 100 100 100 92 100 100 100 100 100 100 99 83 86 84 98 100 100 100 100 90 81 84 86 90 84 75 76 88 91 100 100
96 97 91 98 86 78 82 92 100 100 95 95 77 32 12 16 31 70 61 85 93 93 94 96 98 100 100 100 100 99 100 99 99 93 86 85 85 93 100 100 100 99 99 100 90 97 100 94 95 92 88 79 93 99
100 100 98 99 74 79 86 90 100 100 99 100 85 33 14 20 48 56 51 59 67 80 92 96 100 99 100 99 100 100 88 75 67 72 84 86 93 93 98 99 100 100 98 92 100 100 91 100 91 90 94 100 97 99
98 83 88 99 91 96 84 93 100 100 100 100 88 38 16 21 45 57 54 60 63 74 80 83 94 100 100 99 93 95 81 64 57 60 70 71 75 86 98 98 95 99 99 100 100 98 98 100 98 99 95 99 100 100
50 79 100 98 95 100 95 90 97 100 100 100 93 43 18 21 26 48 58 60 61 70 79 89 92 93 99 91 92 85 81 68 62 68 73 77 85 88 91 96 98 94 99 100 100 100 99 100 98 97 99 100 100 99
24 55 100 100 100 100 99 100 93 100 100 100 100 58 32 19 25 37 49 54 58 69 81 88 92 93 92 83 80 81 84 82 67 58 60 60 68 77 92 93 89 95 96 97 100 100 95 99 100 100 100 96 94 99
16 93 96 100 100 100 100 100 100 100 100 100 100 84 42 29 18 22 41 63 65 65 66 71 74 78 77 80 74 75 91 90 76 65 58 50 54 66 74 84 92 89 85 88 92 100 100 99 99 97 100 100 100 100
8 12 84 92 100 100 100 100 100 100 100 100 100 99 58 44 35 25 18 26 40 52 56 62 64 66 65 63 68 93 100 96 93 85 80 74 65 58 58 66 75 94 98 96 92 89 91 100 100 100 100 98 100 100
7 8 27 89 100 100 100 100 100 100 100 100 100 100 95 58 49 43 38 26 18 21 32 40 44 56 62 62 77 88 84 88 89 86 78 73 72 62 58 58 64 70 74 86 97 98 91 87 92 99 100 100 99 100
7 7 10 55 98 100 100 100 100 99 100 100 100 100 100 96 66 54 50 45 42 38 26 16 20 29 36 45 47 50 54 61 65 63 63 65 69 66 63 56 54 59 64 73 78 83 94 96 90 87 88 95 99 100
8 8 8 76 98 100 99 100 100 100 100 100 100 100 100 100 95 67 60 55 52 51 47 44 42 40 40 39 32 17 15 21 29 36 46 52 53 51 50 53 51 52 52 56 56 58 72 80 88 91 92 90 90 99
9 9 26 100 100 100 94 100 99 100 98 100 100 100 100 100 100 95 74 68 65 61 57 53 51 47 41 37 35 34 36 36 34 35 35 32 27 25 28 39 50 52 45 40 40 37 39 50 63 77 84 91 92 90
21 14 19 91 100 96 89 100 100 100 100 100 100 100 100 100 100 100 95 86 81 67 61 56 49 45 40 35 34 35 37 38 37 36 36 36 35 35 35 34 29 25 21 19 18 18 22 28 39 51 60 75 76 83
44 56 34 83 95 87 88 100 100 100 100 100 100 100 100 100 100 100 100 100 94 82 73 64 55 49 40 34 33 33 34 34 34 33 32 31 30 29 27 24 21 21 24 26 24 22 19 12 17 39 45 45 63 75
100 100 60 74 96 87 87 97 100 100 100 100 100 99 100 100 99 100 100 100 91 92 85 76 64 48 37 34 32 30 31 31 30 29 29 28 28 28 27 25 23 22 20 16 12 12 18 20 16 10 14 37 53 66
100 98 59 83 93 93 90 99 100 100 100 100 98 100 100 98 100 100 100 97 100 100 94 80 63 49 41 36 34 27 26 27 27 27 28 27 26 24 22 20 18 17 17 16 15 14 11 7 9 12 11 10 34 71
100 74 65 100 100 100 98 100 100 100 99 98 99 100 98 96 100 100 99 100 100 99 91 76 62 51 42 36 30 27 27 27 27 28 28 25 22 20 18 17 14 10 9 9 8 6 5 5 4 3 4 6 23 90
84 72 88 100 100 100 100 100 99 100 100 100 100 100 98 99 100 94 96 100 100 94 83 70 58 46 36 29 26 27 29 28 28 27 25 23 21 18 14 8 4 2 2 2 2 2 2 2 2 2 2 3 15 83
66 78 100 100 100 100 100 100 100 100 100 100 100 100 100 100 95 93 99 98 93 87 77 64 48 37 30 27 27 29 29 29 29 26 25 19 10 5 4 2 2 2 2 2 2 2 2 2 2 2 2 3 21 99
66 100 100 100 100 100 100 100 100 100 99 100 100 100 100 100 96 97 94 90 88 79 65 50 39 32 31 31 33 34 32 30 27 24 16 5 3 3 3 3 4 4 4 4 4 4 5 5 4 3 3 7 96 100
100 100 100 100 100 100 100 100 100 100 100 100 100 100 98 93 99 94 92 92 79 64 53 44 38 33 34 37 38 35 31 28 20 9 4 3 4 7 13 33 31 28 12 5 4 4 8 9 5 4 5 69 100 99
100 100 100 100 100 100 98 100 100 100 100 100 95 86 90 94 99 100 96 77 62 51 43 36 32 37 40 39 35 30 27 13 4 3 4 8 20 38 61 63 59 27 11 10 9 10 12 9 6 6 17 96 100 100
100 100 98 90 93 95 100 100 100 100 99 92 92 93 94 95 100 91 74 59 49 42 39 39 43 43 39 34 31 24 8 4 4 5 21 45 63 78 74 74 34 13 13 13 12 13 11 10 13 73 100 100 100 100

GFSWCAN_500_rhum_018.txt.gz
RH
10 59 68 80 89 100 99 98 99 99 100 71 69 76 72 76 69 64 68 59 40 27 15 12 11 24 34 37 38 43 39 38 28 28 27 29 32 28 28 30 29 40 51 86 97 99 88 83 68 61 56 57 47 54
33 28 32 67 100 100 100 100 98 94 91 87 77 89 77 66 63 77 79 69 62 48 32 27 13 15 29 31 31 31 33 51 49 40 33 32 34 35 35 34 38 48 56 62 92 90 90 77 58 52 50 45 46 51
44 28 56 75 100 99 98 98 98 99 91 97 82 90 93 83 72 65 68 59 49 47 40 33 25 15 26 38 48 40 37 40 50 54 55 52 42 44 40 40 37 40 41 67 86 77 89 58 50 51 51 44 46 53
66 79 92 98 100 99 99 99 99 100 100 95 92 96 89 73 66 50 44 49 43 34 24 17 14 14 15 39 55 70 64 54 50 68 91 99 90 83 75 59 60 40 32 49 75 80 74 64 60 53 46 45 46 58
100 96 100 100 99 96 100 97 99 100 97 92 88 93 85 83 64 45 43 38 20 11 7 4 4 9 24 57 80 81 74 73 79 93 100 100 100 100 98 92 65 39 31 27 50 60 62 60 59 62 59 51 48 60
99 100 99 99 100 100 100 100 99 100 87 93 88 92 95 78 51 46 30 12 4 2 3 3 6 19 100 100 95 81 82 90 100 100 100 100 97 96 98 97 69 45 40 33 44 45 67 68 57 52 53 47 49 65
99 100 100 100 100 100 100 100 99 100 100 93 93 95 82 58 47 24 9 3 3 2 13 61 52 89 100 100 95 100 93 99 96 100 100 99 87 80 80 91 89 61 53 57 61 64 74 66 66 58 51 49 55 65
100 100 100 100 100 100 100 100 93 97 97 100 97 89 67 55 31 8 7 8 27 58 100 100 100 100 100 96 99 100 100 100 93 96 100 89 69 63 70 86 74 66 61 65 74 75 71 83 78 70 66 62 69 76
100 100 100 100 100 100 100 98 100 99 96 100 100 93 70 52 13 18 66 82 100 100 100 100 100 100 99 100 100 100 100 97 93 98 92 70 60 63 81 84 75 80 76 73 71 71 76 84 81 75 71 77 94 90
98 100 100 100 100 100 100 81 75 73 89 100 98 99 73 40 17 62 80 76 81 100 100 92 100 99 86 95 100 100 100 100 100 94 93 83 68 78 85 93 87 90 94 87 86 88 83 77 72 71 69 74 92 98
96 90 100 100 100 99 100 92 71 72 88 100 100 100 54 27 39 59 54 65 85 97 100 94 92 97 94 100 100 97 100 100 100 100 99 85 90 81 89 100 99 98 100 95 87 83 81 81 80 83 81 90 90 99
100 85 100 100 92 83 79 99 71 64 76 99 100 100 43 21 43 38 46 72 83 97 96 100 100 100 99 100 100 100 100 100 100 100 100 100 91 86 97 98 100 100 98 98 89 85 94 98 95 92 86 81 85 86
100 99 100 100 100 100 95 95 78 64 73 87 100 100 59 24 39 30 37 61 79 93 100 100 100 100 100 100 100 95 96 90 90 88 91 90 90 96 99 98 98 100 100 93 95 99 95 95 97 97 100 94 91 85
46 83 98 100 100 100 99 99 92 81 80 94 100 100 77 23 32 35 37 56 70 75 81 86 93 95 98 100 99 97 100 93 81 70 74 77 82 97 99 99 99 99 100 100 99 100 98 100 100 98 98 99 100 99
8 10 24 60 98 97 93 98 100 97 87 97 100 100 94 28 33 41 39 51 53 57 75 82 78 86 99 100 99 96 99 93 82 73 74 77 84 90 94 97 97 97 99 100 100 100 100 99 100 100 100 100 100 98
8 8 9 16 93 99 100 100 100 97 92 100 100 100 99 29 24 43 53 57 64 73 73 79 83 88 86 87 95 100 99 100 96 83 72 65 60 64 70 79 89 93 94 97 100 100 100 100 100 100 100 100 100 96
7 8 8 10 56 100 100 100 97 95 99 98 100 100 100 54 24 26 36 54 68 67 64 69 77 83 87 92 94 99 100 99 94 89 82 73 64 56 56 57 61 67 80 92 96 97 99 100 99 100 100 100 100 100
6 7 7 8 12 50 100 100 100 100 100 100 100 100 100 92 30 26 26 38 53 66 66 62 62 65 73 77 92 93 93 90 88 84 79 75 71 67 65 64 60 53 50 56 68 84 92 96 98 100 100 100 100 100
12 9 8 6 7 11 78 98 98 96 100 100 100 100 100 100 91 42 27 24 27 41 49 54 54 57 61 68 76 74 70 68 67 65 62 60 61 69 68 63 63 62 60 53 48 48 55 68 83 93 98 98 100 100
41 22 9 9 8 9 24 62 84 92 100 100 100 100 100 100 100 81 52 42 36 25 22 22 23 32 40 41 40 52 60 61 59 56 54 56 56 55 56 58 53 49 59 66 66 60 53 48 48 54 66 86 97 98
46 42 26 14 10 8 25 53 87 92 99 100 100 100 100 100 100 100 96 88 61 47 46 43 36 30 29 34 38 37 31 27 26 29 33 37 34 34 33 36 41 46 46 53 54 49 53 51 49 52 52 50 58 78
44 35 33 29 19 9 19 99 99 96 98 100 100 100 100 100 100 100 99 99 100 74 57 55 49 46 44 43 42 39 35 33 32 34 38 39 36 34 31 27 25 24 25 31 37 38 42 58 54 48 46 44 48 54
56 48 39 28 24 14 25 100 100 100 96 100 100 100 100 100 100 97 90 99 100 95 78 66 63 59 54 52 47 42 36 31 30 30 30 31 34 35 37 36 35 35 36 34 32 28 25 30 42 47 39 37 36 38
56 41 33 28 26 17 17 97 100 100 100 100 100 100 100 100 97 92 96 100 99 85 89 87 83 72 64 58 52 46 36 30 28 27 24 26 30 31 30 29 28 28 29 30 29 29 29 30 30 26 21 19 17 17
48 32 29 25 22 18 24 97 100 100 100 100 100 99 100 98 93 95 100 100 95 89 99 100 99 95 85 72 68 57 45 37 34 34 26 20 23 28 28 28 26 26 24 24 25 26 26 24 19 16 22 27 26 24
46 36 30 22 22 31 45 100 100 100 99 100 98 100 99 93 93 98 100 98 96 96 100 100 99 99 97 90 77 63 52 44 36 32 26 20 17 17 19 22 26 27 24 24 24 23 23 22 22 22 20 16 14 19
40 31 27 23 24 43 74 100 100 100 100 100 100 100 98 98 100 100 100 100 99 100 100 100 98 97 94 85 78 67 59 47 35 26 22 19 17 16 16 18 24 26 25 23 21 19 18 18 18 18 18 18 17 15
35 27 24 24 30 54 84 100 100 100 100 100 100 100 100 100 100 100 100 100 100 100 100 99 97 95 92 86 75 64 50 39 31 25 22 21 21 22 22 24 25 25 23 21 18 16 12 10 10 11 12 12 12 12
34 28 24 20 26 62 87 100 100 100 100 100 100 100 100 100 100 100 100 100 100 99 99 99 94 91 88 80 66 53 41 32 25 21 18 19 25 30 27 25 23 22 18 12 7 4 3 3 2 2 2 3 4 5
36 30 22 20 50 83 92 99 100 100 100 100 100 100 100 100 98 97 95 96 96 91 90 88 87 85 75 62 52 42 32 24 20 18 19 26 29 28 26 22 15 7 3 2 2 2 2 2 2 2 2 2 2 2
27 23 40 93 89 94 96 100 100 100 100 100 100 100 100 97 96 92 89 82 84 88 85 83 77 68 56 46 36 28 23 20 22 26 30 28 26 21 11 4 2 3 4 6 9 13 16 12 7 4 4 4 4 3
29 53 76 82 91 100 99 93 99 100 100 100 100 98 99 99 100 95 81 73 83 82 79 71 60 50 40 30 23 22 26 34 35 31 28 20 7 3 3 5 14 29 43 51 56 59 48 29 12 6 5 6 6 6
100 100 100 100 100 95 93 96 100 100 100 100 99 99 100 98 98 96 94 88 83 74 64 54 41 31 26 25 29 36 38 34 30 25 9 3 3 11 33 56 58 59 67 63 50 26 13 7 5 8 11 10 7 6

GFSWCAN_500_rhum_021.txt.gz
RH
6 11 14 20 28 54 67 75 100 100 99 100 100 100 79 79 87 78 73 68 63 63 59 43 28 15 20 33 40 34 36 34 31 28 28 25 27 32 37 43 50 47 38 24 53 85 88 92 96 82 66 50 48 44
11 18 24 32 62 45 36 65 100 100 99 100 100 100 96 91 96 100 94 84 75 67 73 59 53 44 26 13 29 38 33 42 46 40 33 32 30 31 38 36 35 39 45 56 60 96 97 92 92 73 57 45 40 43
38 42 39 46 56 50 59 71 100 100 100 99 100 99 99 97 92 96 99 83 77 63 59 64 65 50 50 33 16 22 35 35 34 35 43 45 40 44 37 37 37 40 44 56 57 73 94 98 90 62 57 49 43 43
89 73 74 80 92 88 96 86 100 100 99 99 100 100 100 100 96 88 84 81 66 48 39 46 46 45 43 44 35 18 35 34 32 33 36 41 48 56 53 40 42 37 35 32 45 66 77 82 81 55 50 45 46 47
93 92 93 98 100 99 100 100 100 99 99 100 100 100 100 96 85 77 64 54 43 27 16 12 11 13 17 25 27 22 41 48 46 43 39 34 49 63 69 69 50 38 37 38 40 51 50 85 79 70 65 65 61 55
97 98 100 98 100 100 100 100 100 100 100 100 99 100 99 94 81 64 58 33 11 5 3 2 2 3 5 8 17 64 99 81 80 62 64 73 72 79 91 100 74 57 52 44 47 36 32 60 83 71 63 62 61 57
93 100 100 100 100 100 100 100 100 100 100 100 100 100 96 88 79 67 38 11 18 44 48 7 5 5 7 23 61 89 89 100 98 94 100 97 83 84 91 100 94 83 66 52 47 46 41 44 50 59 59 62 60 54
58 96 100 100 100 100 100 100 100 100 100 100 96 85 90 88 76 41 16 48 65 76 52 36 30 38 89 100 100 100 100 100 100 100 100 100 98 82 73 75 76 74 69 60 54 59 60 44 52 56 64 75 68 59
82 100 100 100 100 100 100 100 100 100 98 89 89 99 90 88 49 24 37 81 90 68 48 92 100 100 91 96 84 86 84 86 93 98 96 80 72 60 58 56 57 61 61 62 58 60 67 69 70 70 72 76 76 85
100 100 100 100 96 100 100 100 100 100 97 77 89 100 100 71 35 35 52 48 42 48 69 79 69 76 100 97 100 100 100 100 100 100 80 65 63 69 68 60 62 62 55 68 79 77 69 68 73 81 84 85 84 88
100 100 100 100 100 86 99 100 99 100 100 86 83 85 100 72 35 46 78 83 86 54 90 95 100 100 100 100 100 96 99 95 87 75 94 87 94 96 95 91 83 83 81 76 89 95 86 80 82 81 81 82 91 93
93 100 100 100 100 100 83 100 100 97 100 76 71 72 100 84 38 38 60 59 78 80 74 90 97 97 98 99 96 100 96 98 88 85 85 80 100 100 100 94 82 96 98 84 83 97 89 82 84 89 86 82 83 84
34 96 100 100 100 100 99 99 100 100 100 99 77 77 98 84 45 38 39 58 79 80 80 81 85 98 100 100 96 100 100 100 95 99 88 92 98 100 98 90 89 99 100 100 82 87 97 95 99 94 99 99 99 98
6 7 21 68 100 100 100 100 100 100 100 100 100 89 92 100 82 42 42 53 63 78 90 95 100 100 100 100 100 100 100 96 87 79 72 84 99 100 100 100 100 100 100 100 97 91 100 100 100 100 99 99 100 96
7 7 7 9 12 36 80 100 100 99 100 100 97 95 92 100 99 45 48 48 68 77 86 95 99 99 100 96 97 99 97 91 97 90 71 79 86 95 97 100 100 100 99 100 100 100 100 100 100 100 97 92 91 98
28 8 6 8 8 12 34 91 100 100 96 88 85 98 100 100 100 81 41 50 54 67 68 74 85 87 88 87 92 91 94 100 95 92 90 77 67 68 77 86 94 97 98 99 98 100 100 100 100 100 100 99 91 95
63 47 16 6 8 9 36 84 100 98 100 98 100 100 100 100 100 99 44 54 50 56 71 66 69 79 74 76 85 100 100 100 98 91 90 90 80 68 57 56 59 62 66 72 76 89 95 99 100 100 100 100 100 100
49 46 37 9 8 8 9 35 91 82 94 100 100 100 100 100 100 100 83 43 57 60 64 70 72 72 68 70 100 100 92 82 81 80 81 76 76 74 68 63 63 62 63 61 57 51 49 52 66 88 97 100 100 100
37 43 43 20 13 11 9 8 24 65 100 100 100 100 100 100 100 100 100 50 39 54 57 62 62 67 71 73 77 81 80 77 78 80 79 77 73 68 64 60 56 53 53 53 52 50 50 48 43 47 53 73 92 99
43 40 56 66 49 30 15 9 12 28 83 98 97 100 100 100 100 100 100 84 28 26 31 29 46 67 78 78 74 72 68 66 66 67 67 65 63 58 56 53 47 41 38 36 42 46 43 42 50 50 48 47 49 57
47 33 41 55 44 40 31 17 11 27 77 100 98 100 100 100 100 100 100 100 92 45 32 29 25 22 22 25 30 38 45 50 45 41 39 39 40 39 42 39 40 38 37 34 32 35 43 44 44 51 52 51 52 54
89 42 52 54 40 36 36 29 18 42 100 100 100 100 100 100 100 100 100 97 99 93 88 85 62 45 43 36 27 31 36 39 41 40 38 34 31 30 30 29 29 29 31 31 32 30 26 22 23 32 46 50 47 51
100 78 76 67 56 50 38 35 25 69 100 100 100 100 100 100 100 98 94 100 100 100 92 88 84 68 55 53 51 49 47 47 45 41 36 32 27 26 25 20 23 27 28 27 30 31 31 31 32 32 29 28 30 33
100 100 89 68 62 52 35 32 31 35 100 100 100 100 100 100 98 98 100 100 99 84 77 83 91 93 93 80 59 56 54 54 50 46 37 30 29 30 29 25 22 19 21 25 23 22 24 25 26 29 29 30 32 33
100 100 96 73 66 61 40 31 26 32 94 100 100 100 100 95 95 98 100 100 90 86 84 91 95 100 100 99 90 78 69 65 62 59 50 41 36 33 30 25 22 19 17 16 14 15 16 16 18 21 23 25 27 26
96 100 95 76 68 50 33 25 24 52 97 98 98 100 100 90 93 96 100 98 98 89 89 95 99 98 99 99 99 98 95 89 86 79 68 60 56 48 42 34 26 22 17 16 15 13 12 12 14 19 23 24 24 24
98 88 83 71 60 43 33 27 24 43 88 97 100 100 97 87 98 100 100 100 98 97 99 100 100 100 100 100 100 98 98 95 91 83 75 69 62 53 43 32 26 23 22 19 17 16 14 12 13 16 21 23 22 20
98 91 78 72 64 44 31 26 23 38 87 99 100 100 100 100 100 99 100 100 100 100 100 100 100 100 96 94 94 98 95 88 80 74 73 70 61 54 50 37 26 20 17 15 14 13 14 19 22 22 22 21 20 18
78 85 93 88 75 60 42 26 22 32 82 100 100 97 98 100 93 98 100 100 100 100 100 100 100 100 100 97 96 88 80 75 76 75 68 58 49 39 28 20 17 16 15 16 19 23 24 23 22 20 18 16 14 12
62 69 72 73 70 51 32 24 21 35 90 100 100 90 93 99 94 95 100 100 99 99 100 100 100 100 98 89 81 78 77 75 67 59 49 36 25 20 16 16 16 20 24 25 25 21 17 10 6 4 3 3 3 3
46 50 55 55 51 45 32 25 23 45 91 100 100 89 93 92 98 98 100 99 99 100 100 100 100 95 87 82 80 75 67 57 47 33 23 18 16 17 21 26 27 27 22 13 5 3 2 2 3 2 3 3 3 2
21 30 38 43 44 39 34 31 36 75 90 100 100 94 91 91 98 100 100 93 100 100 100 94 90 85 77 72 66 56 41 29 23 20 17 17 23 27 28 25 14 5 3 3 9 16 23 26 27 30 33 28 25 21
29 13 15 34 39 37 32 37 74 86 100 100 99 91 89 91 96 100 100 94 92 91 91 87 81 75 68 55 40 30 25 21 19 21 26 29 29 20 7 4 6 18 41 50 44 20 19 35 53 65 69 65 53 38

GFSWCAN_500_rhum_024.txt.gz
RH
3 8 12 12 12 13 12 23 38 38 61 90 100 99 98 100 97 79 78 75 69 74 65 61 61 50 34 21 17 22 24 25 35 41 39 37 46 42 47 42 48 52 38 39 39 45 55 93 96 96 93 85 71 53
8 20 27 26 27 21 41 56 51 52 47 88 100 100 100 100 100 91 83 85 83 89 95 82 70 62 66 50 33 25 17 24 24 27 32 33 30 30 34 35 37 39 45 41 44 39 45 92 93 94 87 72 60 47
13 45 62 60 66 42 55 89 100 92 98 95 100 100 99 100 100 100 96 90 91 78 83 89 96 77 55 64 58 47 31 17 25 26 31 37 34 32 32 30 35 37 36 44 40 47 55 87 93 84 86 63 55 50
18 76 93 70 84 73 85 92 96 100 100 100 100 100 100 100 100 99 100 94 77 61 56 64 59 66 67 58 52 58 55 32 23 28 33 36 35 36 38 38 38 38 38 38 49 66 60 65 91 89 97 63 54 47
34 100 77 72 92 95 100 100 96 96 100 100 100 100 100 100 99 100 95 71 62 58 47 34 24 18 17 27 54 60 77 50 26 23 30 35 33 34 35 38 46 39 41 44 54 49 50 67 80 95 93 68 58 60
9 96 84 68 94 100 100 100 100 100 100 100 100 100 100 100 100 97 74 58 50 27 17 21 12 10 9 14 9 63 93 61 36 27 33 34 31 32 33 38 44 51 54 49 57 55 54 49 48 76 86 79 67 66
10 16 75 59 79 96 100 100 100 100 100 100 100 100 100 100 91 72 57 39 27 42 25 8 4 4 4 3 6 17 44 70 100 99 54 45 41 34 32 51 81 67 73 69 74 77 58 47 36 34 59 81 78 67
14 28 81 100 88 97 100 100 100 100 100 100 100 100 100 100 82 63 36 38 34 34 33 34 14 7 7 9 28 97 50 71 60 66 66 56 47 50 57 100 96 99 88 76 70 65 59 52 42 30 32 47 64 69
51 75 100 100 100 100 100 99 100 100 100 100 100 100 100 91 72 38 33 32 41 37 60 94 91 97 99 91 81 99 100 97 100 87 76 62 60 64 98 99 90 74 66 62 60 57 54 56 51 42 45 51 57 62
42 99 93 100 100 100 100 100 98 100 100 100 100 100 96 92 75 41 31 29 32 47 54 65 92 100 100 100 100 100 100 100 74 76 64 65 74 87 87 75 64 64 60 59 51 46 56 58 61 57 64 68 72 86
15 25 75 90 100 100 99 100 100 91 100 100 100 93 90 97 70 49 59 54 38 42 54 68 94 100 82 76 100 100 98 97 90 84 72 69 82 88 70 69 67 63 72 75 56 52 67 72 76 73 74 78 84 88
29 16 15 51 87 100 100 100 100 100 89 100 100 100 92 95 80 62 72 57 61 55 55 73 80 94 83 83 91 90 87 77 70 92 95 75 100 96 92 94 91 89 93 90 82 69 71 78 86 86 88 83 80 80
30 20 20 10 32 92 100 90 94 98 100 100 100 100 100 95 72 52 49 59 58 87 82 68 79 86 90 98 97 93 96 90 99 99 82 79 94 85 88 96 96 96 97 100 100 85 75 84 90 92 90 91 96 98
33 22 14 7 7 8 17 72 100 100 100 98 99 100 100 100 100 76 57 51 51 74 93 82 78 81 85 100 99 100 99 94 94 98 100 97 92 94 100 100 100 97 100 100 100 100 93 93 100 100 100 100 94 97
34 40 23 8 7 8 10 39 49 51 84 98 97 100 100 100 100 100 92 51 56 71 81 95 96 100 99 99 92 100 100 100 100 97 94 82 90 99 100 100 100 100 100 100 100 100 100 100 100 100 100 96 92 84
30 46 51 52 29 10 7 10 14 15 76 91 98 99 97 96 100 100 100 98 64 73 90 100 100 100 100 84 84 90 99 100 98 100 99 94 79 71 74 85 96 100 100 100 100 100 100 100 100 100 100 99 95 84
35 39 69 68 62 47 9 8 8 16 68 100 94 96 100 100 100 100 100 100 99 68 77 93 100 100 92 85 91 99 100 99 99 93 90 94 91 85 74 64 66 73 72 72 72 80 95 94 87 86 96 100 100 100
50 31 82 81 49 59 18 10 9 9 11 60 89 100 100 100 100 99 95 100 100 100 75 59 74 70 67 72 99 95 94 84 80 78 80 83 82 80 79 77 69 64 63 60 58 56 56 57 64 52 45 44 65 96
67 42 47 80 29 56 45 21 21 12 10 18 58 100 100 100 100 100 95 100 100 100 97 60 51 61 64 75 78 76 71 78 84 88 88 86 84 81 76 74 76 75 70 66 59 49 43 43 43 41 36 38 39 41
89 65 58 50 62 39 79 73 50 24 14 17 26 71 100 100 96 100 100 100 100 96 98 72 61 84 82 82 82 75 73 72 71 80 86 85 80 76 75 74 69 63 57 52 50 45 39 36 35 36 36 37 36 35
96 92 68 58 50 80 63 70 66 36 26 17 25 72 86 100 100 100 100 100 92 94 100 56 38 63 78 79 72 70 72 75 76 73 69 69 68 65 63 59 54 49 44 41 39 34 32 30 29 29 29 33 41 44
100 99 89 73 58 72 48 59 49 33 34 29 26 58 98 100 100 100 98 92 99 100 100 95 69 59 35 29 29 31 33 31 37 43 47 43 41 40 35 33 27 25 23 23 24 24 23 25 27 29 30 29 26 23
91 89 78 62 58 79 57 55 60 48 41 38 37 44 89 100 100 95 90 100 100 99 94 97 92 75 72 66 45 44 40 29 28 33 35 39 41 40 36 31 30 28 24 20 23 25 24 22 21 23 25 27 28 29
80 63 83 98 86 96 83 62 68 54 39 34 35 31 73 96 100 94 100 100 100 94 95 98 99 100 100 100 100 90 70 62 57 50 48 49 48 45 41 32 26 24 24 23 23 23 22 17 17 17 15 18 19 19
92 97 100 100 83 95 98 72 69 58 41 29 28 30 61 81 93 100 100 98 96 96 100 100 100 98 95 96 100 100 100 97 76 66 61 58 54 51 49 46 40 38 39 36 29 27 25 20 18 18 14 13 12 12
70 94 100 85 70 82 82 81 75 46 32 26 25 28 45 77 90 100 100 98 98 99 100 100 96 92 91 92 91 95 100 100 100 100 92 91 88 89 86 79 69 65 62 56 52 49 41 28 21 19 19 20 20 17
99 92 90 84 77 83 100 100 80 52 37 30 25 30 75 80 86 100 100 100 100 100 98 96 95 94 94 91 93 99 100 100 100 100 100 97 93 91 90 91 82 75 72 68 63 55 48 46 47 47 40 28 21 19
99 100 94 85 78 89 95 95 80 52 36 29 25 34 66 94 99 99 100 100 100 99 96 93 94 96 98 98 100 100 100 100 100 100 100 100 98 94 87 79 68 62 62 63 60 54 45 36 26 20 17 14 13 12
92 94 90 75 77 90 92 95 72 43 33 31 27 24 51 98 98 93 100 100 100 100 99 100 100 100 99 97 100 100 100 100 100 100 100 98 82 64 60 64 65 61 56 48 36 27 20 16 14 13 14 18 23 24
67 68 74 64 62 71 87 92 76 55 46 36 25 21 37 89 100 92 100 100 100 96 94 100 100 100 100 100 100 99 100 100 99 92 82 76 72 67 61 55 50 41 29 21 17 15 15 18 24 26 26 24 22 19
40 46 45 60 59 54 69 92 88 78 63 37 29 24 29 75 91 92 99 100 100 99 97 97 100 100 100 100 100 100 99 96 88 82 77 68 60 52 44 35 25 18 15 15 19 24 26 24 19 12 7 4 3 2
30 29 37 44 58 59 62 80 80 74 63 44 35 25 29 68 78 90 100 98 96 99 100 100 100 100 100 100 100 99 88 80 73 67 57 46 39 31 22 16 15 17 24 26 19 10 6 8 10 15 23 24 20 18
66 51 30 24 36 51 51 57 66 59 54 42 31 24 48 72 75 99 100 92 87 95 100 100 100 100 100 99 91 82 75 62 47 40 35 27 20 16 16 23 26 16 11 15 34 46 56 69 65 50 35 19 15 18

GFSWCAN_500_rhum_027.txt.gz
RH
4 4 3 3 6 19 27 25 27 33 59 60 62 54 69 97 100 96 100 99 82 86 72 69 63 59 53 50 40 23 18 19 28 36 48 50 55 52 46 47 49 59 58 49 42 37 42 39 38 70 92 94 89 80
4 4 3 3 8 46 59 56 58 52 83 97 94 80 62 100 100 100 96 100 96 99 99 97 92 89 81 68 54 51 40 23 20 19 27 33 36 45 43 40 47 45 42 49 50 42 37 40 40 75 94 95 95 77
4 4 4 5 30 93 54 78 72 81 87 100 100 100 85 94 95 100 99 94 94 99 100 100 98 90 83 75 72 64 56 52 35 20 21 21 29 31 30 30 31 33 36 38 43 48 42 44 40 50 94 100 94 68
5 6 16 9 37 98 70 96 98 97 95 100 100 100 100 100 98 100 100 98 93 91 98 100 92 79 68 61 56 61 90 72 78 48 26 20 20 21 25 28 28 31 32 38 44 45 49 48 48 66 99 97 86 67
5 5 6 10 42 95 73 94 99 100 100 100 100 100 100 99 100 100 100 100 100 98 87 65 48 43 38 27 24 37 60 90 88 93 56 28 25 27 30 33 31 32 35 42 51 52 52 52 59 60 74 92 85 78
6 7 11 13 16 87 81 78 99 100 100 100 100 100 100 100 100 100 100 100 98 47 36 27 18 12 9 8 9 15 31 57 100 100 96 51 30 31 27 30 36 34 30 41 54 55 58 54 46 46 67 78 89 88
8 13 27 42 33 72 84 88 100 100 100 100 100 100 100 100 100 100 99 67 40 26 19 22 40 59 18 6 4 4 5 29 56 100 100 62 29 27 27 33 37 31 33 45 69 72 74 59 51 43 41 45 69 82
8 11 27 100 100 96 100 100 99 100 100 100 100 100 100 100 100 100 81 42 28 21 35 37 70 72 42 7 4 5 15 36 100 100 100 65 40 32 34 43 42 41 50 82 80 72 76 72 58 47 41 38 32 37
11 12 16 42 95 100 100 100 100 100 100 100 100 100 100 100 99 70 51 34 36 35 52 48 48 100 88 84 100 53 77 100 100 100 100 93 50 35 56 59 51 62 89 99 84 71 69 63 58 49 43 39 36 33
13 12 17 19 19 70 92 87 100 100 100 100 100 100 100 100 88 66 48 44 38 60 60 59 58 89 95 100 99 100 100 100 100 100 88 49 60 77 86 89 76 95 95 79 65 54 50 51 50 47 44 41 39 46
19 16 15 27 18 17 38 85 86 94 99 100 97 100 100 100 97 56 48 63 59 62 62 72 74 66 77 100 100 96 94 100 100 99 65 68 82 100 95 90 84 75 67 62 58 51 48 52 46 42 49 58 52 62
20 19 18 25 25 23 16 36 65 70 74 87 98 99 100 100 99 72 77 79 73 83 57 73 87 86 79 80 89 98 100 97 100 94 81 74 98 83 76 76 77 70 64 66 62 60 51 54 70 59 72 89 86 91
26 20 21 20 28 28 12 9 18 52 66 63 82 100 100 100 100 94 93 92 70 79 81 67 88 85 76 83 96 99 89 80 72 66 72 97 90 80 85 95 95 90 96 90 85 81 74 72 74 74 90 96 91 91
32 40 23 27 26 35 16 7 7 9 42 77 77 90 100 100 100 100 85 73 69 72 92 83 81 86 88 88 83 81 95 100 99 99 98 80 79 82 84 95 100 100 100 100 100 98 100 94 94 99 100 100 100 100
40 39 39 33 29 29 39 31 10 7 10 17 49 91 97 100 100 100 100 95 74 69 76 99 96 85 92 95 89 82 83 80 91 81 84 88 84 90 96 100 100 100 100 100 100 100 100 100 100 99 100 100 100 100
42 39 57 56 42 28 34 54 62 30 7 10 29 76 92 90 100 100 100 100 100 83 69 90 100 100 94 86 92 92 100 89 94 100 100 100 89 84 90 99 100 100 100 100 100 100 100 100 100 100 100 100 100 100
46 38 60 82 71 50 32 49 62 63 17 8 11 30 92 99 98 100 99 96 100 100 100 80 88 100 92 86 94 100 100 98 100 100 100 100 100 100 96 94 94 87 92 99 99 98 98 98 98 98 98 98 94 90
50 46 39 97 93 79 64 40 62 67 30 12 10 9 10 38 75 98 100 95 94 100 100 100 82 76 93 96 100 100 100 100 99 97 98 98 96 94 98 96 90 77 74 70 68 70 69 70 68 65 74 71 64 59
54 52 46 65 100 98 76 40 48 57 58 41 21 12 12 16 44 87 90 93 92 94 96 99 92 85 80 90 99 94 88 84 86 86 87 87 88 90 95 94 90 86 84 82 77 70 66 59 48 41 37 36 35 35
69 66 70 51 74 100 89 55 33 46 58 79 54 23 16 15 23 78 100 95 92 98 96 87 100 100 100 95 74 83 83 72 65 69 74 81 89 95 96 92 87 83 81 80 76 70 63 58 53 49 43 38 32 31
92 92 100 64 48 88 96 74 45 34 41 81 58 37 27 23 27 50 63 79 82 100 100 100 100 95 83 80 66 58 56 58 64 73 77 74 73 74 76 78 78 76 70 65 62 59 54 49 43 38 30 26 24 23
100 98 95 74 66 80 96 84 68 32 38 60 46 43 41 35 28 54 86 97 89 100 97 100 93 73 71 70 60 52 63 77 82 86 85 78 71 68 70 70 68 59 47 38 32 29 27 24 23 22 24 23 23 24
97 99 90 80 100 78 88 93 71 36 33 49 64 59 47 36 32 30 79 99 100 98 98 100 100 96 96 62 38 41 39 44 50 46 42 30 23 24 27 30 34 40 40 38 34 29 24 22 22 24 24 22 18 17
100 100 100 100 99 92 83 66 44 27 24 44 62 87 60 32 30 24 53 88 99 100 100 100 100 100 100 100 95 92 76 48 38 47 43 36 35 38 41 43 45 43 41 34 29 25 24 23 23 23 24 24 21 16
100 100 100 94 88 74 53 36 30 33 66 72 79 90 60 34 29 26 40 74 96 100 100 100 100 100 100 100 100 100 100 100 98 98 85 72 64 64 61 56 53 50 49 47 40 38 37 40 44 46 43 42 43 42
100 100 99 89 90 84 58 80 94 90 100 100 91 81 47 26 25 28 42 70 94 100 100 100 100 100 100 100 100 100 100 100 100 100 94 100 100 100 95 87 80 72 75 83 84 80 73 69 67 66 63 58 55 54
93 84 79 86 96 73 75 100 100 96 100 100 96 82 38 29 25 36 63 87 96 100 100 100 100 100 100 100 100 100 100 100 100 100 99 100 100 99 99 100 100 96 93 92 91 89 86 82 74 65 60 57 54 55
73 68 83 92 93 96 98 100 100 100 100 100 99 86 44 33 28 34 44 93 98 100 100 100 100 100 100 100 100 100 100 100 100 100 100 100 94 89 97 100 100 100 100 100 100 94 80 67 58 52 51 53 51 45
88 98 100 96 100 100 98 100 98 100 100 100 98 85 50 33 28 26 27 54 95 98 100 100 100 100 100 100 100 100 100 100 100 100 100 100 100 100 99 100 100 100 99 89 75 64 58 55 52 48 42 34 27 22
98 98 97 94 97 93 100 100 89 91 98 97 92 77 48 35 30 23 24 46 76 82 91 100 100 100 100 98 97 98 98 100 100 100 100 100 100 99 99 98 88 75 66 62 59 54 48 43 38 32 26 20 16 16
64 76 86 88 84 67 62 89 87 65 79 96 92 71 43 39 30 28 25 42 85 82 84 86 90 100 100 100 99 99 100 100 100 100 100 100 100 96 82 71 67 61 53 45 39 33 26 21 18 17 17 19 19 18
84 96 92 66 49 48 64 54 56 46 44 86 95 73 55 47 33 34 30 39 78 76 70 79 93 91 93 100 100 100 100 100 100 100 98 90 80 72 61 49 46 41 31 25 19 17 18 18 17 16 15 21 29 26
96 92 82 59 43 34 33 45 56 44 36 54 86 83 68 48 42 35 30 49 86 76 69 76 88 97 99 99 100 100 100 100 96 86 75 58 46 43 38 27 20 17 17 19 18 22 34 50 74 93 92 72 37 24

GFSWCAN_500_rhum_030.txt.gz
RH
7 7 6 6 4 3 3 6 31 28 31 43 81 91 92 71 76 100 100 100 100 100 81 68 65 62 58 53 48 33 24 19 31 51 63 63 59 56 61 68 69 62 55 51 46 43 42 38 36 35 35 56 87 94
9 7 6 5 4 3 3 6 26 41 57 53 82 91 93 100 86 68 100 100 100 100 98 90 93 88 83 74 66 61 62 51 30 21 22 37 55 54 52 50 48 46 48 52 56 54 48 42 38 37 39 51 83 90
9 6 4 3 3 3 4 6 49 66 93 87 92 91 96 100 100 99 97 97 100 100 100 100 100 100 98 99 97 96 94 89 77 62 31 20 21 39 42 43 49 44 39 40 42 42 45 48 42 36 38 40 77 93
10 7 4 4 4 4 5 20 60 78 92 95 93 93 99 100 100 100 100 99 100 100 100 99 97 100 100 100 98 99 100 93 88 87 76 48 24 22 24 32 38 38 36 32 33 34 36 41 43 37 39 38 49 85
12 10 6 5 6 7 6 17 73 75 88 100 96 97 100 96 100 100 100 100 100 100 100 99 100 100 95 93 87 57 48 51 65 80 86 75 58 29 22 21 24 32 31 27 29 29 36 40 40 46 48 40 62 83
14 13 11 7 7 12 30 40 54 68 97 99 96 99 100 100 100 100 100 100 100 100 100 100 77 49 22 18 12 10 11 11 15 36 97 100 99 72 30 22 29 35 35 34 33 35 41 41 42 44 50 63 61 69
17 16 15 9 7 15 74 86 100 100 100 99 98 99 100 100 100 100 100 100 100 100 64 25 23 24 27 29 24 12 7 5 12 30 46 100 100 100 64 31 35 32 34 32 30 30 54 54 52 44 43 45 49 62
21 18 17 13 8 11 32 76 96 100 100 100 99 98 100 100 100 100 100 100 83 30 36 28 35 33 32 50 42 12 4 4 9 52 54 100 100 98 84 40 33 30 33 30 28 33 53 60 64 58 53 46 42 40
24 20 20 17 11 9 16 28 68 83 100 100 99 98 100 100 100 100 99 74 52 33 46 58 50 28 55 58 62 84 25 10 39 98 94 100 99 96 83 42 33 31 33 38 37 47 84 86 68 60 56 51 47 42
30 25 23 22 14 11 9 16 20 41 86 100 99 100 100 100 100 100 99 68 50 38 66 63 60 52 53 82 98 100 100 92 100 100 98 100 100 100 97 65 39 40 43 58 69 79 81 72 63 60 57 51 46 38
37 31 24 28 22 14 12 12 18 19 30 72 84 98 100 100 100 100 94 91 76 64 70 72 98 54 61 74 95 100 100 100 100 100 100 100 100 99 90 74 70 69 71 80 86 77 63 55 51 52 49 44 41 39
51 44 28 31 28 22 15 14 18 20 14 20 37 59 94 100 99 100 93 88 94 92 83 99 100 93 68 76 93 100 100 98 100 100 100 100 98 90 87 82 75 75 75 71 67 62 56 50 41 39 44 43 40 43
67 48 35 36 37 28 20 16 17 20 9 8 10 20 56 95 100 100 100 100 100 84 88 100 100 97 80 70 81 89 100 100 98 94 89 97 95 81 69 75 76 74 77 85 86 80 68 57 40 49 55 47 57 79
70 54 42 48 43 35 26 21 18 25 25 14 8 14 59 77 100 100 100 100 100 100 90 97 100 100 100 88 86 85 85 90 94 95 74 67 72 83 81 70 75 82 88 92 90 90 95 97 82 96 92 90 100 100
69 66 58 63 51 44 31 26 23 22 25 38 32 11 9 57 100 100 100 100 100 100 98 83 99 100 100 100 92 88 92 92 100 94 92 97 97 92 89 90 95 100 100 100 100 97 100 100 100 100 100 100 100 100
71 68 76 68 59 56 40 33 29 29 26 29 44 47 10 10 42 94 100 100 100 100 100 95 76 94 100 100 94 92 98 99 96 98 100 98 99 96 94 99 100 100 100 100 100 100 100 100 100 100 100 100 100 100
82 77 83 81 67 64 52 40 33 34 46 34 49 54 38 8 10 20 70 95 100 100 100 100 96 73 80 100 100 100 100 100 100 100 97 100 100 100 100 98 97 100 100 100 100 100 100 100 100 100 100 100 100 100
99 100 100 97 76 70 62 55 42 30 50 51 36 55 60 27 14 9 11 26 76 100 100 100 99 97 88 77 100 100 100 100 100 100 96 98 100 100 100 100 100 100 98 95 98 98 96 96 96 97 93 84 82 72
100 100 100 89 88 84 78 74 53 34 42 63 36 35 58 64 50 20 13 11 47 85 96 96 92 99 100 100 96 94 98 98 95 98 100 100 100 100 100 99 97 98 100 100 94 86 81 79 76 73 64 51 43 39
100 99 98 99 94 99 94 83 74 47 36 46 47 38 37 58 67 49 23 18 39 92 100 99 100 91 91 88 95 88 88 94 95 95 92 92 90 86 85 89 94 96 92 88 85 83 81 77 70 63 57 52 49 49
91 93 100 100 100 100 93 77 70 64 52 37 61 46 48 70 75 42 36 30 25 58 75 86 99 93 90 82 87 84 79 82 86 89 87 78 71 66 65 69 73 82 93 96 95 88 80 71 63 56 51 50 48 39
100 100 100 100 100 100 95 85 74 65 52 38 52 70 43 58 71 52 42 39 35 36 67 91 100 99 96 95 81 87 100 100 97 88 81 74 64 54 52 62 74 76 74 70 68 67 61 53 36 30 27 25 25 23
100 100 100 100 96 95 85 70 73 80 59 57 68 79 43 31 56 70 55 35 32 28 72 96 100 100 96 92 90 86 98 100 100 98 80 62 53 52 60 67 68 60 45 44 44 40 38 37 33 30 27 23 22 23
36 30 21 41 57 77 85 78 95 82 90 100 100 77 45 28 34 58 61 40 31 28 51 91 100 100 100 100 100 97 93 62 49 59 62 60 58 49 39 28 30 37 39 43 45 44 42 38 34 28 24 21 20 21
43 53 48 41 49 72 82 78 78 88 100 100 78 50 38 32 31 46 61 40 30 28 52 93 100 100 100 100 100 100 100 84 71 46 33 32 35 45 53 58 57 53 53 51 50 50 50 48 44 40 38 38 38 41
100 96 94 72 80 90 93 96 100 100 100 79 51 41 46 52 46 55 56 29 27 29 60 91 100 100 100 100 100 100 100 100 100 100 98 98 100 99 94 95 92 85 81 79 74 72 70 68 70 78 84 84 82 79
93 94 85 86 82 77 77 94 100 100 100 100 99 100 100 100 84 79 50 28 27 42 78 96 100 100 100 100 100 100 100 100 100 100 100 100 100 100 100 100 100 100 99 98 100 100 100 99 98 99 99 94 89 86
83 82 80 84 89 97 100 100 97 100 100 98 99 100 99 98 100 76 44 30 29 46 87 100 100 100 100 100 100 100 100 100 100 100 100 98 97 100 100 100 100 100 100 97 96 96 95 97 99 98 93 89 85 74
78 91 100 100 96 89 84 92 96 98 100 99 92 94 96 94 93 74 44 29 26 28 46 87 100 100 100 100 100 100 100 100 100 100 100 97 91 91 94 93 91 91 92 96 97 97 95 97 94 90 88 78 63 51
98 100 100 100 100 100 100 100 100 100 96 86 86 85 91 94 100 83 50 28 24 23 31 57 84 93 100 100 100 100 99 100 98 96 99 100 99 96 92 92 94 97 100 100 100 98 96 90 76 63 54 48 43 39
98 100 100 98 84 96 99 92 90 93 95 97 98 85 86 97 96 80 44 29 30 30 29 47 62 87 97 100 100 93 93 88 90 89 90 90 96 99 100 98 95 93 92 87 76 66 56 49 43 38 32 27 23 20
100 94 85 82 77 79 77 74 75 64 51 57 68 61 65 74 80 78 45 37 35 34 29 34 68 93 91 84 83 87 88 91 91 86 87 89 90 91 93 92 84 71 58 48 41 31 24 20 18 17 17 18 18 24
71 81 82 75 55 42 41 40 40 41 50 54 38 51 54 63 66 62 55 51 44 37 32 33 58 68 71 76 81 81 81 83 83 86 90 89 87 79 64 49 39 29 24 21 18 17 20 20 19 25 35 47 48 42

GFSWCAN_500_rhum_036.txt.gz
RH
17 20 25 20 16 16 12 10 6 4 2 2 3 12 32 77 69 60 62 83 81 73 100 100 94 47 33 29 29 26 25 22 24 27 35 43 60 74 79 75 72 56 42 40 36 34 43 47 44 41 39 38 35 41
19 21 26 16 21 22 17 13 8 6 2 2 4 19 65 65 65 72 70 71 88 79 77 100 100 100 54 38 39 33 31 27 26 26 24 22 30 54 62 67 67 64 62 56 49 39 42 40 40 44 40 39 38 37
22 28 26 19 24 26 22 12 10 6 3 3 13 36 69 68 66 84 82 82 88 93 71 85 99 98 100 89 48 51 52 59 57 58 54 41 31 24 29 50 56 58 58 58 57 55 54 53 49 48 45 44 40 38
25 33 29 22 29 26 18 13 8 5 3 5 25 68 73 69 80 85 88 93 92 99 78 70 92 100 100 100 100 99 99 99 100 97 86 80 75 75 55 31 22 31 48 52 53 49 44 44 45 46 46 45 45 46
27 40 31 26 35 30 27 16 11 8 5 4 15 71 73 62 66 88 90 97 100 100 94 87 94 100 100 100 100 100 100 100 100 100 92 82 83 89 87 85 58 36 23 29 45 48 48 46 41 38 36 34 37 44
44 48 38 35 34 31 17 13 13 12 6 5 6 41 76 78 67 85 93 93 99 100 98 100 100 100 100 100 100 100 95 71 54 46 52 78 86 85 76 64 81 100 77 30 24 26 33 36 40 36 32 30 32 36
56 55 50 51 45 32 16 10 12 12 8 7 8 9 39 81 72 83 92 100 100 100 100 100 100 100 97 92 73 43 28 24 29 21 20 13 9 10 39 48 72 95 100 92 41 25 21 22 22 19 23 24 24 32
71 71 67 65 46 41 25 9 9 11 11 8 11 10 20 73 84 89 93 100 100 100 100 100 96 73 47 51 38 43 40 36 32 39 30 24 10 7 6 12 47 82 97 100 85 31 25 23 21 24 27 33 30 35
84 83 74 60 48 40 28 14 9 9 10 9 9 12 12 28 65 96 99 100 100 100 98 94 76 64 50 51 48 39 42 34 41 50 36 12 4 3 4 31 87 100 97 98 99 38 28 27 26 26 26 24 29 39
100 92 74 57 52 48 38 32 23 18 11 11 12 9 13 13 23 75 100 100 100 100 98 93 100 86 69 56 52 53 47 36 48 64 43 87 100 59 37 84 76 100 100 100 93 38 33 30 29 24 22 25 25 32
100 94 76 63 59 55 46 37 33 30 21 17 14 12 10 12 13 21 60 99 100 100 100 100 93 100 100 71 70 76 64 56 60 90 75 81 100 100 100 100 100 100 100 100 99 58 43 37 29 26 28 32 47 56
99 100 89 76 69 59 52 44 39 34 28 26 21 17 15 12 15 13 18 71 100 100 100 100 100 100 100 89 74 75 91 84 89 96 99 100 100 100 100 100 100 100 100 100 97 64 49 41 37 44 63 72 65 58
96 100 98 92 83 72 71 63 52 44 35 31 26 23 23 21 22 21 11 15 25 85 100 100 100 100 100 100 93 92 93 100 100 100 100 98 99 100 100 100 98 99 100 100 100 92 74 68 75 74 69 62 52 46
100 100 98 96 100 92 89 79 65 54 44 38 31 32 40 38 32 27 17 12 14 14 27 86 100 100 100 100 100 100 92 100 100 100 100 92 87 90 99 100 98 100 100 100 100 93 83 71 72 78 67 54 48 40
100 100 97 96 97 100 99 91 79 70 61 49 48 44 49 44 36 30 21 17 12 18 20 11 57 98 100 100 99 100 96 97 98 100 100 100 100 96 96 94 92 94 92 91 96 94 91 95 97 90 81 78 70 72
100 100 100 98 92 98 99 93 86 73 70 72 71 74 60 48 42 34 25 19 14 15 26 24 9 24 86 100 100 100 100 100 100 100 100 100 100 100 100 100 99 99 99 98 98 100 100 100 100 97 93 90 98 100
100 100 100 100 94 85 93 99 91 81 78 84 87 77 65 51 47 40 32 25 19 18 23 33 25 9 16 60 100 100 100 100 98 91 88 98 100 100 100 98 100 100 100 100 100 100 100 100 100 100 100 100 100 100
100 100 98 88 88 86 90 95 95 84 80 76 84 80 66 59 56 51 42 35 29 22 24 32 40 34 15 14 50 99 97 97 91 97 89 88 98 100 100 100 100 100 100 100 96 100 100 100 100 100 100 100 100 100
100 100 99 92 98 90 96 81 90 92 85 82 87 91 80 74 64 64 64 52 36 34 26 32 38 54 37 25 22 59 91 99 98 99 98 99 97 100 100 100 100 100 100 100 100 100 100 100 100 100 100 100 99 98
100 100 96 100 99 90 98 87 81 83 79 82 91 92 81 78 78 76 73 56 46 40 38 40 48 54 48 36 27 32 72 99 98 100 100 100 97 100 100 100 100 100 100 100 100 100 99 96 92 91 87 82 78 78
100 100 100 100 92 92 91 79 73 75 74 76 78 73 67 72 87 84 75 66 58 49 65 60 52 54 52 40 36 38 59 60 90 85 100 100 98 100 99 100 100 100 100 100 100 100 96 87 79 76 75 75 76 77
100 100 100 100 100 95 84 79 84 78 82 74 67 69 67 73 78 84 77 63 42 50 67 71 64 59 60 57 35 35 61 59 71 91 75 77 94 93 93 91 99 100 100 100 100 99 87 78 64 53 53 55 62 71
100 100 100 100 98 89 82 76 80 87 91 76 84 89 93 89 58 30 22 24 31 89 97 69 76 65 58 65 48 29 34 76 75 62 76 74 63 74 95 90 80 80 91 100 100 100 93 77 59 58 55 51 58 65
100 99 95 90 82 81 76 79 89 98 100 99 100 78 42 22 17 18 18 30 94 100 91 84 84 48 45 58 51 30 32 68 98 86 72 80 81 81 94 100 99 94 90 86 86 94 98 89 77 67 54 37 28 29
100 100 93 82 72 67 77 89 92 82 66 49 36 26 20 23 24 24 27 63 73 74 97 90 43 35 40 56 43 34 65 96 100 100 95 97 100 100 100 100 100 99 94 94 92 99 100 92 80 56 36 40 46 47
87 86 81 70 61 51 38 30 30 36 42 39 30 31 52 62 61 55 59 75 94 93 98 58 37 33 52 56 39 73 97 100 100 100 100 100 100 100 100 100 90 74 77 85 96 96 79 51 36 34 45 49 52 55
42 36 29 25 26 27 30 38 63 73 68 66 63 81 80 69 60 59 63 64 85 71 50 43 36 41 77 61 46 100 100 100 100 100 100 100 100 100 100 100 97 87 55 44 47 54 59 63 68 75 85 91 91 91
21 23 27 32 37 54 84 100 99 99 100 100 100 91 78 67 68 74 76 75 57 50 42 37 35 58 72 48 57 100 100 100 100 100 100 100 100 100 100 100 100 100 100 100 97 90 93 98 100 100 100 99 97 93
50 54 72 89 100 100 100 100 100 100 92 79 70 64 61 62 66 72 83 90 90 85 89 100 90 74 65 37 51 96 100 100 100 100 100 100 100 100 99 100 100 100 100 100 100 100 100 100 99 99 98 94 89 83
68 78 89 96 100 100 100 100 98 88 79 68 58 52 53 61 76 70 62 68 91 100 95 98 92 74 38 30 31 47 95 100 100 100 100 100 100 100 100 100 100 100 100 100 100 100 100 97 90 82 75 72 68 66
98 100 100 100 88 98 100 94 81 87 94 92 82 70 67 71 91 100 99 100 100 97 97 97 81 46 38 37 34 41 80 81 89 100 100 100 100 100 100 100 100 100 100 100 95 86 78 75 72 68 67 68 69 70
84 80 80 75 70 67 65 65 68 77 78 76 75 68 54 46 46 78 97 100 100 99 92 92 84 79 50 40 40 37 39 71 83 86 82 85 89 90 88 84 84 83 80 77 74 71 71 73 74 74 74 72 64 54
60 52 59 54 48 41 35 42 36 34 35 39 42 42 37 32 24 32 52 96 99 92 86 92 92 82 44 38 40 40 54 64 71 79 71 61 59 65 73 76 76 74 72 71 73 74 71 60 51 44 37 31 26 22

GFSWCAN_500_rhum_039.txt.gz
RH
88 84 86 50 31 34 36 35 31 18 12 11 6 3 2 4 18 38 47 60 64 58 83 74 99 98 57 46 36 35 38 34 35 34 31 31 40 63 76 82 77 60 46 41 36 39 49 58 57 58 46 42 44 40
77 96 56 35 34 36 32 31 26 18 13 9 6 3 3 6 21 47 57 58 62 76 80 93 81 100 100 87 62 34 30 31 33 29 26 24 23 33 42 63 71 73 66 65 54 43 43 43 49 53 50 44 39 39
94 82 66 47 36 33 32 29 18 15 13 9 6 3 3 6 27 45 53 70 81 82 92 99 99 86 100 100 100 67 40 42 38 37 42 45 44 34 27 25 41 59 64 63 61 60 59 50 52 44 41 40 42 40
97 76 63 39 38 37 34 25 17 16 14 11 6 3 3 7 28 49 52 74 87 94 100 100 100 93 98 100 100 100 96 75 57 84 83 95 100 90 82 69 40 26 33 50 55 56 55 54 53 52 52 50 49 48
86 73 51 49 44 42 36 28 21 15 14 11 7 4 3 4 38 51 50 80 90 100 100 100 99 100 92 100 100 100 100 100 100 100 98 100 100 94 87 79 64 82 60 36 28 42 50 52 47 42 41 41 39 39
69 52 57 54 53 46 36 29 20 14 16 10 7 4 4 4 48 64 71 75 89 100 100 100 100 100 100 100 100 100 100 100 100 99 61 40 38 45 53 57 59 72 95 85 57 25 24 41 49 48 47 45 42 38
61 76 66 65 64 48 36 25 20 20 21 14 13 9 5 6 14 62 73 82 99 100 100 100 100 100 100 100 100 100 99 95 62 47 47 39 28 17 13 15 15 25 56 72 82 57 42 25 24 31 34 33 34 33
89 87 76 76 70 50 38 28 26 29 23 11 12 8 10 8 6 37 82 84 96 100 100 100 100 100 99 99 100 97 88 60 51 37 33 29 25 42 22 10 6 6 10 38 83 100 92 63 26 20 18 18 17 21
88 89 89 88 74 59 42 34 27 24 20 13 14 11 11 11 10 10 49 86 93 100 99 99 97 100 100 95 85 89 69 71 50 48 31 22 54 42 64 27 4 10 48 43 68 100 100 99 56 27 19 18 21 23
95 98 100 92 83 68 51 41 28 19 18 18 16 10 8 8 12 11 13 20 89 100 100 98 96 89 93 98 89 75 81 67 49 48 39 54 54 45 100 52 55 96 100 100 100 100 100 100 60 28 23 24 24 23
97 99 99 100 89 84 63 50 35 20 27 30 22 11 8 10 12 13 11 12 14 58 98 99 98 97 97 96 94 77 64 55 62 62 46 44 59 81 96 76 88 98 99 98 100 100 100 100 57 35 32 29 26 22
96 100 100 100 95 94 80 63 49 34 37 40 32 22 17 14 16 16 17 14 12 15 15 46 80 94 97 100 100 94 89 62 69 82 78 74 92 100 100 100 91 85 64 88 100 99 100 100 70 52 45 36 30 25
94 97 99 100 99 96 96 76 61 57 50 48 45 31 24 21 30 27 22 20 15 13 17 15 16 44 84 100 100 100 95 89 79 97 98 94 100 100 100 100 100 99 100 100 94 100 100 100 98 69 49 43 42 38
96 96 98 100 100 100 100 88 73 72 61 58 60 48 38 32 32 34 30 28 20 19 21 21 15 17 26 65 99 100 98 100 95 99 100 100 100 100 99 100 100 100 100 100 100 100 99 100 100 96 86 73 63 50
96 74 89 100 100 100 100 96 87 86 78 75 76 62 54 44 43 43 39 37 31 32 30 26 24 15 18 16 54 99 100 100 100 98 88 100 99 99 100 96 96 94 85 90 97 98 98 97 94 90 86 79 67 57
94 54 63 96 100 100 100 100 97 93 86 88 86 76 69 64 60 55 50 45 44 44 42 38 31 21 17 19 17 63 100 100 100 99 99 93 98 97 100 100 100 100 100 100 98 97 100 97 95 95 91 89 85 77
83 51 55 85 94 100 100 100 100 96 95 90 86 82 80 80 76 69 65 56 52 53 49 51 35 28 24 19 19 22 88 100 100 100 100 87 86 95 99 93 100 100 100 100 100 100 100 100 100 99 98 96 95 100
77 68 85 88 92 97 100 100 100 94 90 91 97 94 93 92 85 79 73 68 55 52 55 59 46 40 38 27 22 33 28 68 100 100 99 100 100 100 99 100 95 100 100 100 100 100 100 98 100 100 100 100 100 100
66 72 80 84 87 90 86 83 100 90 80 85 92 89 87 94 90 88 86 73 65 60 58 65 68 67 61 44 36 29 45 33 24 89 100 100 100 100 100 100 100 100 100 100 100 100 99 100 100 100 100 100 100 100
67 66 83 95 94 93 78 75 80 82 78 81 86 85 82 82 83 84 83 73 68 66 68 78 80 89 90 68 52 43 46 47 30 20 71 100 100 100 100 100 100 99 100 100 100 100 100 100 100 100 100 100 100 95
90 96 100 100 96 88 77 72 71 78 80 76 86 96 93 92 90 83 73 68 66 73 87 94 88 74 45 48 61 55 49 51 39 32 40 69 96 100 100 100 100 100 100 100 100 100 100 100 100 100 100 100 98 91
100 100 100 100 89 78 72 60 73 81 83 86 93 93 83 76 73 70 66 63 65 75 69 38 20 16 19 40 50 67 58 59 61 39 33 39 62 97 99 100 100 100 100 100 100 100 100 100 99 100 99 91 83 73
100 100 100 89 79 68 61 69 83 94 99 87 84 82 76 71 66 64 52 46 48 30 19 17 20 52 83 96 94 100 75 71 69 52 30 30 52 57 90 87 81 97 98 99 97 99 97 94 93 97 100 95 87 72
100 100 89 88 76 79 74 84 94 97 92 94 85 72 64 61 56 48 43 35 25 20 18 31 93 93 79 92 100 100 71 69 65 42 32 39 61 81 60 75 74 72 78 83 86 92 94 95 95 95 94 95 94 92
97 93 87 82 76 84 100 100 99 91 82 75 67 61 52 47 39 27 19 24 36 27 44 66 69 60 86 100 90 78 77 70 50 46 80 92 98 100 93 77 71 74 80 88 91 97 99 99 93 92 92 92 91 92
80 84 86 92 100 99 90 82 72 61 51 42 33 28 25 24 23 23 38 61 61 60 57 67 99 100 100 98 84 84 80 58 44 74 100 100 100 100 100 100 100 100 98 100 99 100 100 96 89 86 88 92 98 100
87 94 92 82 63 49 41 34 28 25 24 23 23 28 48 50 40 54 78 85 82 74 81 78 81 90 94 87 65 51 57 48 51 97 100 100 100 100 100 100 100 99 100 100 100 91 78 65 65 80 86 72 58 51
69 60 43 32 29 31 31 29 28 31 41 55 73 80 68 62 68 75 72 64 62 61 74 94 90 70 63 51 39 38 58 51 55 100 100 100 100 100 100 100 100 99 98 100 100 99 93 71 57 54 58 71 85 94
31 28 31 35 46 62 52 52 67 98 100 100 90 60 58 59 64 75 75 70 72 64 75 92 99 89 53 43 40 37 57 44 54 100 100 100 100 98 96 100 100 100 100 100 100 100 100 100 100 100 100 100 100 99
17 20 32 53 76 78 85 100 95 90 77 58 55 58 52 63 85 77 77 97 100 98 100 90 93 92 99 88 67 74 45 31 40 85 100 100 100 100 98 100 100 100 100 100 100 100 100 100 100 100 100 100 100 100
41 69 97 98 92 85 84 75 65 69 72 76 79 70 66 61 52 74 69 82 99 100 97 87 85 100 100 100 83 52 44 37 33 44 82 100 100 100 100 100 100 100 100 100 100 100 100 100 100 100 100 98 88 77
99 100 96 75 69 75 80 77 63 53 47 44 40 36 34 31 34 39 40 47 45 65 87 64 71 100 100 100 77 49 46 48 49 43 46 63 78 92 91 94 99 100 98 99 98 97 94 88 82 75 69 66 64 63
77 73 67 58 57 56 55 56 43 39 32 29 28 35 50 47 34 38 40 39 36 30 36 58 55 89 100 100 86 65 42 43 46 50 68 58 54 70 74 70 63 53 52 58 65 69 72 75 74 72 73 70 63 57

GFSWCAN_500_rhum_042.txt.gz
RH
95 95 98 95 87 85 72 65 62 51 41 37 29 19 12 9 6 3 3 10 33 55 66 54 70 77 100 98 64 63 62 51 49 45 40 39 36 45 74 93 86 65 49 41 40 48 49 62 86 92 84 61 43 40
95 97 97 88 88 80 66 61 46 44 40 40 32 24 16 12 6 3 3 14 35 60 72 78 85 89 82 100 87 60 56 46 38 36 33 29 26 25 28 41 67 81 77 71 56 44 49 50 60 70 79 56 49 53
96 97 96 96 91 71 60 55 36 27 24 26 29 23 18 12 7 2 4 25 43 64 77 83 95 100 100 97 100 89 70 52 44 39 42 37 33 35 35 30 27 32 55 68 69 66 59 52 49 50 55 67 60 46
98 96 93 99 80 74 66 43 26 21 17 19 18 12 10 10 6 3 5 27 54 66 73 76 90 100 100 100 96 100 100 96 83 54 53 42 56 65 80 79 77 79 50 34 47 64 62 59 58 54 51 48 46 45
98 92 95 95 93 76 59 40 25 20 17 9 8 7 7 6 5 3 12 26 52 70 74 84 95 98 100 100 97 100 100 100 100 99 97 100 98 89 94 88 76 90 95 92 75 33 46 57 56 54 53 52 49 49
96 96 97 94 88 82 55 38 25 23 14 8 8 10 6 4 3 3 13 40 55 72 76 82 89 100 100 99 100 97 100 100 100 100 100 100 82 60 48 36 26 23 29 63 74 80 46 29 46 54 50 45 43 43
98 98 94 95 95 80 63 41 27 21 11 9 8 9 7 6 4 4 8 31 48 80 88 92 91 100 100 100 100 100 100 100 100 100 89 74 47 37 23 17 15 14 15 11 22 49 71 78 45 27 49 51 49 47
100 98 89 96 93 91 71 45 28 18 11 10 8 9 10 10 8 6 5 12 56 65 72 80 91 91 95 99 98 100 100 100 100 97 71 56 43 29 20 18 16 16 14 5 5 8 26 88 97 67 28 28 41 42
96 94 94 97 92 93 80 51 26 21 14 13 11 10 12 12 11 9 10 10 14 31 54 67 74 92 100 100 98 92 96 98 88 72 67 54 46 37 38 33 27 29 12 6 12 9 10 59 100 100 88 35 21 21
84 96 98 92 93 93 79 60 38 23 18 19 17 13 13 15 16 12 11 12 11 11 12 28 58 75 80 97 99 94 94 93 88 80 71 56 62 62 47 58 34 68 78 99 89 100 39 86 100 100 100 81 32 22
95 100 92 89 88 88 83 70 54 32 22 28 21 20 20 19 20 13 11 9 11 12 11 12 13 22 58 81 88 98 99 96 83 88 91 77 80 72 46 68 64 78 94 67 100 100 100 100 100 100 100 95 53 27
100 97 90 91 82 89 91 75 63 55 31 36 32 31 29 29 25 24 16 15 12 12 13 13 13 14 13 32 73 85 96 97 91 86 92 91 74 87 84 66 65 82 86 90 96 74 81 86 99 100 100 100 72 44
96 89 94 87 83 90 95 96 77 70 60 48 44 44 44 44 40 39 32 22 20 18 14 12 14 16 18 13 28 68 93 100 98 100 100 85 76 92 93 83 74 81 97 55 52 70 83 64 92 100 100 100 93 64
95 96 93 89 84 90 95 99 100 83 68 61 58 53 57 50 48 48 50 39 27 26 24 20 18 19 20 22 13 25 68 96 100 100 98 100 100 87 97 88 96 92 94 100 100 94 98 100 96 90 100 100 100 83
100 93 97 90 89 90 94 92 100 100 95 79 68 73 68 59 55 57 58 54 46 34 31 28 28 26 25 27 24 15 26 100 100 100 100 100 100 96 94 92 88 86 96 100 100 100 100 100 100 100 100 100 100 98
100 97 96 95 90 92 92 91 86 84 90 84 82 78 75 70 61 63 69 66 58 53 40 38 40 41 36 38 41 26 16 17 61 100 100 100 100 100 100 100 99 90 93 100 100 100 100 100 100 100 100 100 100 88
100 100 99 96 88 90 84 83 100 100 92 86 97 98 89 77 72 74 73 72 63 60 53 48 50 54 61 50 51 44 31 22 16 49 98 100 100 99 100 100 100 100 94 95 100 100 100 100 99 100 95 99 98 94
100 100 96 92 92 94 88 90 93 89 91 86 82 75 90 88 81 81 73 69 66 64 63 61 59 60 70 65 61 53 54 51 37 26 22 56 91 100 100 100 100 100 100 100 100 100 97 100 100 98 100 83 83 86
100 98 95 90 93 91 81 83 88 84 85 81 69 65 80 88 86 83 76 74 71 71 72 74 78 78 71 68 64 66 78 72 48 29 35 32 43 70 100 98 100 100 100 100 100 100 100 100 96 100 88 100 100 97
100 99 98 91 90 88 81 74 80 82 81 75 73 85 90 96 92 86 84 78 72 75 85 95 86 80 75 69 70 68 56 33 18 17 36 45 48 38 48 95 100 98 100 100 100 100 100 100 100 100 99 100 100 100
100 100 95 93 92 82 78 76 76 76 69 66 74 84 82 88 94 97 93 84 75 81 82 81 76 68 64 58 48 32 17 14 16 21 36 44 57 50 37 51 100 100 100 100 100 100 98 100 100 100 95 94 98 100
100 93 95 94 88 89 81 72 81 75 75 75 80 89 86 88 91 87 77 74 72 81 77 64 56 48 36 26 22 20 37 76 64 58 59 52 54 56 42 40 78 100 100 100 100 100 100 100 100 100 100 100 100 100
99 98 96 91 92 81 62 67 73 85 94 83 86 84 82 86 80 77 72 66 67 58 48 32 20 16 19 20 26 45 99 100 100 100 100 89 69 60 39 33 44 78 100 100 99 98 100 100 100 100 100 99 99 99
100 92 92 86 75 72 68 74 81 92 82 87 89 88 80 76 70 66 56 44 31 21 16 15 17 21 24 30 48 71 83 88 100 100 99 83 80 61 34 30 32 50 60 94 93 96 99 99 94 96 93 91 93 90
98 98 88 79 74 83 96 100 97 90 94 90 83 73 72 67 56 45 31 21 17 17 19 26 40 44 54 79 81 100 100 94 91 92 95 73 64 49 51 52 73 73 67 52 67 79 74 83 94 95 95 96 92 89
92 88 81 76 93 100 100 99 96 94 89 86 77 65 52 40 29 20 20 19 23 44 56 56 51 54 63 98 100 100 100 100 88 80 90 73 58 64 100 98 98 96 100 98 72 67 68 64 63 70 78 84 86 85
90 96 97 100 100 100 94 93 90 83 75 63 44 32 23 18 18 24 40 49 57 66 72 68 62 64 76 100 100 92 83 88 74 66 81 69 75 73 95 100 100 97 100 100 100 95 88 88 93 92 92 90 84 85
94 100 100 100 95 98 87 78 59 45 33 24 21 21 18 27 28 45 55 54 49 51 52 54 61 68 67 66 70 77 79 72 46 51 66 59 66 77 90 100 100 100 100 100 100 100 100 100 100 95 95 92 75 68
100 98 84 76 65 54 39 26 23 23 25 25 29 30 30 37 49 59 70 76 74 78 75 74 72 80 69 83 89 67 55 66 48 49 58 47 58 79 92 100 100 100 100 100 100 100 100 100 100 100 100 100 97 86
67 47 40 31 27 22 23 27 37 54 60 57 48 40 41 50 49 47 49 59 69 72 76 77 86 84 81 94 100 100 94 42 45 46 46 37 45 86 100 100 100 100 99 99 100 100 100 100 100 100 100 100 100 100
24 21 19 17 15 16 21 37 50 64 58 46 43 54 53 47 43 39 43 48 50 54 59 59 67 68 71 84 99 100 100 96 61 48 46 44 42 77 92 99 100 100 100 100 100 100 100 100 100 100 100 100 99 100
13 12 13 15 28 45 55 62 67 63 48 43 47 41 36 33 30 31 33 51 54 45 47 48 42 44 45 59 94 100 100 98 58 53 55 57 54 52 66 77 83 89 88 89 94 96 98 99 100 100 100 100 100 98
24 34 47 57 66 65 66 64 61 53 49 43 39 33 32 32 30 29 39 51 66 61 47 43 38 30 31 45 88 100 100 100 76 49 48 54 53 62 61 50 45 46 59 66 64 57 52 52 52 52 52 54 56 58

GFSWCAN_500_rhum_045.txt.gz
RH
100 93 98 97 97 86 87 70 72 65 64 60 55 48 41 28 20 13 7 3 3 12 46 60 71 58 47 84 97 68 70 79 78 66 55 47 43 42 58 89 94 81 66 48 39 48 53 55 58 68 88 75 62 51
98 97 97 98 95 93 87 78 78 68 65 58 50 44 35 28 22 13 8 4 3 19 46 49 61 82 70 69 100 97 73 63 68 59 51 44 35 31 31 35 46 68 83 84 72 57 52 54 55 66 83 91 71 60
98 97 97 97 97 94 86 81 81 70 59 54 46 32 30 24 19 16 8 4 3 20 50 55 48 77 93 84 84 100 98 69 53 47 41 41 42 40 30 28 28 30 33 42 76 82 74 68 60 52 58 73 72 76
97 97 97 96 95 96 90 86 78 58 52 45 36 29 22 20 17 11 7 4 6 30 46 60 67 67 90 99 92 100 100 98 81 65 49 43 48 46 41 62 93 98 81 50 29 34 70 77 67 58 50 53 57 75
98 96 98 96 95 96 95 86 70 52 44 31 22 18 18 16 11 8 6 4 4 18 41 50 71 81 79 78 90 100 100 100 100 100 95 91 57 55 82 100 96 82 86 82 83 72 36 35 60 63 62 59 52 50
97 98 96 97 97 97 94 86 69 57 34 15 11 11 13 10 8 6 5 5 7 21 39 48 54 61 85 98 95 97 100 100 100 100 100 100 98 100 100 78 66 42 40 31 30 38 74 90 57 31 56 59 57 57
97 97 97 100 98 99 93 83 82 50 19 10 10 11 10 9 7 6 5 5 5 16 32 54 60 71 75 79 99 97 94 95 100 100 100 100 100 95 75 59 42 31 30 24 16 13 11 16 50 91 44 37 55 50
99 97 98 99 98 100 97 92 87 44 15 10 12 12 11 11 9 9 8 6 6 5 7 26 50 60 68 77 87 96 97 97 99 100 100 99 89 69 57 50 42 37 32 26 18 11 8 8 9 21 87 66 30 48
98 96 98 98 99 100 99 99 82 32 20 15 15 15 12 13 12 11 11 10 9 8 6 7 10 20 52 67 78 79 87 92 94 97 96 84 78 69 58 56 51 38 32 20 17 15 9 6 6 8 18 84 80 32
96 99 99 98 100 100 100 99 76 42 25 19 21 18 17 13 16 16 14 11 10 11 9 10 10 14 14 18 54 78 91 96 94 94 98 94 96 72 69 65 52 40 32 38 24 35 42 62 59 23 34 80 100 89
100 98 100 99 100 100 100 98 87 68 36 21 26 24 23 20 18 21 19 17 17 16 10 9 10 11 13 15 15 33 69 91 100 100 100 100 88 92 88 75 54 55 54 65 48 56 98 90 96 38 79 100 100 100
99 100 100 100 100 100 99 99 97 68 51 35 25 35 32 25 25 23 17 16 17 17 21 17 15 13 13 14 18 17 41 80 95 100 100 98 88 93 88 77 72 67 85 84 72 83 96 96 100 100 98 100 100 100
100 100 100 100 100 100 98 98 96 78 64 56 49 38 45 39 33 30 26 24 20 20 23 26 24 20 18 16 19 19 21 56 93 100 99 95 94 99 96 94 91 82 98 99 88 80 89 100 93 76 78 75 81 91
100 100 100 100 100 98 100 97 97 86 77 80 71 68 62 52 44 42 43 44 37 30 31 33 34 30 26 23 21 22 17 18 30 69 98 100 98 100 100 100 100 99 96 100 100 98 97 99 87 76 100 75 98 100
100 99 99 96 94 98 97 100 100 89 76 72 70 72 65 62 57 50 55 50 46 45 34 38 41 42 39 34 29 23 22 18 20 22 27 24 28 79 100 100 99 100 100 100 100 100 100 100 97 97 78 94 99 100
100 100 100 99 97 100 100 100 96 92 79 70 67 60 53 52 54 57 61 58 55 54 47 46 48 49 46 46 40 38 27 23 28 32 29 25 18 13 58 100 100 100 100 100 100 100 98 91 100 100 100 100 100 100
100 100 100 100 100 100 100 100 96 91 80 71 66 61 59 54 52 57 60 58 55 57 57 59 55 54 55 55 61 66 50 39 37 38 40 45 36 25 15 23 85 94 100 100 100 100 100 100 100 100 100 100 100 100
100 98 100 100 100 100 100 99 91 88 93 94 82 71 64 62 67 65 58 53 48 46 53 64 64 57 65 63 63 60 56 59 65 65 68 70 66 54 40 22 22 86 97 100 100 100 100 100 100 100 100 100 96 99
100 100 100 100 100 100 99 100 100 100 98 87 88 87 79 75 66 53 54 54 52 50 52 64 70 63 69 69 68 64 68 68 64 62 67 76 63 51 41 26 20 27 88 100 100 99 100 100 100 100 100 100 97 100
94 99 100 100 100 100 100 96 100 98 96 84 84 80 75 72 64 58 54 52 54 54 60 74 71 71 70 63 71 71 66 60 49 48 46 40 26 19 16 15 18 30 40 93 100 100 100 100 100 100 100 100 100 100
100 100 100 100 100 100 98 99 95 92 86 86 96 82 66 61 61 58 58 57 58 64 73 78 70 63 61 63 53 40 27 32 38 29 25 20 39 35 32 42 59 52 42 51 93 99 100 100 100 100 100 100 100 100
100 100 100 100 100 98 98 92 94 94 93 92 88 75 62 58 61 62 60 57 61 84 83 63 58 56 45 31 22 21 21 24 26 27 66 100 100 100 100 78 65 63 53 36 55 94 100 100 100 100 100 100 100 100
98 95 100 100 100 91 79 90 95 96 97 88 83 69 59 60 61 58 54 59 89 82 63 54 46 29 18 15 17 20 24 27 38 100 100 100 100 100 100 100 73 64 60 36 34 66 99 100 100 100 100 100 100 100
100 100 99 96 88 78 75 85 95 98 93 94 86 76 70 64 53 47 55 82 70 55 48 38 22 14 14 19 26 47 48 63 84 81 87 91 98 99 99 96 82 69 46 37 32 40 80 99 100 99 94 97 100 100
99 100 95 80 66 70 90 93 92 92 88 93 90 84 73 64 53 56 65 54 48 39 22 16 15 20 34 54 61 61 73 96 100 100 100 100 88 79 98 96 80 61 62 64 34 32 37 68 97 100 100 99 84 83
99 96 81 66 72 91 93 91 86 87 85 86 80 73 60 50 51 54 47 37 24 18 17 22 37 48 54 76 74 81 78 88 97 79 94 98 90 74 80 87 85 100 69 100 88 74 53 39 44 77 94 91 84 83
88 75 72 82 92 96 89 84 80 80 82 81 70 60 50 50 48 33 23 19 21 23 30 38 46 52 53 55 60 62 67 77 80 73 79 91 94 75 63 60 82 100 94 100 100 100 100 99 88 61 50 54 64 61
92 92 94 100 95 92 81 78 78 78 74 67 55 52 49 36 25 22 21 26 32 41 43 50 57 53 49 65 69 56 58 83 72 76 79 70 54 57 56 52 63 100 100 100 100 100 100 100 100 99 94 86 73 65
91 100 100 92 86 81 74 80 77 71 63 55 45 29 19 19 24 30 34 44 56 49 44 43 44 55 57 77 95 90 91 95 87 62 57 66 56 49 44 44 59 100 100 100 100 100 100 100 100 100 100 100 98 92
99 92 86 88 90 89 78 70 60 47 31 16 12 12 15 32 36 40 48 56 52 42 37 32 29 30 36 41 54 72 91 94 80 76 54 54 55 50 43 37 48 98 100 100 100 100 100 100 100 100 100 100 100 98
96 98 95 85 72 53 39 30 20 14 12 12 15 24 36 38 32 40 46 50 51 45 37 29 26 25 32 37 39 42 52 78 98 91 93 57 46 57 57 45 48 81 97 100 100 100 100 100 100 100 100 100 99 100
87 79 62 45 31 21 17 14 12 12 15 24 42 45 45 45 40 30 38 46 46 42 33 25 23 30 38 36 35 35 34 64 98 100 95 62 59 64 71 76 72 63 62 67 74 84 93 91 94 97 99 93 91 95
32 24 19 16 15 13 14 16 23 35 45 48 47 48 52 54 46 41 46 48 39 31 27 24 26 36 34 31 35 34 28 52 97 100 91 55 49 56 61 57 54 53 55 55 50 43 41 44 54 60 58 49 44 45

GFSWCAN_500_rhum_048.txt.gz
RH
98 97 97 97 96 90 91 98 98 86 75 64 57 51 52 40 33 27 20 13 7 3 5 16 30 33 64 51 84 91 80 81 94 88 78 61 57 52 56 79 94 86 77 73 54 41 45 60 65 57 60 68 83 73
98 97 98 97 99 97 94 98 100 95 93 78 64 53 50 39 30 24 18 13 8 4 4 9 34 31 48 74 48 92 86 84 92 90 81 68 56 47 41 40 39 52 71 83 81 75 63 51 52 57 58 68 85 85
97 98 98 99 98 97 96 97 96 87 96 90 69 61 48 38 29 23 18 12 9 6 5 7 31 43 42 79 85 92 100 97 82 71 72 68 56 46 43 42 32 29 30 33 49 70 80 80 68 53 51 56 64 88
99 99 98 97 96 98 88 97 96 95 96 94 75 62 42 35 27 23 16 11 10 6 4 7 22 51 49 59 89 100 94 100 98 84 65 56 50 45 46 53 44 41 31 27 27 28 31 43 62 72 68 57 53 56
96 98 97 97 99 98 100 97 95 96 96 94 81 70 39 32 26 21 14 10 9 7 4 6 14 37 72 71 72 84 98 99 100 100 98 85 66 56 65 66 50 55 78 92 92 88 85 84 62 29 40 68 63 55
98 98 97 97 99 93 99 96 96 97 99 96 86 45 36 30 26 17 14 9 8 7 5 4 11 23 51 60 80 93 86 87 99 100 100 100 100 100 100 90 79 77 84 81 68 61 41 29 48 73 77 38 39 61
99 97 97 99 98 99 97 98 98 98 98 93 53 45 37 28 22 19 13 9 7 6 5 4 5 10 34 54 64 78 84 91 89 98 100 100 100 100 100 95 89 82 80 70 37 20 21 17 15 14 18 50 72 38
99 97 97 96 100 99 98 99 99 99 99 86 56 30 29 14 14 14 9 6 7 7 5 4 4 5 5 15 41 66 84 97 98 99 100 100 100 100 100 100 96 76 58 42 30 29 21 18 17 13 10 10 16 57
97 96 98 98 98 99 99 99 99 100 99 88 77 39 19 12 11 11 10 8 8 7 6 6 6 5 6 6 7 23 59 80 91 95 94 100 100 92 96 88 71 56 51 62 53 32 21 14 18 26 12 11 6 10
97 97 98 98 97 99 99 99 100 100 99 97 76 25 18 18 14 16 11 11 11 9 9 9 10 9 8 7 8 9 19 63 83 97 100 98 94 79 76 71 69 77 76 64 45 38 31 25 25 24 26 37 22 21
98 98 98 97 96 99 99 100 99 100 100 95 75 27 28 24 22 22 15 11 12 12 11 12 12 12 12 11 9 8 12 22 75 98 100 100 100 99 99 94 86 96 93 79 62 45 42 39 38 37 33 37 73 99
98 99 97 96 100 100 100 98 100 100 99 98 81 40 25 30 33 30 30 25 20 19 14 13 14 18 17 13 10 11 10 14 29 61 90 100 100 100 100 100 100 100 100 92 84 77 73 78 58 65 78 83 100 100
98 97 98 100 100 100 98 100 100 100 99 99 97 66 45 37 39 41 40 38 33 34 37 32 25 24 23 23 16 11 13 11 15 20 30 51 64 62 62 71 83 96 100 100 100 100 87 100 75 65 79 100 75 88
97 98 100 100 100 100 100 100 100 100 100 99 93 88 68 56 55 52 50 50 42 35 38 36 39 36 34 32 30 26 18 15 14 16 17 16 18 19 19 17 16 17 28 82 100 99 99 97 100 90 88 86 95 86
97 100 99 98 100 100 100 100 100 100 98 98 97 98 85 73 66 63 58 54 50 49 50 42 44 50 41 42 44 35 26 22 20 21 24 28 30 25 21 22 20 19 16 35 75 100 100 96 100 100 87 92 91 97
99 97 97 100 100 100 100 100 100 97 93 96 91 89 81 75 70 64 56 56 55 58 56 50 49 50 38 42 47 51 44 37 32 29 29 32 36 33 30 30 25 31 30 28 22 90 100 100 100 100 100 100 99 100
100 100 100 100 100 99 100 100 100 98 98 91 89 82 79 77 69 62 56 58 57 57 54 49 44 49 49 46 48 52 52 46 38 37 38 45 47 43 40 42 50 53 50 44 39 32 75 100 100 100 100 89 100 100
100 100 100 100 100 100 100 100 100 100 100 97 90 86 84 81 74 68 64 64 65 64 57 53 58 57 56 50 49 50 46 44 44 40 42 57 66 65 72 70 64 58 50 42 34 36 34 97 100 100 100 100 100 100
100 100 100 100 100 100 99 97 100 100 100 97 95 91 87 80 74 70 68 68 72 72 64 62 57 54 49 46 50 53 50 44 40 39 37 53 54 45 45 40 35 28 23 22 20 31 29 66 100 100 100 100 100 100
96 99 100 100 100 99 97 100 100 100 100 100 100 97 90 81 72 70 70 65 62 58 59 57 52 48 48 54 53 48 46 44 43 41 34 27 25 23 27 27 22 24 21 16 15 18 26 47 100 100 100 100 100 100
100 100 100 98 100 99 100 100 99 99 100 100 100 95 83 76 71 74 72 68 60 61 57 53 48 46 49 44 39 39 40 36 30 25 20 17 19 21 33 74 81 100 100 75 40 54 53 57 98 100 100 100 100 100
100 100 100 100 99 98 94 96 95 98 100 100 100 90 77 74 76 72 70 68 64 68 55 52 46 43 39 40 41 32 20 12 16 18 20 25 26 47 100 100 100 100 100 100 78 74 66 57 92 100 100 100 100 100
100 100 99 99 93 83 83 93 97 100 100 100 95 84 75 73 70 68 69 76 73 64 54 43 41 38 37 34 24 15 11 12 19 28 43 40 45 85 97 100 100 90 95 100 89 69 67 54 67 97 100 100 100 100
100 95 94 96 93 84 81 89 100 100 100 93 86 77 73 77 72 65 69 70 57 48 42 40 35 30 23 18 12 9 12 15 22 44 58 64 78 92 96 100 99 86 96 95 100 76 62 46 44 61 97 100 100 100
98 99 96 88 79 80 91 100 100 99 93 88 80 84 85 77 66 62 67 56 48 43 37 29 25 18 14 10 10 14 30 36 39 50 66 89 95 92 89 100 94 99 91 88 100 100 100 93 52 49 57 92 100 100
100 96 85 82 89 100 100 100 100 97 89 88 89 85 77 66 62 58 59 51 44 34 25 19 15 11 11 13 18 29 41 47 42 47 62 69 78 80 70 81 92 100 81 83 100 100 100 100 92 53 48 51 79 98
96 86 87 96 100 100 100 96 93 86 83 91 85 76 68 62 58 56 47 37 28 21 15 12 12 14 16 21 29 38 47 66 67 54 56 74 76 79 63 72 73 100 99 97 100 100 100 100 100 100 100 90 61 62
85 92 100 100 100 100 90 83 87 98 93 81 70 70 66 60 50 34 27 24 14 12 13 18 22 22 27 32 31 29 33 41 69 99 97 100 100 67 62 75 61 76 72 65 90 100 100 100 100 100 100 100 100 94
84 97 100 99 94 88 80 91 91 85 79 77 78 71 58 44 30 24 15 13 17 21 24 27 28 34 32 27 28 26 24 29 38 74 87 90 99 98 54 66 61 55 49 44 76 100 100 100 100 100 100 100 100 100
100 99 90 81 80 84 86 85 85 85 83 76 62 51 39 26 18 14 13 24 40 38 32 31 33 30 26 21 20 23 31 33 31 45 63 64 78 100 71 61 59 52 43 39 75 100 100 100 100 100 100 100 100 99
92 86 85 89 96 98 92 84 79 75 65 52 36 27 20 16 14 15 22 45 47 49 48 39 32 33 28 24 23 22 30 39 35 40 46 44 71 100 99 72 61 69 67 56 76 98 100 100 100 100 100 100 100 100
94 96 94 89 84 82 79 73 61 45 32 25 19 16 14 14 15 19 28 40 39 34 36 43 41 36 31 24 22 22 28 31 30 36 37 55 89 100 96 67 71 75 76 76 71 68 62 58 59 66 82 96 100 100
90 83 78 81 81 66 49 39 31 26 20 16 14 15 19 26 28 36 65 61 54 53 52 50 41 31 20 16 17 19 27 35 26 28 40 68 96 100 76 54 56 61 61 60 59 59 66 72 66 58 53 48 41 39

GFSWCAN_500_rhum_051.txt.gz
RH
83 63 100 97 98 96 96 97 88 79 83 88 88 96 86 74 50 30 19 13 9 6 4 3 4 14 23 38 42 48 75 62 68 68 80 80 72 74 72 67 76 92 94 85 75 65 55 41 40 66 68 61 60 68
79 60 97 96 99 98 97 94 92 91 91 88 99 96 87 82 71 31 18 13 9 7 5 4 4 11 20 26 55 46 75 80 66 82 93 92 77 64 54 48 44 42 48 81 90 89 82 74 57 51 54 58 60 69
80 72 88 96 98 98 98 97 93 96 95 95 100 97 95 96 66 28 17 14 10 8 6 5 3 5 17 34 39 61 59 88 85 79 95 100 89 76 62 53 47 39 34 32 38 48 66 78 81 83 74 51 52 61
99 61 77 97 98 98 98 96 93 99 83 90 97 96 95 93 68 24 17 14 11 8 7 5 4 4 7 38 51 47 63 80 93 99 94 90 86 79 71 58 52 49 44 34 30 28 30 32 33 33 37 53 70 64
100 95 78 97 98 98 98 97 100 93 96 96 96 94 96 93 70 25 17 15 12 9 7 6 4 4 4 10 40 67 81 74 91 93 99 99 93 77 67 54 46 51 56 53 45 64 87 100 98 86 83 77 53 37
100 71 69 97 98 98 96 95 92 96 92 96 96 96 97 93 56 44 17 15 13 10 8 6 4 4 4 3 6 31 66 98 86 88 87 93 99 100 100 88 70 74 84 70 66 95 95 79 59 44 33 38 45 62
100 99 93 98 98 97 97 98 97 89 97 97 96 98 96 85 92 29 20 18 14 11 10 8 5 4 5 4 4 7 14 49 63 65 71 88 97 100 100 99 100 100 100 99 100 93 73 55 29 25 21 18 17 14
98 100 96 98 98 98 98 98 94 92 99 99 98 97 97 98 46 28 23 20 16 13 12 11 10 8 8 5 4 5 5 19 41 75 92 99 95 99 100 100 100 100 100 100 97 87 63 46 40 30 21 14 12 12
94 98 97 98 98 97 98 97 94 98 96 100 97 95 97 91 40 31 25 19 16 16 12 11 12 11 11 10 6 5 5 6 13 43 74 88 89 89 95 97 100 100 100 100 96 78 64 43 44 31 32 25 19 18
90 99 98 97 98 100 100 96 99 98 99 98 98 97 97 76 44 35 22 18 15 14 12 11 12 13 14 15 11 8 7 6 6 10 29 43 55 60 65 77 93 97 97 99 100 100 98 88 59 49 37 38 24 20
94 99 96 99 100 98 98 99 99 98 99 98 98 97 98 78 48 30 23 24 20 15 14 13 14 15 19 19 18 13 11 10 8 7 7 12 29 44 58 60 65 74 85 87 88 89 87 83 74 67 65 48 50 37
98 97 99 100 98 99 98 99 100 100 99 98 99 99 98 88 46 32 30 32 32 31 27 25 27 24 24 24 27 24 19 15 13 10 10 9 9 22 37 47 50 55 57 59 53 49 67 78 85 85 75 57 56 49
99 98 98 100 99 98 98 96 98 100 98 100 100 100 96 82 69 49 30 34 39 42 42 41 37 37 34 33 26 29 25 25 21 16 13 16 15 13 11 10 11 11 11 16 15 13 16 30 62 83 100 72 66 76
98 98 98 99 98 98 96 100 100 99 100 100 99 99 97 93 89 72 63 56 52 52 54 54 54 52 55 48 40 28 36 37 35 36 33 29 25 22 24 24 20 18 18 20 19 16 14 11 16 44 92 100 99 88
99 98 98 99 98 99 100 100 99 100 99 100 100 99 98 98 96 95 92 84 77 70 66 66 66 62 65 62 50 40 44 44 42 39 38 42 43 40 34 31 30 28 25 18 20 25 30 28 18 21 52 100 98 94
98 98 99 98 99 100 100 100 100 100 100 100 100 100 100 100 96 94 85 79 74 68 63 62 63 62 62 62 51 46 46 48 48 42 40 44 46 44 39 35 34 34 35 36 37 34 32 29 29 32 27 81 100 100
99 99 99 99 100 98 100 100 100 100 100 100 100 100 99 97 94 83 81 78 74 68 66 68 65 68 67 66 59 55 55 54 46 41 38 40 42 37 33 35 39 47 51 49 38 28 23 19 14 18 26 32 100 100
100 98 99 98 98 100 100 100 100 100 100 100 100 99 96 87 76 74 72 70 69 66 69 69 64 66 67 67 66 62 57 48 40 34 33 35 35 34 29 23 28 23 19 21 22 20 18 18 16 15 16 23 95 100
99 100 97 100 100 100 100 100 100 100 100 100 98 95 84 77 74 72 71 72 69 66 66 66 65 64 61 58 57 55 46 38 32 29 29 28 20 15 14 14 15 18 22 26 30 34 32 20 16 14 15 18 91 100
100 97 100 100 100 100 100 99 100 100 100 98 88 81 74 70 73 76 79 75 70 66 62 55 60 62 59 56 52 42 36 30 25 16 16 13 12 12 12 14 21 25 35 90 100 100 100 95 49 24 24 24 96 100
98 100 100 100 100 100 99 98 99 98 98 97 88 79 78 76 79 78 75 72 68 65 57 58 62 65 64 52 39 33 30 21 15 12 10 10 11 12 24 35 36 49 86 98 100 98 100 100 96 83 42 33 100 100
100 100 100 100 100 97 100 99 99 100 99 98 93 84 76 81 83 79 76 75 71 66 64 65 63 62 50 41 34 26 20 14 10 9 11 13 20 31 42 65 65 89 100 99 92 90 100 100 100 85 69 72 100 100
99 100 100 99 98 97 97 99 99 99 100 100 92 89 89 87 84 83 78 77 70 74 70 66 62 52 44 35 27 19 14 9 8 10 15 18 28 39 50 93 99 88 82 99 79 75 100 100 95 77 66 83 100 100
100 98 98 94 87 92 94 99 100 100 99 100 99 91 82 82 78 76 80 80 70 70 68 64 56 48 36 26 19 13 9 8 9 13 18 22 32 46 64 91 100 100 96 87 86 97 100 96 86 72 67 77 100 100
98 99 86 73 83 96 98 100 100 99 100 99 85 77 75 76 73 74 80 81 75 69 63 62 54 40 27 20 14 11 12 11 14 16 24 40 44 45 52 59 75 88 81 78 82 96 100 90 96 90 88 68 90 100
91 81 80 85 98 100 100 100 100 100 94 85 77 76 76 76 77 80 88 82 74 67 64 53 39 26 20 14 12 12 15 20 20 22 29 40 63 58 51 56 56 73 85 100 90 100 100 100 100 100 100 100 68 81
93 86 97 100 100 100 100 98 100 94 80 76 78 86 83 76 81 91 86 77 74 67 50 35 25 22 15 12 13 17 22 22 23 25 26 27 38 74 78 71 71 58 91 92 98 95 98 100 100 100 100 100 100 77
92 93 97 100 100 100 100 95 78 74 77 82 81 84 86 88 89 86 81 72 59 44 32 24 18 14 13 13 18 21 19 19 25 28 26 26 30 48 73 68 79 51 82 80 82 65 65 89 100 100 100 100 100 100
100 100 100 100 100 94 81 83 84 85 82 81 88 88 85 85 86 78 67 48 36 29 24 17 14 14 15 17 24 24 24 24 24 25 26 23 30 40 61 70 78 62 71 68 58 51 45 66 100 100 100 100 100 100
100 100 99 97 95 92 82 82 85 89 92 87 84 81 81 77 69 54 37 26 23 20 16 13 14 16 19 24 23 27 34 30 29 23 21 23 32 40 52 59 78 72 60 61 61 65 49 66 100 100 100 100 100 100
100 98 96 92 89 89 94 98 96 88 85 87 84 76 67 58 41 28 22 19 17 15 15 16 17 24 26 30 33 33 26 35 30 18 18 25 30 48 51 61 96 99 71 63 81 99 94 84 93 96 97 100 100 100
97 94 95 96 100 100 100 94 87 86 84 76 64 55 47 40 34 25 18 17 18 19 22 25 28 31 35 48 45 39 30 26 18 17 18 27 28 38 44 65 98 97 73 74 76 72 68 65 63 64 63 57 54 58
90 94 98 100 99 93 87 86 80 69 63 55 48 42 38 31 22 18 17 18 23 30 41 41 38 40 42 38 35 29 31 38 36 34 30 32 26 28 38 81 96 87 67 61 58 54 52 55 57 61 75 80 67 49

GFSWCAN_500_rhum_054.txt.gz
RH
97 98 56 54 93 98 95 98 99 96 97 90 92 86 88 89 73 71 42 17 9 7 5 4 3 3 6 12 24 23 42 50 41 40 40 42 60 64 65 66 65 64 80 97 100 87 74 63 56 46 46 57 69 66
98 94 48 64 100 98 97 98 99 96 97 95 98 93 96 96 89 64 39 25 10 7 6 5 4 3 3 9 20 37 34 64 70 57 57 75 84 78 69 68 59 53 48 50 69 92 97 93 89 72 56 57 59 61
98 70 98 72 94 98 97 98 97 96 97 98 100 98 95 93 92 86 67 35 11 9 7 6 4 4 3 4 12 35 46 40 67 82 84 89 100 95 83 69 60 52 49 46 42 39 39 44 61 77 85 86 82 71
98 74 100 74 96 98 97 96 97 97 97 98 97 96 94 90 91 83 68 23 12 10 8 6 5 4 4 3 4 19 60 59 51 71 99 97 96 100 97 88 79 70 60 53 49 50 48 47 35 31 35 32 32 37
94 78 81 98 97 98 98 96 98 97 99 97 97 97 92 91 90 81 45 49 13 11 9 7 6 5 5 4 3 3 12 55 66 65 86 95 97 92 86 79 67 70 64 56 52 50 55 78 92 85 91 90 82 75
81 73 98 99 86 97 97 98 97 99 98 96 96 96 94 90 90 84 87 23 15 12 10 8 7 7 5 5 4 4 4 11 58 82 86 84 83 95 91 94 97 95 89 76 79 93 90 75 96 100 96 82 59 45
88 80 95 99 97 97 97 97 99 97 97 96 97 94 93 92 86 87 50 21 18 14 12 10 9 8 6 5 6 5 6 6 8 19 42 62 64 67 80 90 92 99 100 99 95 96 94 91 95 97 88 84 69 34
61 87 93 96 99 98 98 97 98 98 98 97 96 92 96 92 96 82 44 26 20 18 15 13 12 10 9 8 7 5 8 7 6 6 14 32 54 76 80 89 98 93 85 85 86 86 89 94 99 98 90 81 53 30
56 90 98 99 98 98 96 100 97 98 97 97 96 95 97 96 97 82 71 27 24 21 20 19 18 15 14 11 8 7 6 10 8 8 7 9 12 40 60 64 66 73 83 89 86 85 82 81 78 71 78 85 61 32
85 80 98 98 98 98 97 98 98 98 98 97 96 97 96 97 98 94 72 32 28 25 25 23 22 20 19 17 15 11 9 10 13 10 12 12 10 10 10 29 33 51 45 40 43 47 48 49 56 66 76 71 59 51
91 96 97 98 98 97 98 99 93 96 98 97 97 99 97 98 98 97 53 38 31 31 32 30 30 25 22 26 25 20 13 12 14 18 20 15 15 16 8 8 8 10 13 12 11 12 14 27 37 40 48 55 68 72
95 90 98 98 98 98 100 100 98 98 97 98 98 97 98 99 98 94 81 45 36 35 36 38 40 41 37 34 34 37 30 22 20 28 29 23 14 15 17 16 12 11 12 13 17 15 15 15 20 21 20 25 43 68
73 98 99 99 98 98 99 98 96 97 95 100 95 98 97 97 99 99 70 56 44 37 35 38 45 52 54 54 51 51 51 51 39 29 35 38 38 37 35 27 26 24 24 22 24 22 21 18 15 14 14 12 11 17
99 98 98 99 98 98 98 97 99 100 100 95 97 99 98 96 99 95 77 69 62 61 62 64 71 72 71 69 64 60 58 54 49 41 38 46 46 38 40 43 40 36 33 30 28 31 29 28 29 26 18 18 17 20
97 99 98 99 100 97 96 98 98 98 99 98 99 97 98 100 100 99 94 91 87 85 81 78 71 67 64 59 58 61 63 60 58 56 57 60 62 49 43 37 33 32 31 33 33 35 38 44 46 42 38 32 25 24
99 98 98 99 95 98 98 97 100 99 98 98 98 100 100 100 99 96 97 98 89 74 69 67 62 58 55 54 56 64 66 69 70 71 69 63 53 42 38 37 37 30 28 26 26 28 28 22 16 19 28 38 38 36
98 98 99 98 99 98 98 99 97 94 96 99 100 100 100 97 96 98 100 95 74 64 59 56 55 56 53 50 54 56 61 62 65 62 57 46 39 29 20 14 12 12 12 13 13 12 12 16 18 19 19 18 18 22
100 100 100 99 99 98 99 98 97 97 100 100 100 100 100 98 97 100 100 89 66 59 60 60 59 60 53 51 50 52 58 60 60 52 42 35 25 16 10 8 8 9 10 11 13 20 24 31 53 72 72 36 19 16
98 99 100 99 98 98 98 97 98 100 100 100 100 100 96 94 99 100 92 68 59 59 59 60 57 55 55 54 54 55 57 60 52 41 32 22 14 10 8 8 8 9 13 18 28 44 80 100 100 99 100 100 54 22
99 99 98 98 98 98 97 98 100 99 97 100 100 98 91 93 89 76 64 58 58 60 57 58 61 57 56 55 56 59 60 54 43 34 23 14 11 9 8 8 9 17 23 35 66 100 99 100 100 100 100 100 97 37
98 98 98 99 98 98 100 100 100 100 100 100 100 92 88 82 72 68 62 60 59 55 49 57 59 59 60 58 58 63 58 50 41 26 18 14 10 8 8 10 18 26 45 72 63 99 100 95 100 100 100 100 100 80
100 100 100 99 99 100 100 100 100 100 100 100 94 91 87 77 73 66 60 55 54 48 50 57 58 61 61 58 62 62 59 50 31 19 14 10 8 10 12 16 26 40 76 100 100 93 100 100 82 87 99 100 100 74
100 100 100 100 100 100 100 99 99 98 92 95 96 90 80 79 70 64 58 54 52 51 58 58 64 63 65 65 64 62 51 30 21 14 11 10 12 14 17 23 34 44 54 85 100 100 100 100 86 89 95 98 95 69
100 100 100 99 99 100 99 98 100 100 100 96 86 86 82 75 69 62 55 61 58 60 60 62 63 67 70 69 66 47 32 22 14 12 14 13 17 18 22 23 37 49 54 59 70 77 88 98 99 97 92 88 82 70
100 98 97 100 100 99 100 100 100 100 98 96 94 86 78 77 65 55 58 64 62 57 56 61 66 71 72 62 45 30 20 14 12 15 22 20 21 20 22 24 26 62 87 84 88 65 84 96 100 100 98 94 89 73
100 99 97 95 100 100 100 100 100 100 100 99 90 84 78 64 61 58 62 57 53 56 62 66 70 69 61 48 31 19 14 14 17 23 22 22 24 28 27 20 22 32 72 84 66 62 91 95 100 100 100 100 100 100
97 99 99 100 100 100 100 100 100 99 98 88 82 75 68 64 66 70 60 58 67 74 73 71 69 61 45 30 20 15 14 15 20 24 25 26 28 27 27 24 21 26 34 67 73 76 87 100 98 96 100 100 100 100
90 88 99 100 100 100 100 100 96 94 85 77 78 81 78 82 79 66 64 70 75 76 77 69 56 40 30 21 17 14 14 16 20 23 28 32 34 29 30 24 20 22 26 51 74 84 81 72 70 74 92 100 100 100
92 100 100 100 100 100 100 96 94 92 84 81 83 90 92 96 80 72 80 83 78 72 68 50 38 30 22 18 15 15 16 19 24 27 29 26 24 28 21 17 20 25 44 62 62 77 70 65 67 60 87 100 100 100
99 100 100 100 100 96 94 88 82 81 80 86 92 91 84 82 90 91 86 80 69 57 44 38 29 23 19 15 15 18 24 28 32 30 28 24 34 26 16 17 24 40 56 60 64 75 68 78 85 68 80 100 100 100
100 100 100 98 93 88 81 77 79 89 97 94 84 83 90 96 100 90 76 61 48 42 34 28 24 19 16 14 15 15 21 35 39 33 29 31 35 34 20 21 32 49 57 71 73 73 74 88 95 94 92 91 92 95
100 97 94 87 88 88 92 100 99 91 87 85 91 93 93 89 79 62 53 43 39 35 29 23 18 15 16 18 20 31 34 31 30 30 30 32 36 43 28 24 33 43 55 88 84 81 75 78 75 66 61 56 56 55
99 100 99 99 98 97 97 94 91 94 98 97 98 93 80 64 51 44 42 40 32 26 21 18 14 13 14 16 20 20 25 26 33 47 50 50 45 45 32 26 28 55 82 90 83 73 67 65 57 53 54 58 60 59

GFSWCAN_500_rhum_057.txt.gz
RH
76 100 98 97 96 58 99 98 98 97 95 96 97 90 91 94 85 80 54 37 16 16 8 5 4 4 3 3 6 9 16 31 38 37 39 40 54 64 70 68 65 63 66 72 80 85 84 87 81 75 63 55 46 41
99 98 100 99 94 63 98 97 98 97 96 96 97 91 87 87 80 91 73 84 18 12 9 6 4 4 4 3 3 7 14 21 39 59 53 66 69 78 81 75 73 69 62 59 52 54 69 90 92 82 76 70 56 50
96 100 100 98 97 100 98 98 97 97 97 97 97 88 89 90 88 82 88 86 37 12 10 7 6 5 4 4 3 4 7 16 31 46 72 84 74 82 74 74 78 75 66 58 52 51 49 44 39 36 40 72 93 87
98 99 99 98 98 81 97 98 97 97 96 96 97 95 92 91 89 80 74 72 44 15 13 8 7 6 4 4 4 4 4 8 23 41 53 82 90 91 86 83 79 92 86 84 77 67 62 53 47 45 40 33 31 35
99 100 100 99 99 98 97 98 98 98 96 96 96 99 97 90 93 76 69 71 48 30 11 9 8 7 6 5 5 5 4 4 5 27 49 74 87 96 100 97 100 98 92 97 88 74 70 60 51 46 52 49 48 68
100 100 98 98 99 92 97 98 98 97 96 96 97 98 93 95 90 72 72 64 66 17 12 10 9 8 7 6 6 6 5 4 4 6 20 65 74 68 64 65 75 85 95 100 100 100 98 97 91 90 91 76 72 68
99 100 94 88 93 98 98 98 98 98 97 96 97 96 96 96 90 81 78 73 54 19 14 12 11 10 8 8 8 8 8 7 7 7 7 7 14 24 50 64 71 72 85 89 99 100 100 97 98 99 100 100 100 99
97 99 100 99 98 95 98 97 98 98 97 96 96 97 96 96 95 81 82 79 31 22 17 14 13 12 11 10 9 9 10 10 10 10 11 10 9 9 9 16 40 56 72 81 85 84 86 83 76 72 72 76 83 89
100 99 99 100 78 93 96 98 98 98 97 97 96 95 95 95 97 90 88 60 39 27 19 17 16 16 16 16 16 13 11 11 13 14 16 17 18 13 13 10 8 9 12 22 32 36 39 36 34 31 28 30 38 46
98 96 99 98 90 98 100 97 98 97 96 98 95 94 94 96 96 98 82 52 55 28 24 22 21 22 22 22 24 26 27 24 18 12 13 16 20 22 20 16 13 9 8 8 9 11 12 12 11 11 11 11 16 22
98 100 98 98 99 98 98 98 98 96 98 96 96 95 96 96 96 96 88 85 77 55 29 26 28 32 34 34 37 37 37 36 37 36 30 23 19 26 29 27 22 20 19 16 13 13 14 16 17 16 13 10 9 8
97 95 92 97 97 98 98 98 97 97 96 99 98 98 97 96 96 97 98 94 95 49 33 31 33 36 40 43 50 53 56 54 53 53 52 47 44 34 34 39 38 34 30 26 25 25 25 23 20 21 19 16 17 15
98 90 98 100 99 99 100 98 98 96 97 97 96 93 96 95 95 94 98 98 96 64 44 37 37 42 52 57 56 58 55 53 50 51 56 56 62 55 47 48 51 52 56 41 37 36 36 31 28 26 23 26 27 28
95 96 99 99 100 98 98 98 97 98 96 97 95 94 96 92 95 98 100 100 92 67 59 59 68 71 65 58 56 52 46 42 39 48 58 62 66 67 67 68 70 72 68 54 41 30 23 17 15 19 28 33 37 40
97 99 99 98 98 98 98 98 96 97 98 98 97 96 95 98 97 100 100 100 87 81 80 82 76 62 56 54 52 49 44 39 39 41 41 46 51 52 54 54 54 49 40 28 17 12 10 10 12 16 18 14 12 13
100 100 99 98 97 99 100 100 99 98 98 99 96 95 95 98 100 100 100 98 91 89 89 78 63 54 51 50 49 46 42 40 40 39 40 45 49 52 54 50 39 30 21 14 11 10 9 9 9 9 12 18 24 34
99 96 93 95 100 100 98 95 97 97 97 92 92 97 99 100 100 100 100 98 98 96 83 66 57 51 49 46 45 43 41 41 41 40 41 46 48 51 46 38 32 21 15 12 10 8 9 10 11 17 27 95 100 100
100 97 98 95 97 100 100 95 98 97 94 94 96 99 100 99 100 100 100 100 100 96 80 64 54 47 39 40 44 40 39 41 40 39 42 47 53 50 46 37 23 16 12 10 9 8 10 19 38 64 100 100 100 100
97 99 99 100 100 100 97 98 100 95 95 98 100 100 100 100 100 100 99 100 99 94 67 50 41 32 30 34 36 37 38 39 39 41 49 56 58 54 41 26 19 13 10 9 9 14 40 55 100 90 91 99 100 100
100 99 99 98 99 99 98 99 98 97 98 100 100 100 100 100 100 99 100 100 96 67 50 40 33 30 32 34 35 36 37 40 43 51 56 60 53 36 27 16 12 10 10 11 17 36 95 90 90 100 97 89 91 94
95 97 97 99 98 99 98 95 95 98 100 100 100 100 100 99 99 97 95 85 67 53 47 40 35 33 32 30 32 36 37 41 47 54 57 51 39 25 15 12 10 12 15 19 29 44 72 100 100 100 100 98 74 82
98 98 100 100 100 100 100 96 99 100 100 100 100 100 100 100 99 97 89 70 59 49 42 39 35 32 28 31 34 36 38 45 53 58 52 41 28 16 12 11 12 17 20 22 26 42 52 76 88 92 100 100 79 90
100 100 100 100 100 97 96 99 100 100 100 94 100 100 100 98 94 84 70 64 53 44 40 36 33 29 30 35 38 38 43 52 58 53 40 28 18 13 12 15 19 22 19 22 25 29 62 78 60 68 98 100 91 100
100 100 99 97 100 99 100 100 100 100 100 100 100 100 100 96 90 79 65 61 48 41 38 36 32 32 36 39 42 47 49 53 52 38 25 19 14 13 16 22 25 31 30 26 24 25 54 85 58 58 99 100 100 100
97 95 98 98 100 100 100 100 100 100 100 100 100 99 95 94 85 70 61 55 44 41 40 37 36 36 37 42 48 55 56 50 38 26 18 16 15 16 24 29 32 33 32 27 23 22 31 67 64 64 93 100 100 100
100 99 100 99 100 100 100 100 100 100 100 100 99 100 100 86 70 56 56 53 49 45 41 39 35 34 41 49 50 56 51 40 28 22 17 16 19 25 30 34 36 34 28 20 18 19 21 37 68 76 94 100 100 100
98 98 100 100 100 100 100 100 100 100 99 100 97 86 76 68 64 62 60 57 50 45 42 38 38 40 45 49 53 49 41 31 24 20 16 17 25 35 41 40 35 30 21 18 16 18 21 35 72 84 97 97 94 100
100 100 100 100 100 100 100 100 100 100 100 99 88 79 75 74 71 66 61 55 47 43 43 47 52 52 54 52 47 39 32 26 21 18 15 23 40 46 43 44 36 28 23 18 17 22 30 54 71 85 90 94 90 100
100 100 100 100 100 100 100 100 100 100 98 92 87 95 90 81 71 69 61 52 49 50 55 60 58 56 53 45 38 31 26 22 17 14 16 28 37 41 42 38 31 26 23 20 22 35 56 68 81 84 82 95 94 100
100 100 100 100 100 100 100 100 100 98 97 98 100 94 90 82 74 63 57 54 58 67 66 62 59 52 43 38 32 27 22 17 15 15 16 19 22 27 30 30 30 29 27 24 34 50 54 61 83 80 91 100 100 100
100 100 100 100 100 100 100 98 95 97 99 96 92 88 77 71 65 61 58 63 66 64 63 60 50 42 37 32 27 22 16 12 10 13 17 19 20 24 30 38 45 43 37 29 38 56 65 65 76 81 90 92 88 86
100 100 100 100 100 100 100 97 96 99 99 95 83 76 71 68 70 69 71 70 68 66 58 50 44 38 33 28 21 14 10 8 10 12 22 38 44 42 41 40 47 51 41 29 36 62 73 79 84 78 77 80 72 61
100 100 100 100 99 91 94 98 98 96 86 77 73 78 77 75 74 66 68 73 67 56 48 42 38 32 25 18 13 9 9 14 24 33 35 34 32 29 29 32 34 34 31 32 60 83 85 74 71 67 66 68 64 53

GFSWCAN_500_rhum_060.txt.gz
RH
18 55 100 99 99 99 98 97 99 98 97 98 98 97 95 83 69 66 60 48 38 19 23 9 5 4 4 3 3 3 4 7 13 25 30 30 34 38 45 52 55 62 66 63 60 56 65 84 87 91 83 83 81 71
20 42 100 99 98 98 91 89 95 99 97 97 98 97 96 88 85 87 86 51 52 34 24 10 7 5 4 4 4 3 3 4 9 18 32 38 45 46 45 50 57 60 75 72 68 60 55 52 51 64 82 96 93 83
48 72 88 100 99 100 100 99 97 98 97 98 97 97 97 93 90 84 74 80 88 51 17 11 8 6 5 5 4 4 3 3 4 9 19 39 66 74 67 52 82 86 90 78 71 60 60 56 53 52 52 46 40 36
96 100 97 96 98 100 99 99 99 97 97 98 97 97 97 96 94 86 65 71 87 49 24 12 10 7 6 6 5 5 4 4 4 3 7 19 32 60 78 78 77 86 89 79 83 76 95 90 76 73 66 55 46 47
100 100 97 97 99 97 87 97 99 97 96 98 96 97 96 95 89 78 63 60 72 53 45 22 12 10 8 6 6 6 5 5 5 4 4 5 11 35 65 74 71 72 70 91 100 100 97 98 96 87 80 69 56 45
100 81 96 97 99 99 100 99 98 96 97 98 97 97 96 97 92 80 65 58 66 59 54 38 14 10 9 8 7 7 7 7 7 6 5 5 5 6 15 30 34 46 54 69 77 87 86 91 93 94 98 96 92 90
78 93 93 99 99 98 99 99 92 95 98 97 97 97 97 97 92 86 74 64 58 63 63 28 14 12 11 9 9 9 9 9 9 10 10 10 10 9 8 8 8 9 16 29 47 62 81 97 100 100 98 96 97 94
74 92 100 100 100 98 99 98 96 96 97 98 97 97 97 97 94 82 74 70 66 64 66 23 16 16 13 11 11 11 11 12 12 13 14 16 17 18 19 20 19 14 9 8 9 17 27 32 39 42 51 53 55 49
84 97 99 99 99 98 99 96 97 96 98 96 96 94 96 95 97 93 83 74 71 68 37 22 20 16 16 15 15 16 18 19 20 21 23 22 20 20 22 22 20 22 26 23 20 14 10 9 10 13 14 18 16 16
88 98 99 98 100 98 97 98 97 97 98 97 95 97 97 94 96 95 90 78 80 64 39 36 25 19 21 20 21 23 25 27 28 33 34 37 40 42 40 37 35 30 27 28 31 33 33 25 19 15 16 14 14 13
93 100 99 100 98 99 97 96 96 97 97 97 93 99 97 97 97 99 95 89 77 56 46 39 32 26 26 27 30 33 34 37 38 39 39 40 50 55 55 51 48 46 45 39 37 39 41 50 62 43 34 32 29 26
93 94 100 100 99 98 99 93 96 97 98 97 98 97 96 96 98 94 96 96 93 56 56 67 57 33 30 32 33 36 43 44 38 35 34 34 40 40 42 46 51 56 58 57 53 52 57 62 70 72 61 48 42 39
100 100 99 99 99 98 97 99 98 98 97 97 90 90 91 93 96 95 95 100 100 88 89 91 70 49 39 38 43 49 47 43 39 38 37 34 34 34 34 36 40 44 52 60 62 63 60 52 46 41 37 29 20 15
100 98 98 98 99 98 98 97 98 94 91 89 90 89 88 95 95 97 100 100 100 100 100 98 80 58 60 58 56 50 42 38 37 38 36 35 34 33 33 32 34 37 44 51 53 52 43 36 30 22 17 15 13 12
100 99 99 100 99 98 97 97 98 92 88 84 88 90 94 97 97 98 96 100 100 100 100 98 80 79 73 64 53 46 40 39 35 33 30 29 29 31 29 28 29 36 44 49 48 46 43 34 26 20 14 11 9 9
100 100 100 99 97 96 98 98 99 100 91 91 92 94 97 97 98 100 100 99 99 100 100 97 91 84 72 58 51 43 39 34 29 27 26 25 26 26 27 29 32 41 48 52 50 42 34 23 13 11 9 10 18 39
99 98 98 97 97 98 98 97 99 96 94 93 86 96 97 98 98 96 93 95 95 100 100 98 95 79 68 56 45 35 28 24 23 23 22 23 24 25 28 30 37 42 45 44 38 24 16 11 10 10 11 21 70 92
99 98 99 97 94 92 94 98 98 92 96 99 95 97 98 98 96 94 100 99 100 100 98 96 92 77 61 42 30 26 26 23 23 22 21 22 22 25 26 28 36 40 41 33 22 14 11 11 11 13 45 66 89 92
98 100 94 98 98 95 95 96 100 97 96 96 97 97 100 98 96 95 98 100 100 100 99 100 96 67 46 34 31 29 24 22 22 22 22 23 26 27 28 33 38 39 31 22 14 11 11 13 14 28 68 100 98 100
100 100 100 100 98 98 98 99 98 97 97 97 98 100 100 97 93 92 97 100 100 99 100 96 75 51 44 42 33 26 24 24 23 23 24 28 28 29 32 35 35 30 22 14 11 15 13 14 20 33 54 87 93 100
97 97 96 99 96 95 90 95 99 99 98 97 99 93 97 93 92 98 100 100 100 100 91 74 59 51 43 35 29 27 25 24 25 26 26 29 30 32 38 38 31 23 17 13 12 14 17 22 22 25 60 64 67 79
82 93 99 100 100 100 100 100 98 99 98 99 100 97 94 92 97 100 100 100 100 93 82 66 50 45 37 31 30 27 25 26 28 29 28 29 35 39 40 36 27 20 16 14 16 19 26 29 24 22 28 60 56 91
100 100 100 99 98 98 96 94 96 97 99 100 99 98 91 94 99 100 100 100 93 82 72 64 55 40 33 32 32 30 29 30 32 34 33 34 35 39 37 30 23 18 15 17 23 26 34 34 25 20 22 48 65 100
99 99 99 98 93 88 87 88 96 98 100 99 99 99 99 97 100 100 100 96 84 79 76 62 43 36 36 36 34 32 33 33 34 40 40 36 35 37 32 26 21 16 18 22 28 34 40 35 23 18 20 37 74 100
99 99 96 91 89 92 96 98 99 100 100 100 100 100 99 100 100 100 96 88 81 81 65 46 42 41 40 38 36 36 35 36 37 39 44 39 38 34 29 23 18 18 24 31 38 44 46 34 22 17 18 27 71 100
97 94 92 84 92 100 100 99 99 100 100 100 99 99 100 100 100 93 88 80 74 64 54 49 46 44 42 39 39 39 40 40 38 38 40 39 36 32 26 19 14 20 34 49 52 54 44 29 20 18 20 25 66 98
96 92 95 97 100 100 100 100 100 100 100 100 100 100 100 100 91 83 77 72 64 55 52 51 48 47 43 42 42 42 39 38 40 38 38 37 33 27 20 14 15 25 46 59 59 45 32 25 21 22 25 48 75 96
95 99 100 100 100 100 100 100 100 100 100 100 100 100 98 90 85 82 76 65 53 52 55 54 53 49 45 44 43 40 37 38 38 38 34 31 26 20 13 13 20 24 30 34 30 30 31 25 28 38 64 78 86 90
100 100 100 100 100 100 100 100 100 100 100 100 99 100 100 96 88 79 61 54 59 60 56 55 52 49 48 47 39 38 39 36 33 29 25 22 16 10 10 16 26 39 48 41 32 31 29 27 43 56 72 88 87 96
100 100 100 100 100 100 100 100 100 99 98 99 100 100 98 88 74 62 61 66 65 59 57 54 52 53 47 41 41 41 34 33 30 24 18 10 8 15 25 30 36 39 38 44 49 46 34 30 46 56 69 93 90 97
100 100 100 100 100 100 100 100 100 97 99 100 100 93 88 80 66 62 66 68 66 61 56 56 53 42 38 36 34 34 34 27 21 12 8 11 14 18 24 30 32 31 30 31 44 43 32 31 46 62 70 84 87 93
100 100 100 100 100 100 100 100 100 100 100 100 100 90 72 68 69 70 72 69 62 58 54 46 41 41 38 35 36 31 24 15 7 8 12 15 19 22 24 26 28 31 33 35 33 28 28 35 54 70 66 71 73 80
100 100 100 100 100 100 100 100 100 99 99 89 72 66 67 70 74 72 66 64 60 53 48 45 43 39 38 37 31 22 12 8 10 13 16 19 21 23 26 30 36 44 48 53 56 60 64 74 84 72 58 58 60 62

GFSWCAN_500_rhum_063.txt.gz
RH
8 7 14 80 98 100 100 100 100 98 98 98 99 97 98 96 54 35 36 36 27 21 15 21 10 5 5 4 4 4 3 3 4 7 10 14 20 19 21 26 30 34 43 47 58 65 63 62 62 70 70 80 82 82
4 7 25 82 95 100 98 100 98 88 96 99 98 98 98 95 46 39 42 46 37 27 20 25 11 8 5 5 5 4 4 3 4 4 5 9 12 17 21 24 32 38 44 57 64 68 68 66 63 57 54 51 54 57
4 6 14 74 100 100 99 95 100 100 99 97 97 96 97 93 47 51 58 59 38 40 45 26 13 11 7 6 5 5 5 5 4 4 4 4 5 9 12 28 32 42 48 54 54 56 61 65 60 59 60 60 60 60
4 10 76 95 99 100 97 94 99 99 99 98 97 98 97 94 77 89 88 66 56 74 69 26 17 13 10 7 6 6 6 6 6 6 5 5 5 4 6 11 27 38 55 69 73 72 74 84 93 99 98 99 99 94
4 49 76 98 100 100 100 100 99 99 99 98 98 96 97 95 90 73 72 75 82 77 53 32 31 20 12 9 7 7 7 7 7 7 7 7 6 6 6 6 7 11 22 28 40 46 50 59 68 86 100 100 100 100
34 83 93 96 99 98 90 89 89 98 99 98 97 98 97 96 90 70 73 63 64 71 52 42 41 22 14 12 9 8 9 9 8 9 9 10 10 10 9 8 9 8 8 8 8 10 12 18 23 39 53 70 83 91
12 68 98 97 98 96 98 97 100 97 99 97 96 97 98 97 94 82 65 54 61 61 62 48 46 30 13 12 11 10 10 11 11 12 13 14 15 16 17 18 19 20 19 19 20 20 18 13 11 11 12 13 20 24
19 93 90 100 97 98 98 97 98 99 98 97 97 97 97 94 86 75 66 62 56 52 57 52 46 29 17 14 12 12 13 14 15 17 18 19 22 22 23 25 27 28 29 29 26 27 27 27 26 22 20 17 16 15
67 83 96 100 98 100 97 98 97 99 97 98 97 97 96 94 93 79 70 68 59 49 56 61 45 25 23 18 16 16 17 18 21 24 26 28 30 33 33 33 29 30 35 36 40 41 39 35 33 34 36 39 41 42
75 71 100 100 99 99 97 96 99 98 97 96 98 98 96 95 95 92 76 64 58 60 66 55 34 22 31 24 23 23 23 27 30 35 37 36 36 30 29 30 29 30 32 38 41 47 50 54 57 56 51 51 55 59
99 98 90 97 99 99 93 97 92 97 95 96 99 99 97 94 94 91 80 75 72 65 70 60 39 30 34 36 32 30 30 32 36 44 42 38 35 35 32 31 31 31 33 35 35 41 47 55 61 64 66 67 66 64
94 99 99 100 100 99 88 87 98 99 97 98 97 97 96 96 95 93 90 88 75 65 64 54 40 37 44 52 45 38 38 42 45 43 37 34 35 33 29 27 26 28 29 29 28 32 39 51 54 53 51 49 47 46
94 100 100 99 100 98 92 100 97 96 97 97 93 89 96 89 85 94 94 96 95 94 87 67 54 57 70 71 64 55 52 50 45 38 35 32 25 21 19 19 20 21 23 24 26 33 38 44 51 54 53 51 42 34
96 98 99 100 99 100 99 98 97 89 91 99 94 88 91 89 90 99 99 99 99 97 96 94 93 92 97 89 72 67 58 50 41 35 27 21 19 16 15 16 15 15 18 21 24 33 45 51 50 44 35 25 18 12
91 100 100 100 100 99 98 98 98 97 98 91 84 83 83 91 96 98 98 95 93 96 95 98 100 100 100 89 79 69 57 47 37 26 22 20 17 16 15 15 16 18 20 24 29 35 40 43 37 27 18 13 11 11
99 100 100 99 97 99 99 97 94 92 89 87 78 87 90 95 94 89 88 87 84 80 81 91 96 100 96 89 81 66 54 39 28 25 23 19 19 18 17 17 18 19 21 26 32 37 38 33 25 19 15 12 11 16
93 99 98 98 100 100 99 98 96 96 92 84 81 86 96 97 98 96 95 86 80 82 86 93 99 99 95 87 76 61 45 31 28 26 22 21 19 19 20 20 22 23 26 30 35 36 33 26 21 17 13 14 15 24
100 99 95 89 94 96 98 95 96 81 90 94 95 99 98 97 96 96 90 84 84 87 94 98 99 100 95 86 75 56 36 35 31 24 22 21 23 24 24 24 23 26 29 32 35 34 29 24 20 14 16 19 18 22
98 97 96 92 98 98 92 86 75 96 99 97 96 95 96 97 95 94 90 85 81 85 93 98 99 95 87 83 73 49 43 38 28 25 23 25 26 25 24 25 27 30 29 30 32 31 28 23 17 15 18 22 19 22
100 100 99 100 100 99 96 81 82 95 95 96 96 97 97 100 100 93 94 86 77 82 91 94 89 84 82 77 62 51 43 33 28 27 27 28 28 27 27 28 30 31 31 33 34 31 26 20 16 18 25 27 21 21
100 100 100 100 97 96 92 88 84 93 97 96 98 98 96 96 98 93 91 83 80 86 85 79 79 82 77 68 58 46 39 32 30 30 30 30 29 32 34 34 30 32 34 35 33 32 23 17 18 26 30 30 23 20
92 95 98 98 99 90 90 92 94 91 92 98 98 98 98 98 97 97 89 81 81 83 79 74 82 81 75 59 55 49 35 35 34 32 29 28 31 34 35 35 33 34 37 39 36 29 20 18 23 30 35 29 22 20
99 100 100 100 99 98 99 100 98 95 95 97 99 99 95 98 97 91 92 92 88 84 72 77 82 78 74 69 60 40 40 38 36 32 29 30 34 34 31 33 33 32 33 36 31 21 18 25 31 45 44 30 18 19
100 99 100 98 95 92 95 96 90 90 96 98 99 100 98 98 100 100 98 98 90 78 74 78 76 74 75 69 48 45 42 37 35 37 32 33 35 34 32 31 31 32 32 28 20 17 28 41 58 69 56 29 17 17
97 97 96 89 89 87 88 91 96 96 98 100 100 100 100 100 100 100 100 100 92 75 82 78 73 74 69 58 51 46 41 36 33 36 41 37 32 27 26 28 29 27 23 15 14 17 26 36 41 46 37 25 16 18
97 92 82 84 81 79 86 98 94 99 100 100 100 100 100 100 100 100 100 99 86 82 81 79 74 69 62 55 49 44 36 33 33 35 39 35 31 29 26 24 20 18 13 11 13 18 24 27 32 24 22 20 20 22
92 84 77 74 86 93 98 99 100 100 100 100 100 100 100 100 100 100 99 94 87 92 86 79 75 68 55 49 45 39 35 35 36 36 36 34 31 28 22 20 15 10 9 13 19 25 29 36 35 23 21 22 25 48
69 80 89 92 93 98 100 100 100 100 100 100 99 93 92 94 100 100 97 97 100 94 84 80 68 56 51 49 43 38 36 35 33 35 34 33 28 22 20 14 9 9 11 15 20 25 28 32 36 28 24 32 54 70
88 90 89 91 96 100 100 100 100 100 100 98 91 88 94 100 100 98 100 100 92 87 80 71 57 52 50 45 39 37 35 32 33 30 30 27 21 20 14 8 9 11 14 18 19 20 23 35 38 30 28 45 61 85
100 99 98 100 100 100 100 100 100 100 96 89 89 95 97 95 100 100 100 95 88 82 67 52 51 52 48 42 39 37 33 32 31 29 27 22 20 12 8 9 14 21 25 26 26 25 26 31 31 27 30 46 54 78
100 100 100 100 100 100 100 100 100 97 90 94 97 99 98 100 100 98 88 81 73 62 54 54 54 50 44 42 40 35 35 34 32 29 23 20 12 8 10 22 35 46 56 60 59 58 53 45 40 39 50 52 47 57
100 100 100 100 100 100 100 100 100 100 100 100 100 100 100 100 90 81 78 73 65 59 56 53 49 46 43 39 37 35 33 32 29 24 20 10 7 9 25 40 53 70 83 89 89 90 93 90 84 76 82 62 38 44
100 100 100 100 100 100 100 100 100 100 100 100 100 100 89 77 76 80 72 65 60 56 55 53 49 43 41 39 36 35 33 30 25 19 9 7 9 23 41 59 71 77 81 85 88 90 90 89 85 82 80 72 42 37

GFSWCAN_500_rhum_066.txt.gz
RH
64 42 6 7 8 25 84 93 99 100 95 100 97 100 97 94 96 54 25 12 8 8 8 8 7 6 5 5 5 4 4 4 4 4 4 6 7 11 16 18 17 20 20 22 26 30 33 41 47 51 56 54 57 61
54 17 5 7 39 85 100 99 100 99 97 98 98 98 99 98 92 52 24 14 11 9 11 15 11 7 6 6 5 6 5 5 5 4 4 4 5 5 8 10 11 16 16 20 22 26 31 38 45 46 54 58 57 55
31 6 5 17 71 95 100 100 97 100 98 99 98 98 97 98 89 44 22 19 14 12 13 21 15 10 8 7 6 6 6 6 6 6 6 6 6 6 6 6 6 7 7 11 20 36 38 48 58 64 65 64 65 70
15 3 5 28 75 98 98 100 97 98 99 98 99 97 95 98 83 37 24 30 23 20 18 22 19 12 10 8 7 7 7 7 7 8 8 8 8 9 9 8 8 8 8 8 7 10 8 14 19 27 37 48 59 64
6 3 6 52 87 100 99 93 98 94 97 99 99 98 94 98 74 34 30 41 37 36 54 46 23 18 12 11 9 8 8 9 9 10 10 10 11 12 12 12 12 13 14 13 13 13 10 9 7 8 9 10 11 19
3 5 18 70 100 99 94 97 98 94 97 98 97 97 94 97 61 36 45 61 51 67 65 57 36 26 17 11 12 10 10 10 11 12 13 14 15 15 16 16 17 19 20 21 22 23 22 22 23 23 22 21 18 16
2 15 91 97 97 97 95 100 98 97 98 99 97 97 99 93 46 71 74 60 79 77 56 44 44 46 29 13 14 15 13 13 14 15 17 19 20 21 22 22 23 24 26 30 32 34 34 35 31 30 29 29 30 30
6 30 88 93 94 99 100 100 100 99 96 94 96 96 98 95 95 78 77 68 60 59 56 50 52 49 42 23 20 18 17 17 17 19 22 25 28 29 28 28 28 28 30 33 36 38 42 44 48 49 53 58 60 60
11 26 64 94 97 100 100 98 98 95 98 95 98 97 97 97 97 88 63 57 52 41 51 55 58 51 47 34 24 24 21 23 24 26 29 32 37 35 32 32 32 31 30 31 30 27 29 30 33 37 47 49 57 64
5 8 56 89 100 100 99 94 95 92 97 97 98 99 89 95 96 80 54 57 52 45 42 55 55 42 48 34 32 35 32 30 33 32 35 40 41 35 33 30 27 25 24 23 23 22 24 24 28 31 36 39 46 51
6 53 90 100 100 100 98 89 86 98 95 94 97 98 99 100 97 97 83 65 54 52 56 56 60 54 50 46 40 43 48 43 40 42 44 42 35 34 28 20 19 18 17 17 15 15 18 22 26 33 42 45 54 58
6 52 96 92 97 98 91 88 92 98 100 100 99 97 99 98 95 92 93 82 58 57 60 60 61 58 50 49 54 65 65 61 54 51 46 39 34 26 20 18 16 15 15 14 14 15 17 21 24 28 35 40 45 45
24 72 72 86 99 92 95 100 98 97 98 99 96 95 97 92 91 89 77 75 74 83 70 64 60 58 53 56 71 81 78 68 63 53 45 37 27 22 20 17 17 16 16 17 18 19 21 24 27 30 39 42 37 29
65 71 76 98 100 100 99 94 98 96 92 97 93 89 96 92 95 87 96 96 92 87 84 84 86 75 73 81 88 86 78 73 63 52 44 30 26 26 20 19 17 19 21 21 20 22 25 28 35 40 41 36 30 26
43 68 81 100 100 99 97 98 96 93 97 92 92 94 95 99 99 96 95 90 90 86 84 86 86 92 88 94 90 80 78 74 65 54 38 29 30 24 21 20 22 24 23 22 23 27 28 32 36 40 37 32 28 21
35 88 90 87 89 92 98 100 96 98 97 99 99 98 100 97 95 94 90 84 86 86 85 86 86 86 93 87 82 78 76 72 64 51 36 36 30 24 21 22 25 24 23 25 27 29 32 35 38 40 36 32 25 19
83 95 93 97 99 98 100 99 99 98 97 96 98 98 100 97 96 90 82 82 81 73 74 77 76 86 84 79 78 77 76 72 65 50 43 42 31 24 24 27 26 25 26 27 27 30 32 37 40 40 37 29 21 21
100 100 99 90 87 97 100 99 98 94 90 97 98 96 93 99 98 92 85 76 71 76 77 77 79 77 79 82 77 74 74 73 69 52 49 39 28 27 29 29 26 25 28 28 29 35 36 39 41 37 30 21 23 29
99 99 94 94 93 100 98 93 98 97 98 98 98 97 97 97 96 89 77 76 81 88 86 79 76 74 73 74 75 74 71 74 62 53 46 35 30 32 32 25 23 24 28 30 33 35 36 40 36 28 21 23 32 40
100 92 85 97 100 100 99 100 98 99 96 98 97 95 94 98 97 85 78 80 88 90 81 71 68 65 66 69 70 68 69 68 58 52 46 35 36 34 26 23 23 25 27 30 32 34 33 30 22 18 24 32 37 46
100 100 97 98 98 98 97 100 98 99 99 97 96 97 99 97 90 79 68 71 80 83 79 73 64 62 62 60 65 66 68 62 57 58 44 41 38 30 26 24 25 27 27 30 30 31 27 17 15 21 28 40 53 65
96 94 94 98 98 97 98 100 100 100 99 96 97 98 100 94 94 83 67 70 74 78 74 65 59 59 60 61 65 71 74 72 69 58 46 44 36 29 27 27 26 27 31 33 31 25 16 12 14 20 24 43 64 72
95 98 99 98 99 92 98 99 98 97 95 96 98 98 98 98 87 78 71 65 64 72 69 63 63 61 60 62 68 72 74 73 58 49 46 39 32 28 28 27 25 23 27 29 24 16 9 11 20 27 30 32 31 31
100 100 100 98 98 98 98 93 92 96 95 97 98 99 99 97 88 83 80 73 68 77 76 71 66 61 60 60 64 66 63 59 53 48 42 36 30 31 28 26 25 26 26 24 16 8 9 14 23 34 44 44 40 35
99 98 95 91 87 90 91 96 92 96 96 99 100 99 100 92 88 89 91 85 75 77 77 74 66 64 62 65 67 68 66 54 50 49 40 34 30 27 26 26 27 26 25 17 8 8 12 13 17 25 33 35 38 22
98 95 94 80 78 86 98 97 97 100 100 98 100 100 98 93 83 84 98 91 80 77 80 77 72 72 68 66 70 69 56 51 46 40 37 32 28 27 24 22 24 23 20 12 8 14 13 12 14 19 29 34 24 22
95 93 84 85 82 91 100 99 100 99 99 100 100 99 92 83 75 93 97 91 89 90 86 82 76 74 76 74 73 67 54 46 42 40 36 32 30 26 23 23 23 20 14 8 21 28 25 17 14 20 28 26 22 25
80 98 98 96 100 100 100 99 99 100 100 100 96 89 83 80 89 94 93 98 96 95 97 91 82 81 80 78 73 60 49 44 43 39 36 32 28 24 25 24 23 15 8 18 32 45 56 52 32 23 24 25 24 30
89 99 100 100 100 100 100 100 100 100 100 98 90 87 86 85 86 88 92 93 97 100 100 95 91 84 78 75 66 51 45 43 41 39 35 32 28 27 25 25 18 8 13 34 43 61 75 82 84 67 42 27 23 31
100 100 100 100 100 100 100 100 100 100 100 92 78 75 74 77 82 85 86 95 100 100 100 88 80 78 75 62 51 47 45 44 41 37 34 30 28 26 23 21 10 8 25 37 54 58 62 73 85 93 91 81 59 30
100 100 100 100 100 100 100 100 100 99 96 88 81 77 81 82 82 89 98 100 100 97 77 76 75 67 58 53 49 48 46 46 41 36 33 29 30 25 23 13 8 19 32 45 49 56 61 62 66 69 72 84 86 68
100 100 100 100 100 100 100 100 100 95 90 86 86 85 87 96 100 100 100 100 88 71 66 63 60 59 57 54 52 51 49 43 38 36 32 32 28 24 16 8 18 34 44 50 58 67 73 77 78 68 57 61 69 80
100 100 100 100 100 100 100 100 98 95 94 88 87 91 100 100 100 99 92 81 70 64 62 64 65 61 58 56 54 50 44 40 40 37 36 30 26 17 9 18 34 44 54 62 73 80 80 82 82 79 78 60 59 65

GFSWCAN_500_rhum_069.txt.gz
RH
88 66 37 9 3 4 30 66 93 95 99 100 98 100 100 94 97 95 39 10 5 4 4 5 6 5 5 5 5 5 5 5 4 4 4 5 6 7 8 8 10 11 12 14 15 16 18 15 17 23 22 28 34 42
76 61 20 4 4 27 65 80 82 98 100 98 97 98 99 97 100 72 28 8 5 5 5 5 6 6 5 6 6 7 7 6 5 5 5 4 4 5 5 6 6 8 7 8 8 11 10 11 11 14 18 20 25 25
59 50 7 3 10 41 65 90 98 100 100 96 100 96 98 97 99 60 21 8 6 5 5 6 6 6 6 6 6 7 8 8 8 8 8 8 7 7 7 7 7 8 8 8 9 9 10 10 10 10 9 9 9 12
44 33 3 5 21 56 76 88 97 98 97 88 94 95 97 99 88 49 18 9 8 7 7 9 9 9 9 7 7 7 7 8 9 10 10 11 11 12 11 12 12 12 12 13 13 13 14 15 16 18 19 18 16 14
41 17 3 27 62 74 84 86 98 99 94 96 98 96 99 98 79 48 17 11 9 9 12 14 11 12 13 9 8 8 8 9 10 11 12 14 15 15 16 16 16 17 18 19 20 20 22 24 26 26 28 28 28 28
28 10 3 18 65 94 98 94 100 99 100 85 85 98 97 92 79 44 18 15 11 11 16 21 22 20 14 14 9 12 13 12 11 13 15 18 20 20 22 22 22 22 23 24 25 25 27 29 32 33 37 39 42 44
19 4 14 44 64 84 100 100 100 96 91 89 95 99 98 98 76 35 21 20 17 21 38 45 34 25 29 21 18 17 17 14 16 18 17 21 24 27 29 28 27 27 28 28 28 28 29 28 28 31 32 31 30 32
23 3 29 76 81 94 100 100 96 94 92 86 94 98 97 97 87 37 25 26 27 47 60 40 36 38 49 32 24 22 20 19 23 21 24 26 29 33 36 34 30 30 30 28 26 23 23 20 18 19 19 23 25 26
21 8 29 55 73 92 100 98 94 95 95 88 93 90 95 92 83 34 34 36 38 62 61 39 43 46 45 36 35 30 26 26 29 28 31 34 35 39 40 34 31 29 25 22 20 18 16 14 13 15 17 20 25 28
11 6 30 45 79 98 100 95 97 99 97 96 96 99 94 96 94 75 70 59 65 67 44 48 50 51 52 44 34 37 42 44 42 44 46 43 45 43 38 33 30 22 20 18 15 15 14 15 18 20 23 26 28 30
8 4 23 47 79 100 89 93 96 92 94 97 94 98 100 96 95 79 65 65 61 51 43 44 54 53 48 44 48 48 49 60 59 53 54 52 49 44 38 32 24 24 20 17 16 16 19 22 23 27 29 32 35 41
6 6 20 82 96 92 87 78 91 99 100 100 100 100 100 97 96 74 70 64 50 50 42 47 48 57 56 59 53 56 61 68 70 65 61 57 51 46 39 28 30 25 20 18 20 23 24 24 27 30 33 35 40 42
5 14 76 97 90 79 86 85 99 96 98 98 96 90 91 91 88 88 80 61 70 55 70 72 58 60 58 56 56 61 67 72 71 69 64 60 55 48 36 34 34 25 20 21 24 26 25 28 30 32 34 35 39 42
4 25 91 86 86 93 100 100 100 97 94 89 95 87 88 82 71 72 83 97 79 94 96 77 66 61 60 68 71 72 71 74 73 72 67 62 58 47 38 40 34 26 23 25 29 27 25 27 31 34 35 38 41 40
4 38 75 77 91 95 100 100 99 93 91 90 97 90 86 83 83 87 96 96 96 91 91 91 75 78 74 76 74 71 74 71 71 68 64 63 59 48 45 44 34 26 28 31 27 24 25 27 30 35 39 37 36 25
3 22 28 63 92 100 100 100 98 85 87 90 90 88 93 91 96 98 96 93 95 97 96 90 84 77 78 71 70 73 70 66 65 66 66 66 64 53 49 43 31 31 34 30 25 24 25 27 32 34 36 30 20 21
4 8 13 41 68 79 100 100 98 86 89 91 91 93 100 99 96 99 98 98 98 96 92 87 80 79 73 64 65 67 63 61 65 66 67 68 65 54 49 40 35 37 34 28 26 25 26 29 31 33 28 16 15 24
5 10 36 60 72 93 100 100 83 84 90 96 97 97 97 97 96 100 97 92 90 87 84 81 72 68 68 62 58 57 57 60 62 63 64 63 60 52 52 42 41 39 32 28 26 25 27 27 29 27 15 11 16 26
12 26 65 82 82 94 100 93 78 85 93 98 97 97 98 98 100 99 95 91 88 85 76 76 77 76 64 58 54 52 53 56 56 55 57 61 56 57 58 47 44 37 32 28 26 26 25 26 27 18 9 9 14 22
51 63 84 87 85 100 100 89 80 91 96 97 99 98 98 98 96 96 94 93 91 85 82 81 80 73 66 57 52 51 50 52 51 52 59 61 61 63 55 46 39 35 31 28 26 26 24 25 18 10 9 12 13 21
100 100 100 97 87 100 92 83 81 92 100 98 97 97 97 92 96 98 97 91 87 87 74 74 75 71 58 53 51 50 50 50 51 53 57 59 56 51 45 37 35 33 30 27 26 25 25 21 12 9 13 13 13 19
100 100 100 93 91 94 93 88 87 94 99 98 97 95 98 99 100 100 98 94 89 75 72 72 67 59 58 56 55 50 48 52 55 59 61 54 52 45 37 34 34 33 31 28 26 24 22 16 10 19 22 14 11 18
100 100 100 96 99 100 100 100 99 100 96 97 99 96 98 95 91 91 90 85 77 70 68 65 62 60 60 60 57 53 53 54 56 56 57 53 43 38 37 35 35 33 30 28 26 23 18 9 19 28 33 20 12 20
100 100 100 100 100 97 100 94 97 100 99 95 90 90 91 88 89 89 86 80 74 69 69 67 64 66 66 64 58 54 54 54 55 57 56 50 44 41 38 37 35 32 30 28 25 21 12 13 26 38 48 33 14 18
100 100 100 100 97 95 96 91 96 97 88 86 89 93 92 93 90 94 90 81 69 70 72 70 73 76 76 69 62 57 58 57 56 58 58 53 47 44 39 38 36 33 30 28 24 15 10 26 36 48 57 58 18 18
100 100 100 99 94 93 100 100 98 97 96 96 97 99 98 98 97 87 92 84 73 70 68 75 80 84 82 76 68 63 60 58 63 66 63 56 48 41 40 40 36 34 31 26 22 11 13 27 34 41 49 66 44 20
100 100 97 94 94 98 100 100 100 100 100 91 91 98 97 91 89 90 89 83 72 66 67 70 86 87 82 78 72 64 65 67 66 65 61 52 44 42 42 39 36 34 29 27 16 10 20 26 36 40 43 52 73 41
98 100 100 100 100 100 100 100 100 93 93 97 100 99 100 93 90 87 74 73 69 68 74 86 90 82 78 74 65 70 72 69 66 62 52 46 44 45 41 38 35 33 29 22 10 16 24 36 45 50 49 46 57 77
97 100 100 100 100 100 100 98 100 100 100 100 100 99 97 90 88 71 64 68 72 83 94 88 81 80 76 66 66 69 66 66 61 52 47 48 49 45 41 38 37 32 25 12 16 27 33 47 56 60 60 49 46 60
99 100 100 100 100 100 100 100 100 100 100 99 94 92 89 85 76 70 68 72 80 84 81 78 81 78 68 66 65 67 66 60 53 51 51 53 48 43 42 41 34 30 16 13 29 35 54 62 60 61 61 59 55 46
100 100 100 100 100 100 100 100 100 100 97 83 80 74 72 68 67 69 77 82 80 81 84 86 80 70 69 66 63 62 58 56 54 53 55 49 42 43 41 36 33 20 14 26 35 52 66 72 70 70 71 72 70 69
100 100 100 100 100 100 100 100 100 98 82 65 59 55 55 60 71 80 84 85 89 92 89 81 73 72 67 63 61 60 58 56 55 56 50 44 44 42 39 35 24 14 24 38 55 64 76 78 75 74 76 80 87 88
100 100 100 100 100 100 100 100 98 97 90 79 76 72 72 74 82 88 88 90 92 89 83 74 72 66 63 64 61 58 56 57 56 49 45 44 42 40 35 26 14 24 38 58 67 71 74 70 63 62 70 85 95 98

GFSWCAN_500_rhum_072.txt.gz
RH
50 45 46 13 3 7 31 42 53 70 95 98 98 99 92 98 98 94 40 10 7 6 4 4 5 6 6 5 4 4 5 5 5 5 6 6 6 6 6 6 6 7 9 9 9 10 11 9 8 10 10 8 9 11
51 52 29 4 7 39 51 70 82 76 97 99 96 94 92 99 100 70 20 7 6 6 5 5 5 6 7 7 6 6 5 5 5 5 4 4 4 5 5 5 5 6 6 6 6 8 8 9 8 8 8 8 10 10
48 51 12 5 16 44 65 59 62 75 86 89 98 99 97 98 96 64 15 6 5 6 5 5 6 6 7 7 7 8 8 8 8 7 8 7 7 6 7 7 7 8 8 8 9 10 10 10 11 11 11 12 13 13
40 40 6 6 37 62 64 77 82 84 85 82 88 96 99 94 88 46 15 6 5 5 5 5 5 6 6 6 7 8 8 8 9 10 11 11 11 13 12 14 14 13 14 14 15 15 15 15 16 16 16 16 16 18
34 24 4 6 38 71 90 77 72 70 76 82 92 100 100 97 77 40 15 7 5 5 6 6 6 6 6 7 6 8 8 9 10 11 13 14 15 16 17 19 19 19 19 21 22 22 23 23 22 22 21 18 18 20
28 17 5 14 43 53 61 74 74 65 67 92 91 96 97 95 83 45 14 8 7 6 7 9 9 10 9 10 12 10 12 12 12 12 13 16 19 22 24 27 27 26 26 26 27 27 27 26 25 21 18 16 16 14
21 14 11 23 41 42 71 62 61 62 75 81 90 99 99 100 73 42 16 9 8 8 10 12 15 17 20 24 22 16 16 15 15 16 17 18 22 25 29 33 33 32 30 28 28 26 23 19 17 14 13 12 13 15
11 8 17 28 40 63 71 66 61 59 75 89 97 96 99 100 75 46 19 13 11 10 15 17 22 32 26 27 22 21 20 20 23 25 27 28 31 33 35 36 38 36 32 30 26 22 20 17 15 14 15 19 22 22
11 4 18 28 53 55 67 60 58 73 82 90 91 91 91 96 82 53 27 20 20 18 31 49 36 31 38 36 35 30 29 31 35 37 40 43 42 43 44 44 42 37 34 28 26 25 20 17 17 21 24 25 26 29
17 7 18 43 51 64 61 59 71 83 85 91 86 90 89 94 82 56 33 26 33 38 45 55 41 33 45 43 39 42 40 43 44 48 52 49 51 53 51 49 45 40 32 32 32 24 20 20 24 28 28 27 29 29
17 16 7 31 48 62 61 82 87 85 82 86 90 96 95 100 96 69 43 38 43 51 61 55 46 46 46 48 46 45 49 51 53 55 56 59 60 57 55 53 48 42 33 36 34 26 22 24 30 29 27 29 31 30
16 22 9 26 55 62 79 84 87 88 86 89 95 92 93 92 96 86 69 48 54 61 65 53 47 49 52 52 53 53 54 54 59 62 62 64 60 58 58 57 52 40 38 41 36 27 28 33 32 29 30 30 29 28
15 22 13 15 33 58 81 78 83 88 83 80 84 87 91 82 81 76 68 70 70 62 57 57 45 72 63 58 62 58 56 57 64 66 68 61 59 58 59 58 54 44 46 45 36 31 35 36 31 30 29 27 26 27
20 18 20 10 55 67 66 80 82 88 85 74 82 87 93 87 75 79 92 81 69 69 80 51 59 78 63 64 62 67 66 61 62 70 70 59 58 56 59 59 59 51 50 48 38 37 40 38 34 32 28 27 26 24
28 23 27 5 27 49 65 76 90 91 87 84 91 74 75 81 93 90 95 91 77 68 83 90 82 94 74 70 70 70 60 58 64 64 57 56 54 54 59 62 63 57 51 50 45 44 44 38 34 30 29 27 23 16
40 35 37 8 15 43 63 86 84 81 88 80 80 69 74 79 84 98 93 95 95 88 89 87 93 89 88 90 77 63 57 58 54 55 53 54 53 54 57 61 60 55 52 55 52 47 41 36 33 30 27 24 16 10
43 46 46 11 21 46 72 95 82 70 75 62 75 79 77 86 88 90 92 92 90 90 92 92 92 97 89 80 68 63 58 54 52 51 52 51 48 52 55 58 58 55 58 58 48 40 36 34 32 30 26 18 11 12
56 57 49 26 85 82 84 96 86 66 56 62 85 87 87 90 92 94 94 90 90 92 88 89 96 90 83 74 67 64 58 53 49 48 49 48 46 48 53 54 56 58 56 47 38 34 36 33 32 28 22 15 12 21
95 76 47 35 87 98 91 89 78 58 58 77 92 93 92 95 98 96 95 94 96 91 91 92 92 86 79 73 69 63 55 47 45 46 48 48 44 46 48 51 53 51 48 37 36 36 35 34 31 26 16 13 14 25
58 42 54 40 54 100 75 79 74 71 81 87 99 94 93 94 97 95 90 90 91 94 96 97 95 84 76 73 71 63 48 44 45 48 47 47 42 43 48 54 54 49 40 40 38 36 36 35 30 21 15 12 20 26
90 100 93 36 50 100 91 84 93 76 80 98 100 97 97 97 99 91 89 92 95 95 96 96 89 80 73 69 66 50 46 46 47 49 49 44 43 46 52 56 54 48 46 43 38 40 38 33 27 20 13 17 27 31
100 100 80 65 79 100 99 95 94 82 97 100 100 98 97 99 99 92 88 83 84 88 94 95 86 74 67 63 52 51 50 49 49 49 46 46 47 48 50 54 56 54 50 41 40 40 37 31 23 18 13 21 34 32
100 100 76 100 100 100 100 100 94 100 100 99 98 98 94 96 95 84 81 86 89 92 95 92 81 65 56 57 58 58 57 54 52 51 50 51 50 50 51 55 57 55 45 42 42 40 36 26 23 12 14 32 34 34
100 98 100 100 99 100 100 100 100 100 100 98 97 94 98 94 94 91 89 94 93 89 94 92 71 61 64 66 65 65 63 59 55 54 53 54 53 52 54 56 56 47 43 44 43 38 30 27 14 13 22 39 38 33
100 100 100 100 93 100 100 100 100 100 97 97 97 96 95 96 93 99 100 100 96 96 91 78 70 71 72 72 72 74 69 58 54 54 52 55 56 55 57 56 47 44 45 45 41 34 28 17 14 18 32 47 48 40
100 100 100 92 93 100 100 100 100 99 100 100 100 100 98 96 99 89 100 100 97 88 80 77 76 80 80 79 78 79 69 58 56 53 51 49 51 57 58 50 47 48 47 40 39 29 20 13 19 27 46 49 48 48
100 98 88 79 93 98 99 98 100 100 100 99 96 100 99 94 83 86 100 98 94 84 74 74 77 83 80 76 82 79 66 59 57 52 47 49 54 56 50 48 49 47 42 41 30 20 11 16 22 47 57 55 55 55
96 82 71 80 99 100 100 100 100 100 99 98 100 98 95 91 94 100 99 94 81 76 77 77 77 74 78 83 82 72 63 60 56 49 49 53 54 51 49 48 46 43 39 31 20 9 12 21 36 57 62 65 65 68
71 69 88 100 100 100 99 100 100 100 99 99 100 100 100 100 100 99 91 88 89 83 77 70 71 79 81 83 76 68 64 58 53 52 53 53 52 50 47 46 43 39 32 20 7 9 17 34 59 68 69 64 62 70
79 91 97 100 99 99 99 100 100 100 100 100 100 100 100 98 94 90 94 94 82 68 69 74 81 84 83 77 72 67 61 56 56 57 56 55 53 51 48 43 41 34 21 7 9 18 41 58 63 56 50 51 55 63
86 100 100 100 100 100 100 100 100 100 100 100 100 96 92 86 85 85 79 75 76 78 77 82 84 81 76 71 70 64 60 60 60 59 58 55 53 49 41 41 36 22 8 7 16 40 57 57 52 53 52 54 54 53
100 100 100 100 100 100 100 100 100 100 100 98 94 87 89 82 80 76 75 70 66 64 72 75 73 74 74 73 68 63 63 65 65 60 58 54 47 40 41 37 22 9 6 12 40 54 52 49 57 56 53 51 44 46
100 100 100 100 100 100 99 100 100 100 95 84 83 83 70 61 56 52 57 58 60 60 61 69 80 83 80 75 68 68 71 68 63 60 54 45 42 42 36 23 10 6 8 35 53 51 50 57 58 54 54 52 51 53

GFSWCAN_500_rhum_075.txt.gz
RH
11 18 10 4 9 27 43 39 42 60 86 96 97 99 90 88 95 66 14 7 6 5 5 4 4 5 4 5 6 6 9 8 6 6 7 6 7 8 6 5 6 7 6 6 6 6 7 7 6 6 6 6 6 6
10 11 5 7 12 30 37 36 48 68 83 90 93 97 99 97 100 55 8 6 5 5 6 6 5 5 5 5 5 5 5 4 5 5 5 5 5 5 5 5 5 5 5 5 5 5 6 6 6 6 7 7 8 8
9 7 7 16 25 29 32 38 48 59 68 72 82 91 86 86 81 23 8 5 5 6 6 7 8 8 8 8 8 8 8 8 9 8 7 7 6 6 6 7 8 8 8 9 11 10 11 12 12 12 13 14 15 15
12 6 5 21 27 36 33 41 48 51 58 78 85 80 84 89 61 16 7 6 5 6 6 6 6 7 8 8 8 9 9 9 10 10 10 11 11 13 11 13 14 14 14 15 17 18 19 20 21 21 20 19 18 17
15 5 5 17 28 30 36 42 42 49 57 70 78 70 76 80 50 17 8 5 6 6 5 6 6 6 6 7 7 8 8 9 10 10 12 13 15 16 18 20 22 21 22 22 23 25 26 27 25 22 20 18 16 13
18 6 13 23 22 32 36 35 42 55 60 69 70 69 68 78 68 28 10 5 5 6 5 5 6 6 8 10 9 9 9 11 10 11 12 15 16 19 23 25 28 32 33 33 32 30 29 27 24 23 18 16 15 14
20 7 5 26 22 29 34 38 43 52 54 59 61 56 62 76 71 33 12 6 5 6 6 7 8 10 11 10 10 13 12 15 16 17 20 23 23 25 30 34 35 38 40 38 34 33 30 25 26 22 19 17 20 27
23 11 7 25 24 29 32 42 45 47 52 63 66 62 54 66 72 42 18 9 7 6 8 11 12 19 19 17 17 22 23 24 27 26 30 33 38 39 42 44 46 46 45 42 38 34 28 31 28 24 21 22 30 31
26 18 6 12 36 37 42 46 40 43 46 58 57 59 63 63 75 49 28 13 9 8 11 16 21 26 38 32 28 31 35 33 34 36 43 45 48 48 50 54 53 51 50 47 43 34 34 37 35 28 27 32 35 34
27 22 11 9 39 50 47 44 39 42 48 56 63 65 68 72 70 59 39 21 14 15 16 25 40 46 42 35 38 42 41 40 41 44 48 48 52 52 54 53 53 53 54 52 46 36 40 44 38 32 33 39 41 39
28 26 17 6 17 34 34 37 40 36 42 48 61 70 74 77 74 68 52 34 30 25 32 38 45 58 41 40 44 46 45 46 49 48 49 56 58 54 49 48 48 51 53 54 50 45 47 48 43 39 42 46 44 39
34 27 23 8 5 22 32 36 47 47 46 57 70 72 72 75 73 66 58 40 37 33 35 46 57 60 49 47 48 51 53 58 55 53 56 59 54 48 42 42 46 49 51 54 57 54 54 52 50 50 51 45 41 36
44 30 30 12 8 8 31 45 48 47 47 53 64 67 68 70 62 52 58 54 49 37 38 45 58 61 55 58 84 62 62 60 62 58 59 54 48 43 39 42 44 45 48 53 59 62 58 54 57 59 47 40 36 34
56 43 38 19 9 6 30 43 42 45 47 48 55 62 68 53 55 67 75 76 66 54 44 71 71 83 80 58 67 78 69 68 61 60 58 50 45 43 40 43 43 42 43 49 55 60 56 59 60 47 38 38 37 33
68 56 42 27 13 11 7 32 49 56 55 55 57 60 54 56 66 76 77 85 80 64 68 81 67 76 91 69 78 95 77 72 65 58 53 49 44 40 38 38 37 38 40 44 50 54 57 55 46 40 41 40 37 28
72 76 56 29 13 20 14 18 40 56 61 61 56 47 57 66 78 88 93 87 89 86 85 80 70 78 87 87 95 94 91 79 63 57 54 47 38 34 36 37 38 37 40 44 48 52 52 48 43 43 43 41 31 22
83 86 42 31 16 21 18 15 42 58 67 58 54 54 63 73 87 90 91 93 90 90 90 84 74 74 87 89 90 89 84 72 63 58 52 41 34 34 37 38 38 38 41 44 49 54 54 49 49 43 41 38 27 13
100 80 40 27 19 19 20 17 21 53 60 57 55 57 70 82 90 88 86 82 86 83 77 81 85 85 87 89 88 88 81 68 65 60 50 36 35 38 38 38 38 40 42 46 54 59 59 58 47 43 40 32 15 10
100 60 34 31 27 36 37 28 13 37 57 62 67 70 82 92 91 90 98 93 85 81 83 84 80 85 88 90 94 86 74 70 65 62 45 38 37 37 38 39 41 44 47 50 54 60 62 51 43 40 33 22 8 10
84 40 34 41 45 61 51 35 17 18 43 58 81 92 84 82 90 97 96 100 98 92 84 82 95 98 97 97 90 80 75 70 67 55 41 40 37 39 42 43 44 48 51 51 52 58 50 43 42 36 29 10 8 9
68 51 55 64 67 67 45 27 24 14 45 67 87 99 85 77 85 94 97 98 96 94 97 98 99 97 94 93 87 79 70 65 60 46 44 40 40 43 43 43 46 50 51 52 54 47 42 43 36 31 15 6 8 13
47 45 72 100 100 98 72 35 19 19 66 84 100 100 93 85 86 89 96 93 90 98 100 100 100 97 96 92 83 73 67 60 52 52 49 44 46 45 44 45 47 47 47 48 45 43 43 38 30 23 6 6 9 22
32 31 63 100 100 100 100 82 48 32 74 100 100 100 100 99 91 95 87 87 98 100 97 100 100 100 99 92 83 71 61 58 59 60 55 50 50 45 45 46 46 46 46 44 44 43 39 31 26 10 4 7 15 37
16 30 38 95 100 100 100 100 69 68 90 100 100 100 100 100 100 92 82 97 100 100 100 100 100 100 98 94 80 63 61 63 71 71 59 56 51 46 45 44 45 46 45 46 46 42 33 28 17 5 5 9 26 42
30 83 100 100 100 100 98 99 88 90 100 99 100 100 100 100 98 85 87 100 99 98 99 100 100 100 97 94 82 71 69 77 88 75 64 59 51 47 46 46 48 47 48 48 45 36 30 23 7 4 7 25 44 48
99 100 100 100 100 100 94 92 86 75 100 100 100 100 100 99 98 86 96 100 99 100 100 100 99 97 97 96 83 81 86 96 90 73 68 58 53 49 47 50 48 50 50 50 40 32 28 12 4 5 26 46 44 39
100 100 96 100 100 94 94 93 82 91 100 100 99 100 100 100 95 90 100 100 100 100 100 97 96 100 100 95 93 95 99 98 79 73 65 55 52 50 53 53 53 53 53 44 33 30 18 5 4 19 42 37 37 40
100 100 93 92 90 81 87 96 85 97 99 100 100 100 98 95 93 100 100 100 100 100 100 98 100 100 100 96 98 100 100 85 73 69 57 52 52 55 56 57 57 57 47 36 31 22 9 4 11 38 38 37 38 42
88 92 82 81 79 86 89 95 81 91 97 100 100 100 100 100 100 100 100 100 100 100 100 100 100 96 94 99 100 100 87 76 72 59 54 56 59 59 61 60 60 51 40 33 27 13 4 6 33 38 38 38 38 46
94 97 81 82 88 92 90 90 83 100 100 100 100 100 100 100 100 100 100 100 100 100 100 100 98 94 100 100 98 91 82 72 61 58 60 63 62 63 61 62 58 44 36 30 17 6 4 20 37 37 39 38 40 47
84 84 86 98 100 99 98 96 98 100 100 100 100 100 100 100 100 100 100 99 100 100 100 100 96 96 95 95 96 86 74 65 65 69 72 67 65 63 65 63 48 37 33 21 7 4 12 38 41 44 46 48 48 48
85 79 82 96 100 100 95 97 97 100 100 100 100 100 99 99 100 100 100 100 100 100 100 96 93 94 100 99 90 73 67 69 75 78 70 67 66 66 65 52 39 34 25 10 4 6 31 41 44 45 46 55 59 52
100 100 100 100 100 98 100 100 100 100 100 100 100 100 100 100 100 100 100 100 100 100 94 92 100 100 99 84 68 68 76 82 83 73 68 67 68 68 54 42 35 30 14 5 4 17 40 44 46 43 42 57 66 59

GFSWCAN_500_rhum_081.txt.gz
RH
19 4 7 6 10 12 14 16 19 28 23 14 10 5 4 3 3 3 3 3 4 4 5 5 5 6 6 6 7 8 9 9 9 10 10 9 7 6 6 5 5 5 4 5 5 5 5 6 8 8 8 7 7 7
17 5 6 8 8 11 13 16 12 17 15 8 5 4 4 3 3 4 5 6 6 5 5 6 6 6 6 6 6 6 6 6 6 6 6 5 5 6 8 9 8 8 10 9 9 11 10 12 11 13 16 16 18 18
16 8 5 10 10 11 11 14 14 11 10 6 4 4 4 4 4 5 6 7 9 9 10 10 12 13 12 11 10 9 10 10 9 9 10 9 11 12 13 16 14 17 18 19 20 18 19 21 22 23 24 24 25 25
19 10 3 6 9 14 13 14 15 14 11 8 7 6 6 6 6 8 8 11 14 16 16 16 16 14 13 13 14 12 12 13 13 14 14 15 16 16 20 22 24 25 27 28 30 31 32 32 33 33 33 33 34 33
21 14 4 6 10 13 12 12 14 16 16 12 9 8 8 8 9 10 10 11 12 12 12 13 12 12 10 10 12 13 13 16 18 18 20 19 23 26 28 30 32 35 36 36 37 36 38 37 38 38 38 39 38 36
24 19 12 4 6 14 18 15 13 14 17 14 15 10 8 7 7 8 9 10 9 9 9 11 19 20 19 15 14 19 20 21 25 30 31 30 33 34 35 39 38 36 36 34 33 33 32 33 35 35 37 38 39 40
30 20 21 12 4 6 13 21 20 16 15 16 17 19 16 8 6 6 6 6 8 8 9 12 17 22 30 36 33 31 36 33 37 37 36 38 39 38 40 41 37 37 32 29 28 26 27 28 30 31 33 34 38 42
37 23 24 24 15 5 8 15 21 19 20 20 16 16 18 24 8 6 5 5 6 6 6 9 14 17 22 29 36 39 37 40 42 42 43 43 42 40 41 42 39 35 28 25 24 23 24 26 28 31 32 33 36 39
46 30 27 25 24 19 8 11 18 23 24 28 26 29 20 18 22 15 10 5 6 5 5 5 6 13 21 24 32 40 40 40 40 42 45 48 46 43 42 42 43 38 31 27 26 26 26 27 28 31 32 34 36 39
50 43 30 28 25 24 19 12 4 13 21 25 32 31 29 31 23 20 22 14 14 8 7 6 7 9 16 25 30 40 44 39 40 43 47 50 52 49 46 44 40 36 35 33 31 29 28 29 30 32 33 36 39 42
60 46 31 31 26 29 20 20 16 5 8 18 24 31 34 30 32 30 21 22 23 25 26 19 10 9 13 21 34 40 47 46 43 44 50 55 56 54 51 44 42 40 39 34 30 30 30 29 31 32 34 37 40 43
70 61 39 33 28 29 29 18 20 18 6 7 21 25 28 36 34 34 28 32 36 32 33 39 29 13 14 19 26 35 47 52 48 51 62 63 63 64 62 50 46 45 42 34 30 30 28 28 29 31 36 39 42 44
73 66 57 43 38 30 35 27 20 25 18 10 7 16 22 32 41 33 32 40 40 37 40 43 48 35 20 22 28 33 38 46 53 52 64 68 71 72 72 59 48 49 43 34 32 28 26 28 28 32 38 39 43 45
84 70 65 55 47 37 32 31 23 28 29 19 12 7 11 19 32 39 40 39 42 45 48 48 51 59 49 28 28 32 38 44 50 60 86 89 80 78 78 66 52 54 44 36 32 28 27 27 31 35 37 38 42 42
92 77 70 67 57 49 39 35 27 29 35 34 24 15 9 6 13 28 41 40 38 40 57 59 54 60 71 61 35 33 39 46 52 64 90 92 86 82 81 66 55 55 46 38 33 29 28 31 34 36 38 41 42 42
95 86 89 75 65 54 51 41 36 33 36 41 38 26 16 10 7 10 31 43 47 43 47 66 67 58 64 67 64 54 43 44 51 69 78 83 90 87 84 68 58 56 46 39 36 31 31 34 38 40 42 44 43 36
93 99 95 83 73 65 61 48 44 38 27 40 48 32 22 13 8 7 15 46 58 64 65 81 83 75 59 60 67 79 66 47 57 76 85 86 88 94 90 73 61 58 45 43 41 36 36 38 40 42 45 45 41 29
98 100 97 89 80 82 77 62 52 37 30 47 57 47 27 16 12 8 7 20 59 77 86 94 86 81 67 58 80 93 91 80 79 81 66 70 82 98 96 81 66 59 46 48 48 44 42 42 42 44 47 44 35 24
100 99 97 93 96 94 84 72 61 45 38 50 61 56 34 22 16 12 8 6 21 48 77 79 81 65 76 97 100 96 97 98 98 95 83 75 85 99 98 95 75 56 50 55 56 50 46 43 44 47 46 41 29 21
100 100 96 97 97 97 89 72 61 54 46 48 64 70 53 31 21 14 10 7 6 17 36 59 73 79 100 99 99 100 100 100 99 98 99 99 98 98 98 98 86 59 58 65 62 53 46 45 47 48 42 36 26 20
100 98 98 98 96 96 91 79 69 58 58 57 69 74 69 56 27 19 15 10 8 5 11 51 69 100 100 100 98 100 100 100 99 100 99 98 98 100 98 98 92 65 70 75 64 52 48 47 49 47 39 31 25 18
100 100 100 98 98 96 93 84 77 63 60 63 70 77 70 63 50 28 20 19 14 9 8 33 84 95 98 100 98 98 100 98 99 100 98 99 100 99 98 98 85 74 83 80 62 54 50 50 51 46 37 30 25 15
100 99 100 100 100 94 80 71 72 66 64 63 69 72 73 70 62 57 44 30 16 22 28 23 81 96 98 100 100 98 100 100 99 98 97 100 100 99 99 98 83 87 93 77 61 55 52 54 52 42 35 30 25 13
100 100 100 100 93 86 73 67 62 68 68 72 74 75 78 80 65 54 38 24 18 27 50 39 50 100 100 98 100 100 99 99 99 94 100 100 100 99 99 97 94 99 97 74 60 57 57 56 49 39 34 31 23 10
100 100 99 93 83 70 66 62 70 75 71 70 78 86 86 74 51 35 27 19 26 40 76 66 36 86 100 100 100 99 96 99 97 100 100 100 100 100 99 99 100 100 90 68 61 62 62 55 44 38 34 30 19 6
98 88 85 79 80 83 74 75 74 76 86 94 96 90 71 44 34 27 20 22 36 65 94 76 51 88 100 100 100 99 99 99 100 100 100 100 100 100 100 100 100 99 77 66 66 67 60 51 41 38 34 27 12 4
97 83 69 74 81 80 82 82 89 99 100 99 80 58 38 32 26 19 25 34 57 95 98 79 76 100 100 100 100 98 100 99 100 100 100 100 100 99 100 100 100 87 72 74 74 67 57 48 41 39 35 18 6 5
85 85 84 86 91 89 95 100 100 97 91 89 65 36 28 21 17 28 43 59 89 100 100 92 100 100 100 100 100 100 98 100 100 100 100 100 100 100 100 100 98 79 81 82 75 64 54 45 42 40 26 9 4 6
80 77 80 84 94 99 96 91 91 96 73 40 30 27 23 30 38 52 83 100 100 100 100 100 100 100 100 100 98 98 100 100 100 100 100 100 100 100 100 100 89 88 90 83 72 59 49 44 43 33 12 4 4 11
98 100 100 97 93 94 91 76 52 37 30 35 43 52 62 64 72 90 99 95 95 100 100 100 100 100 100 100 100 100 100 100 100 100 100 100 100 100 100 98 96 97 89 78 65 53 48 47 39 18 5 3 7 19
80 63 50 50 56 64 60 48 40 44 52 64 80 86 81 83 90 95 97 85 94 100 100 100 100 100 100 100 100 100 100 100 100 100 100 100 100 100 100 100 100 94 83 71 58 54 49 43 26 7 3 4 13 24
31 33 59 76 81 63 54 54 61 71 76 82 85 86 81 79 76 86 94 86 99 100 100 100 100 100 100 100 100 100 97 96 100 100 100 100 100 100 100 100 99 87 75 64 59 55 46 33 12 4 4 7 18 26
60 90 97 94 66 55 56 55 58 58 70 79 82 79 79 79 74 84 90 100 100 100 100 100 100 100 100 100 100 98 99 100 99 100 100 100 100 100 100 100 92 81 70 66 62 50 38 16 4 4 5 13 23 27

GFSWCAN_500_rhum_087.txt.gz
RH
63 69 35 6 8 14 7 3 2 2 3 4 6 5 5 10 13 13 13 12 9 9 7 6 6 6 6 7 7 7 8 7 7 7 7 8 10 11 12 14 14 18 18 19 19 22 20 24 23 25 25 26 24 20
64 56 56 15 4 10 16 5 3 3 3 3 5 5 4 6 12 16 19 20 21 20 18 17 15 13 11 10 11 12 12 13 14 14 15 17 20 21 23 23 24 24 26 26 24 22 23 21 19 18 15 14 15 14
64 69 62 29 9 4 13 14 7 4 3 3 5 6 4 7 11 15 20 24 25 25 25 24 23 20 20 19 21 20 22 21 24 25 24 26 23 26 28 25 26 25 21 20 20 18 17 16 15 14 14 13 14 15
57 65 67 46 15 6 6 14 14 8 5 4 4 5 5 8 11 16 17 18 22 26 29 31 32 32 34 34 32 32 32 31 31 30 29 29 29 30 29 27 22 18 16 14 14 13 15 16 16 15 16 16 16 17
56 60 75 58 29 11 5 8 15 16 12 7 6 4 5 8 10 13 16 17 16 18 19 24 31 34 34 34 35 35 35 34 32 30 28 29 30 31 32 31 29 26 20 17 16 14 14 15 16 17 17 18 18 18
56 60 62 65 50 20 11 6 6 14 16 16 10 9 8 9 10 11 12 13 14 13 12 18 20 21 26 30 35 35 35 34 35 36 35 36 38 41 40 37 34 30 27 24 20 19 20 21 20 18 19 20 19 19
56 61 61 64 58 36 16 12 7 5 10 14 18 18 16 13 12 10 11 11 11 9 10 10 10 14 16 17 20 24 28 35 35 35 36 35 36 38 45 45 38 34 32 30 29 29 30 31 28 22 20 22 21 22
50 59 64 64 58 46 30 22 16 8 5 7 15 18 19 22 21 21 14 11 9 9 7 6 7 8 7 6 7 11 17 25 28 34 36 36 38 38 40 46 48 49 47 43 38 37 37 37 35 27 24 25 24 24
48 59 60 71 71 55 35 29 28 16 13 6 6 13 17 19 24 26 25 22 19 17 11 10 7 5 6 6 6 5 8 12 16 23 29 34 42 42 41 44 50 55 60 61 60 52 47 44 44 39 30 30 27 27
52 54 59 70 73 78 57 38 34 30 20 15 9 5 6 12 18 23 26 27 26 27 24 25 22 19 16 10 7 7 7 8 8 10 14 20 37 43 45 48 54 62 65 70 71 71 69 61 52 50 44 37 31 30
57 56 55 72 78 87 78 58 43 40 31 24 16 13 10 7 6 8 18 27 31 28 29 31 35 35 35 36 34 32 24 19 15 12 10 13 24 38 45 49 54 60 69 80 80 78 77 75 67 58 56 47 37 36
46 64 56 70 88 88 94 78 56 48 42 33 25 19 16 13 11 8 6 10 18 30 31 31 32 31 30 27 26 26 28 28 31 30 30 28 18 21 32 40 49 57 75 96 93 92 89 85 80 71 65 58 44 43
27 54 65 70 88 95 99 95 76 63 56 46 36 28 23 21 18 14 10 7 10 12 22 21 22 22 25 28 30 33 32 36 42 48 62 76 75 44 24 27 37 48 66 89 92 97 98 98 97 92 84 79 58 53
53 55 78 71 93 100 100 100 94 80 68 59 49 39 33 30 28 24 22 15 11 10 7 8 8 9 10 12 17 24 30 36 39 37 48 64 69 82 77 34 28 32 42 59 68 67 73 96 96 97 99 98 79 70
100 99 100 87 87 100 100 100 99 92 81 71 56 55 46 41 38 29 27 29 21 19 18 13 8 8 8 7 9 10 19 33 47 49 50 46 63 79 84 93 79 49 37 39 42 49 59 89 98 97 97 98 95 88
100 100 93 91 90 99 99 100 98 95 90 78 59 73 74 60 49 45 34 40 37 31 27 21 18 14 11 9 7 8 9 22 34 51 57 60 66 78 82 90 99 100 98 88 74 54 55 81 97 99 100 99 99 94
100 94 98 100 100 99 99 98 100 92 82 58 80 92 90 82 67 56 56 54 51 47 42 35 32 25 12 10 11 11 11 12 29 50 61 67 84 78 71 77 82 90 100 100 99 98 97 98 100 100 100 99 100 99
98 98 100 100 100 99 98 99 98 89 68 59 98 99 95 96 94 85 76 69 65 59 54 54 49 40 18 13 16 11 9 12 9 16 31 52 65 64 81 98 95 93 96 100 100 100 99 100 100 100 100 100 100 99
98 100 100 100 100 100 100 98 97 83 69 65 91 98 96 97 98 94 90 86 84 76 62 62 66 62 41 21 18 17 16 11 9 11 18 34 55 66 79 93 100 100 100 100 100 100 100 100 100 100 100 100 100 100
100 100 100 100 100 100 99 98 96 87 60 58 81 99 96 95 97 96 94 90 82 63 54 63 80 91 76 65 41 24 22 26 18 14 10 13 21 49 80 94 100 100 100 100 100 97 100 100 100 100 100 100 100 100
100 100 100 100 100 100 100 95 91 88 71 57 72 87 96 98 97 97 97 94 70 58 72 99 98 94 84 75 67 58 45 46 46 27 17 17 16 15 26 73 100 100 100 100 100 98 100 100 100 100 100 100 100 100
100 100 100 100 100 98 100 90 79 74 73 67 72 75 87 96 98 98 96 86 75 83 100 100 93 81 77 75 70 65 67 64 66 62 45 38 30 25 20 22 48 99 100 96 94 99 100 100 100 100 100 100 100 100
100 100 100 100 100 99 98 94 86 82 78 72 76 69 68 78 91 99 86 72 73 98 100 94 85 71 60 68 66 68 72 68 66 67 68 68 61 46 36 32 38 75 100 96 91 100 100 100 100 100 100 100 100 100
100 100 100 100 100 98 91 88 89 86 77 80 82 75 73 72 80 80 57 57 77 99 92 82 63 57 69 71 64 69 76 70 65 68 72 72 63 46 40 36 38 51 97 97 100 100 100 100 100 100 100 100 100 100
100 100 100 98 96 94 91 86 81 77 74 74 81 82 73 71 67 60 52 58 99 87 74 67 62 53 56 66 71 73 70 64 59 57 67 68 56 38 37 45 50 74 69 99 100 100 100 100 100 100 100 100 100 100
100 100 98 91 90 88 74 76 76 72 73 72 71 75 76 75 69 53 46 90 88 76 65 55 59 68 68 65 64 68 68 64 54 51 61 64 52 34 37 55 63 60 76 100 100 100 100 100 100 100 100 100 100 97
100 93 89 85 88 89 84 82 82 80 74 71 76 79 80 78 62 60 92 96 69 53 49 49 53 57 57 57 54 48 45 47 48 49 36 22 20 29 47 64 64 62 96 100 100 100 100 100 100 100 100 100 100 87
94 87 91 92 98 96 97 99 100 100 87 81 83 73 75 72 74 95 83 66 59 56 49 49 52 51 49 45 40 38 42 48 41 23 10 14 23 46 68 76 78 96 100 100 100 100 100 100 100 100 100 100 100 77
91 93 100 98 100 100 96 96 94 89 82 80 80 81 80 82 81 78 74 62 55 53 51 49 46 42 38 35 37 43 45 34 19 9 11 20 41 68 95 100 100 100 100 100 100 100 100 100 100 100 100 100 97 62
98 100 100 100 100 98 99 100 100 100 100 100 99 88 74 73 78 75 62 56 55 56 53 45 39 36 40 43 43 33 18 10 10 12 24 51 78 100 100 99 100 100 100 100 100 100 100 100 100 100 100 99 85 44
97 98 100 99 95 97 98 97 91 87 92 92 90 89 87 82 75 63 53 54 51 47 45 47 48 49 46 37 20 13 13 12 18 32 46 90 100 100 100 100 100 100 100 100 100 100 100 100 100 100 100 96 58 22
86 93 99 93 84 85 90 90 100 100 97 92 90 88 81 69 51 46 53 52 56 62 63 58 52 41 27 16 15 17 31 39 40 60 94 100 100 100 100 100 100 100 100 100 100 100 100 100 100 100 99 73 32 7
96 99 96 96 98 100 100 100 100 100 99 91 77 68 60 51 44 48 60 71 73 68 60 50 32 18 16 20 42 55 63 56 69 100 97 98 96 96 100 100 100 100 100 100 100 100 100 100 100 99 82 44 12 3

GFSWCAN_500_rhum_093.txt.gz
RH
54 55 62 64 64 60 15 7 7 3 7 6 8 12 14 16 19 20 21 21 21 22 22 23 23 22 22 21 19 19 17 17 19 20 21 24 23 22 23 22 22 21 21 20 20 20 21 16 16 14 14 13 14 14
53 53 60 67 59 61 55 12 7 7 3 6 6 8 13 16 18 22 24 21 23 24 25 26 26 28 26 26 25 26 26 26 26 26 28 28 28 28 25 23 21 20 16 15 16 18 17 18 18 18 18 18 18 18
47 49 54 59 59 55 59 52 10 6 8 3 6 6 8 13 18 21 23 25 26 26 27 28 31 31 33 34 34 30 26 28 28 28 29 30 30 31 32 30 27 23 19 16 16 16 14 14 16 16 16 16 17 17
44 51 53 51 57 59 52 57 46 8 6 10 4 6 6 8 13 17 20 20 21 24 28 31 32 33 34 37 37 37 36 35 34 34 36 38 38 38 40 38 34 28 25 23 21 20 19 20 20 21 22 23 25 26
42 50 50 56 51 58 59 56 60 38 8 6 13 7 5 6 6 11 16 18 18 17 20 24 29 29 32 34 35 35 36 36 36 35 36 36 36 36 38 38 37 37 34 32 32 31 30 29 28 29 30 32 33 33
36 42 56 49 56 54 60 62 60 60 25 10 6 14 15 6 5 5 7 10 15 17 16 16 15 17 21 23 24 23 24 24 26 28 31 34 33 34 37 38 32 35 39 39 41 42 45 46 45 44 42 42 44 46
38 40 44 54 56 54 57 65 68 63 54 22 8 7 8 17 14 10 8 6 10 12 14 16 15 13 13 13 12 11 12 12 11 10 9 15 17 19 22 30 29 33 38 42 43 45 50 52 58 61 66 68 70 72
40 42 38 42 50 61 59 61 68 63 66 51 23 10 9 7 11 14 15 15 12 10 11 11 12 13 12 12 11 9 8 8 7 7 6 6 6 7 8 9 10 13 18 29 39 42 45 51 57 64 69 74 83 88
56 40 34 36 45 51 58 55 58 64 62 68 50 26 13 11 8 7 6 7 8 10 10 18 18 14 11 11 12 11 10 9 8 7 7 8 12 12 14 18 19 23 27 24 16 17 31 42 46 55 65 67 71 85
53 50 38 36 43 44 52 67 63 64 60 63 70 52 30 16 12 10 9 8 7 6 6 7 13 20 18 19 18 15 15 16 15 16 17 19 21 21 19 19 19 21 28 35 49 46 26 32 41 44 45 46 51 58
58 53 42 40 41 43 44 53 75 70 69 64 67 74 57 37 23 14 11 12 10 9 7 7 6 6 13 14 16 16 17 16 16 18 19 16 20 18 16 13 15 19 23 33 43 62 65 51 47 40 39 43 58 74
58 52 46 43 41 44 53 56 68 77 86 68 68 75 75 64 48 36 22 14 12 13 12 7 6 6 6 6 7 8 9 8 9 11 11 10 10 9 9 8 9 11 17 35 45 56 69 82 78 77 88 90 97 100
62 58 52 58 52 43 58 76 79 77 92 94 95 86 72 71 56 51 46 24 16 15 16 15 11 9 8 9 8 8 8 8 9 11 10 10 11 13 13 6 10 8 10 29 45 47 50 66 84 91 94 99 100 100
79 90 90 100 99 91 100 100 94 95 99 98 94 93 98 62 54 70 70 54 35 24 20 20 19 16 13 11 10 9 10 12 13 13 12 17 19 19 18 11 10 8 10 13 24 35 44 52 57 67 73 76 84 83
58 88 96 100 100 100 100 100 100 100 100 100 92 77 53 79 100 100 91 77 65 49 32 27 26 25 22 18 15 14 12 12 17 19 16 17 22 24 15 12 23 11 10 12 13 16 20 28 37 39 43 47 48 67
17 57 84 96 100 100 100 100 100 98 97 99 81 64 68 100 100 98 100 90 80 73 58 45 37 34 31 29 25 25 23 20 25 27 27 22 27 26 29 21 31 29 16 20 15 17 19 25 28 25 23 24 25 42
4 33 59 97 100 100 100 100 100 100 100 92 67 66 84 100 99 95 98 100 93 85 77 68 58 50 44 42 38 40 39 38 36 35 36 36 37 43 41 42 43 43 46 43 38 37 40 45 51 55 56 49 40 34
2 6 27 69 100 100 100 100 100 98 90 83 64 72 100 99 98 95 98 100 99 98 96 79 70 62 62 66 62 74 58 54 52 51 52 56 59 57 58 56 54 55 54 52 52 52 59 64 68 70 72 73 55 39
2 2 5 16 90 100 100 100 100 93 85 86 73 78 100 100 100 99 97 98 97 93 89 84 77 66 98 98 98 84 68 58 59 65 67 58 52 52 63 64 59 60 63 64 66 65 63 65 66 66 74 84 71 45
4 3 15 23 30 97 100 100 100 98 91 86 83 81 100 100 100 97 96 97 100 90 67 59 79 100 99 97 91 85 78 72 68 61 53 56 56 52 56 56 58 56 65 72 80 83 76 72 69 70 80 86 64 48
5 5 96 100 100 100 100 100 98 95 95 95 88 91 99 100 100 99 97 99 97 70 54 69 99 99 96 94 94 90 84 79 69 58 61 63 64 54 54 57 55 64 66 74 82 82 75 70 63 73 84 86 57 64
8 7 33 100 100 100 100 99 98 90 98 90 98 96 98 100 100 100 100 94 74 66 70 92 100 96 94 97 98 88 85 80 73 64 58 51 51 58 59 59 55 58 60 66 72 72 71 62 60 70 67 61 62 95
10 9 67 100 100 100 100 100 100 95 93 94 99 99 89 99 100 100 94 74 66 76 94 100 99 97 90 95 90 98 99 83 63 53 49 48 47 48 43 41 41 44 53 60 62 62 59 54 57 54 45 47 67 100
9 10 26 92 100 100 100 98 94 96 93 89 96 88 75 80 98 100 90 73 81 96 100 100 96 92 88 83 92 98 95 74 50 47 44 38 37 38 30 29 26 31 43 50 53 50 47 46 42 33 32 50 92 100
12 14 21 100 100 99 98 96 95 96 96 94 95 88 82 82 94 91 75 76 93 100 100 93 80 85 94 89 87 94 96 80 61 50 52 38 32 32 33 29 32 39 47 48 43 40 40 36 23 23 37 88 100 100
18 18 17 32 80 93 93 98 95 99 97 92 92 97 99 92 82 62 58 82 100 100 93 93 88 83 85 93 91 84 86 80 58 52 52 48 46 39 34 33 37 45 43 40 39 39 36 21 19 22 55 92 100 100
25 40 24 74 97 89 86 95 100 94 87 86 88 94 100 98 78 56 72 98 99 98 98 96 96 94 96 93 89 78 68 63 54 48 48 52 47 40 36 34 40 42 40 38 37 33 24 18 23 42 90 100 100 98
26 17 14 36 78 80 69 85 100 100 96 98 100 98 88 83 70 82 96 100 100 100 97 94 89 91 88 84 88 90 81 66 54 50 40 37 39 35 27 30 39 40 39 39 36 29 18 19 49 96 100 100 98 97
12 10 13 58 80 69 49 74 97 100 82 80 92 100 90 99 100 100 100 93 84 91 89 89 92 85 78 78 76 68 63 60 55 49 40 38 32 26 25 32 38 41 42 38 29 16 18 35 97 100 100 93 94 95
12 11 22 67 88 84 48 52 80 91 100 100 100 100 91 95 100 100 100 84 87 87 85 82 79 81 75 67 63 61 57 53 52 44 40 37 29 26 32 37 40 42 39 28 16 18 37 96 100 100 98 90 94 100
13 12 38 70 76 92 92 63 54 66 90 100 100 99 98 100 98 95 88 94 96 84 77 80 88 85 74 67 61 57 58 56 50 44 35 29 24 32 43 45 44 38 26 18 22 52 99 100 98 86 86 96 100 100
12 32 89 90 71 96 100 97 55 56 98 99 96 96 89 84 74 77 88 90 86 83 84 85 84 83 77 68 60 56 49 41 31 28 30 34 46 56 53 43 30 20 24 40 88 100 100 90 74 81 98 99 100 100
13 38 90 100 97 76 54 65 92 84 92 98 86 84 90 87 69 72 78 86 93 98 89 86 82 76 78 75 61 55 48 42 41 47 52 56 56 46 30 20 21 37 68 91 97 90 91 84 83 87 98 100 100 100

GFSWCAN_500_rhum_096.txt.gz
RH
38 41 43 53 72 72 63 51 46 15 5 6 8 13 16 18 19 21 22 21 22 24 24 23 23 22 23 23 23 23 22 22 23 24 24 25 24 22 22 19 18 16 14 15 17 18 19 19 18 18 18 16 15 16
34 37 37 39 61 74 72 56 48 45 14 6 5 7 11 17 18 21 23 24 25 25 24 25 25 24 25 25 25 26 27 28 29 29 30 30 31 31 30 28 24 22 18 18 17 17 15 15 16 17 17 17 17 17
34 33 36 40 44 67 74 69 56 48 46 15 7 4 7 10 16 17 22 24 27 27 28 28 31 30 30 26 23 25 25 29 30 31 33 34 35 32 34 35 32 30 26 25 25 22 21 20 20 21 21 22 22 24
34 32 33 37 41 57 77 72 68 61 52 46 19 7 5 6 7 13 16 19 20 24 26 29 33 34 33 35 33 34 34 34 34 35 35 36 34 36 36 34 31 26 29 30 30 27 30 31 31 31 30 30 30 32
36 33 32 39 36 43 55 72 73 65 62 58 47 27 7 9 4 6 7 12 16 16 18 18 21 23 28 27 30 32 34 30 30 30 30 31 32 31 35 36 32 24 31 36 37 38 39 42 44 45 48 48 49 50
42 38 33 35 41 39 44 49 67 74 69 67 60 48 35 6 9 9 5 5 5 9 14 16 14 16 14 12 15 22 24 23 22 21 20 16 14 15 15 17 22 20 15 13 15 20 27 33 39 43 47 52 57 62
45 42 36 34 40 41 43 46 53 63 76 70 71 57 48 33 8 6 11 11 7 5 5 6 11 14 16 15 14 13 13 12 12 11 9 8 7 7 7 7 8 9 10 13 16 19 21 23 22 25 31 39 45 50
47 48 39 39 40 42 52 47 50 55 69 78 71 66 53 51 24 8 6 7 9 12 11 10 8 9 10 12 13 13 13 13 12 12 12 11 10 8 8 12 16 21 21 20 18 20 26 32 39 44 34 30 35 40
49 45 50 43 42 44 47 55 55 54 58 68 70 68 62 58 51 16 10 7 6 6 6 6 8 12 14 13 12 11 10 10 10 10 9 8 10 10 12 14 15 13 10 9 7 8 11 18 29 46 63 48 35 38
40 49 47 52 46 47 49 52 58 64 60 64 64 68 64 59 61 49 22 14 10 8 8 8 8 6 7 7 7 8 10 13 13 15 16 14 16 17 16 13 11 7 7 6 10 8 8 11 28 43 53 62 75 86
50 43 48 45 52 51 47 44 50 55 66 69 71 63 63 58 56 63 53 31 18 12 10 10 9 8 7 6 6 5 5 5 5 7 8 8 12 12 10 10 8 9 6 14 14 6 7 8 19 42 53 62 61 60
40 38 41 44 45 46 57 52 42 42 58 71 66 75 69 64 55 62 60 58 46 26 15 12 11 11 10 8 8 7 7 6 6 7 7 8 10 10 10 10 11 19 15 19 24 11 13 14 10 16 22 28 32 35
9 13 24 31 46 76 76 72 62 56 65 89 75 81 77 72 52 35 51 75 81 59 39 24 16 13 14 13 12 11 11 8 7 8 8 9 11 11 11 13 19 20 24 21 29 15 15 24 17 14 15 17 21 24
2 2 4 26 60 90 96 94 86 72 98 99 93 77 82 56 42 49 63 82 90 86 78 57 34 19 16 17 17 17 17 17 16 12 10 10 13 15 17 14 19 26 29 17 23 33 20 27 31 27 28 32 40 50
1 1 1 4 27 55 78 89 99 100 100 100 93 85 53 57 54 68 91 90 88 82 84 85 70 46 33 25 22 22 23 20 19 19 20 19 15 15 20 26 23 31 37 39 44 44 45 45 48 51 53 57 61 71
2 2 2 2 4 16 38 74 100 100 100 100 90 72 56 67 81 92 100 100 97 84 75 86 92 81 71 55 43 35 33 33 26 25 25 28 29 28 28 32 36 41 47 48 51 48 46 47 49 53 57 63 70 72
3 2 2 2 2 4 14 97 100 100 100 99 86 79 75 74 87 100 100 98 100 89 81 80 79 100 86 79 78 72 69 52 40 37 34 35 39 40 43 44 47 55 58 52 52 51 51 54 57 56 58 65 70 74
4 4 4 3 3 6 58 100 100 100 98 80 92 90 91 95 99 100 100 98 97 98 97 86 74 72 69 80 98 99 84 70 65 58 54 54 54 57 60 64 66 69 62 57 53 55 51 51 58 58 60 67 64 70
6 5 5 4 4 5 14 67 100 100 94 98 100 100 100 100 100 100 99 100 99 100 98 92 65 44 70 96 99 98 92 78 70 64 64 63 67 69 71 74 77 74 72 67 59 58 51 49 53 42 51 62 73 77
9 8 8 8 11 26 30 94 100 100 92 84 92 99 100 100 100 99 100 100 100 100 97 70 54 65 99 99 97 98 96 88 77 71 66 69 71 77 89 91 73 66 70 67 63 58 51 42 32 32 45 63 70 65
12 11 13 15 12 10 33 100 100 100 88 89 97 100 100 100 100 100 100 100 100 92 85 67 68 100 100 97 95 95 94 94 84 72 74 82 94 92 93 81 72 66 64 60 56 43 35 34 34 35 52 58 56 54
12 15 15 15 13 15 47 100 100 90 91 85 90 100 100 96 100 100 100 100 96 82 77 77 88 100 99 95 95 92 94 95 93 88 85 82 86 93 89 92 84 72 58 52 46 36 29 34 31 42 51 49 49 46
14 13 15 16 16 19 38 100 100 96 99 78 68 70 81 94 100 100 99 91 77 82 87 86 94 100 94 98 94 87 99 100 90 91 81 81 95 95 80 76 70 53 44 47 42 39 34 31 31 44 48 45 42 36
20 17 15 17 19 22 16 58 100 100 98 89 78 75 62 80 98 100 95 84 80 97 100 100 100 98 94 84 82 99 100 95 82 81 82 82 92 92 74 74 69 56 44 45 42 36 25 23 29 43 44 43 36 24
19 24 50 100 58 24 25 20 94 94 81 90 96 86 74 83 99 97 79 84 98 100 100 100 99 95 88 80 73 83 99 83 86 77 83 86 88 98 99 93 87 78 59 41 36 26 24 28 35 40 43 41 30 20
22 37 71 42 29 19 23 44 19 75 71 80 91 88 83 99 100 78 65 71 81 100 100 99 89 86 79 79 71 74 88 88 78 80 95 85 86 90 94 93 84 60 42 36 32 29 30 32 36 40 41 33 22 19
37 66 31 20 17 16 14 11 13 49 81 82 74 80 100 100 90 55 60 66 75 92 98 99 100 97 93 88 73 68 75 78 81 90 92 93 91 86 78 73 70 57 45 42 40 37 32 30 30 36 38 27 20 39
37 33 37 28 19 15 14 11 12 15 61 89 78 74 69 61 48 54 63 80 80 86 100 100 100 99 97 88 78 75 76 80 92 96 99 100 98 93 86 82 69 57 56 50 43 34 26 26 35 41 30 20 47 75
22 18 18 18 16 15 13 11 8 8 10 33 72 70 61 64 64 90 100 100 94 91 95 98 100 96 90 89 84 88 91 94 97 95 91 91 88 80 64 63 61 61 53 44 30 23 24 36 42 29 18 49 81 86
10 10 12 14 15 13 10 10 8 25 75 97 98 64 77 76 64 80 75 80 92 89 86 98 98 87 82 84 87 87 90 89 89 88 84 80 76 72 65 61 58 52 36 28 25 27 40 41 25 18 27 68 88 78
11 9 9 10 12 12 12 10 10 30 82 96 100 81 63 83 96 98 86 63 61 86 86 95 98 91 85 87 91 85 80 84 90 96 94 92 84 73 64 60 44 34 31 31 39 47 34 21 19 30 54 71 77 78
13 11 10 11 12 13 13 13 17 56 98 100 100 82 53 79 83 82 96 80 81 86 80 88 91 83 82 93 90 82 77 86 97 94 100 97 83 67 56 47 43 43 43 44 35 23 18 21 42 63 78 87 81 90
16 16 16 16 17 16 16 24 21 30 78 100 100 100 79 54 69 72 86 94 77 83 80 86 89 83 74 74 78 87 90 95 100 100 97 89 80 68 58 59 52 43 37 32 24 17 24 44 72 82 83 85 89 99

GFSWCAN_500_rhum_099.txt.gz
RH
50 43 42 44 43 48 52 67 58 46 47 14 6 7 12 16 18 20 22 23 22 24 24 24 23 23 24 25 25 26 25 26 28 28 29 29 29 25 24 21 20 19 18 17 17 16 17 18 17 18 18 18 18 18
51 50 42 42 44 43 47 53 67 60 49 50 18 6 6 9 12 13 18 21 26 26 25 26 28 28 28 27 25 26 27 27 28 29 30 32 33 34 35 36 31 31 29 30 30 27 26 26 25 24 23 21 22 22
48 50 47 42 45 46 46 49 52 63 68 56 53 36 9 6 6 7 9 14 22 24 26 26 29 30 34 34 35 28 31 33 34 33 33 34 35 36 34 35 31 27 32 36 38 35 37 38 40 40 43 44 45 46
45 43 50 44 45 52 52 51 52 50 68 66 60 57 47 24 12 7 6 6 8 14 20 22 23 27 31 33 33 35 37 37 37 36 35 33 28 28 33 33 30 20 20 18 20 21 23 24 24 24 25 30 37 44
49 40 48 47 42 47 55 56 55 47 44 58 68 64 61 53 38 20 9 7 6 5 7 15 17 17 17 19 21 18 23 27 28 24 22 21 22 18 16 9 7 8 7 7 10 14 17 19 21 24 28 30 28 29
51 46 43 51 42 46 56 54 57 57 50 45 50 74 71 68 58 45 29 13 9 8 6 5 5 8 12 14 15 15 14 14 15 16 16 13 11 11 10 9 9 9 10 12 15 17 16 12 13 16 18 27 42 48
50 55 46 47 51 42 48 54 54 56 55 54 53 54 68 72 70 58 54 30 18 6 5 6 7 7 6 6 7 10 13 14 15 15 14 14 13 12 12 13 14 11 10 13 15 12 9 7 8 8 9 13 22 48
49 46 49 51 51 47 42 45 49 51 59 58 56 54 54 66 75 68 58 57 39 14 8 7 6 8 11 12 12 11 9 8 9 9 10 10 10 10 11 10 11 11 12 13 10 7 7 12 13 7 7 11 14 19
46 47 46 44 48 50 49 45 45 46 51 55 60 58 63 58 58 63 61 56 52 46 26 11 8 7 8 7 6 6 6 6 5 6 8 8 11 13 13 11 11 11 12 11 8 9 9 12 16 7 8 15 12 12
54 49 43 41 45 46 45 47 46 42 44 44 42 43 47 56 58 55 52 55 54 52 48 44 16 10 9 9 9 7 7 6 5 5 5 5 6 8 8 8 8 8 9 9 10 16 11 16 24 14 24 26 17 16
62 59 55 60 44 42 46 40 40 42 41 43 41 39 37 40 42 44 45 48 49 52 53 63 54 27 18 12 10 10 9 8 7 7 8 7 8 6 7 8 10 10 11 13 16 18 23 25 30 20 18 28 32 25
62 62 59 59 59 49 40 35 39 38 36 46 41 38 37 37 35 36 32 32 40 52 55 69 65 67 60 31 16 13 12 11 10 10 10 9 8 9 9 10 10 11 11 13 15 21 26 22 20 31 29 29 39 43
43 29 17 27 28 25 36 49 51 46 40 46 50 43 38 38 32 22 24 30 50 62 64 75 68 67 76 72 47 27 16 14 14 14 14 15 13 10 10 11 12 14 16 20 20 19 29 32 37 38 42 47 50 53
3 7 4 4 4 6 13 23 29 28 50 67 74 70 51 37 26 26 27 38 55 72 79 76 80 72 82 76 70 62 44 31 18 16 17 19 19 17 16 18 18 16 16 20 27 28 27 37 45 48 52 53 57 58
2 2 2 2 2 2 3 3 5 10 24 84 91 86 54 38 33 32 39 72 92 96 97 96 89 86 83 83 75 70 73 60 52 34 29 27 24 25 25 25 26 30 34 36 40 40 45 51 60 64 64 61 59 60
4 3 3 3 3 3 2 2 3 4 10 38 74 51 39 52 54 63 98 100 100 100 98 100 99 93 85 76 66 68 64 84 83 73 64 60 53 45 38 37 38 41 42 48 64 67 65 62 70 73 66 58 56 56
4 3 4 4 4 4 4 4 3 3 5 74 28 51 58 45 63 84 100 100 100 100 99 100 96 100 94 86 70 62 90 100 97 79 72 71 60 52 49 56 60 64 68 73 74 71 73 74 80 73 62 57 50 51
4 4 5 6 5 5 5 5 5 12 6 4 6 10 61 66 78 100 100 100 100 100 100 99 100 100 91 77 73 98 100 98 96 91 71 66 63 55 52 58 66 76 81 84 88 87 81 77 78 77 65 46 47 47
7 7 7 7 8 7 7 14 49 69 99 82 4 6 42 99 100 100 100 100 100 100 100 100 97 84 83 90 100 100 99 100 91 81 79 73 68 62 58 60 69 81 84 89 95 91 89 82 80 72 59 49 45 43
13 10 9 11 11 13 19 39 19 54 92 76 10 18 49 90 99 99 97 98 100 100 100 90 73 72 87 100 100 100 100 99 96 94 95 87 71 71 72 70 73 68 68 82 86 87 86 85 78 64 55 51 48 44
14 12 18 22 18 26 69 25 28 36 60 36 13 41 67 83 99 100 100 100 100 100 96 84 85 92 100 100 100 100 99 99 100 98 92 93 93 83 78 78 76 67 70 83 88 87 83 80 63 54 49 51 48 43
18 27 30 28 22 19 21 29 22 24 53 23 8 22 64 71 88 100 100 100 100 95 88 97 99 100 100 98 100 99 97 100 99 95 99 96 88 88 92 99 88 79 76 89 88 84 81 72 67 63 57 54 49 41
26 27 31 32 28 24 17 19 22 17 17 15 27 30 18 19 43 60 79 92 87 94 100 100 100 100 99 100 97 94 98 99 100 100 95 91 88 90 90 100 97 90 86 92 84 88 80 86 80 74 64 52 44 39
25 23 23 24 63 48 20 16 17 17 15 13 16 17 13 14 17 29 42 64 76 79 88 100 100 99 98 95 95 100 100 99 92 88 91 85 78 83 90 100 96 94 88 82 88 100 97 100 98 82 59 54 44 34
30 58 47 28 64 47 30 19 14 14 12 13 11 34 100 100 92 72 14 6 19 50 83 96 100 100 94 90 95 100 100 98 90 85 89 78 84 91 97 97 93 91 82 78 91 96 98 94 80 66 57 53 36 25
70 48 52 48 29 25 23 21 18 15 14 14 13 20 96 100 100 87 48 48 47 40 36 58 96 92 83 89 98 100 100 99 86 82 97 83 80 79 85 87 90 91 80 94 96 93 85 84 77 64 58 36 23 22
100 74 36 30 32 34 31 22 24 27 25 16 13 20 28 92 75 49 84 85 82 75 57 48 73 100 100 100 99 100 100 100 88 79 75 70 70 75 77 77 79 87 99 100 97 96 96 96 77 63 34 25 28 32
100 100 75 46 27 26 50 35 25 24 21 19 15 14 14 18 33 65 89 92 80 77 96 98 100 100 100 98 99 100 99 96 85 77 76 74 76 77 76 78 94 100 100 100 100 96 77 71 60 32 30 32 34 29
99 98 67 47 35 29 24 20 20 18 17 17 16 14 12 12 11 17 38 67 99 71 64 83 85 99 100 100 91 95 97 99 92 87 91 98 96 94 91 100 100 100 99 97 88 79 76 55 36 35 37 33 22 15
51 59 51 38 28 19 16 17 18 18 18 19 23 20 15 10 12 38 37 83 84 91 80 70 64 69 99 100 100 100 100 100 94 100 100 100 100 99 98 99 100 99 98 98 98 86 59 42 39 35 29 25 17 16
81 88 76 50 26 22 26 21 20 20 20 19 21 20 14 13 19 44 68 68 54 82 81 77 56 61 96 100 100 100 100 100 100 100 96 100 100 99 96 99 100 100 100 100 93 82 57 44 37 37 33 25 22 32
91 83 68 60 57 59 53 43 37 24 17 19 18 18 18 18 12 9 22 56 72 62 88 98 85 57 49 46 76 98 100 100 100 100 100 100 100 98 98 98 100 100 99 98 97 73 51 49 48 39 29 24 37 58
79 69 64 61 55 51 48 53 33 21 16 14 14 15 14 12 8 8 34 92 100 65 62 94 100 100 100 100 89 95 100 100 100 100 100 100 98 100 100 100 100 100 98 96 82 67 53 43 32 24 24 36 58 72

GFSWCAN_500_rhum_105.txt.gz
RH
38 53 53 54 57 53 53 46 50 65 66 64 60 57 27 10 6 9 18 20 21 22 22 21 21 21 23 24 24 25 26 25 25 26 26 28 31 32 32 32 31 31 29 30 26 13 12 9 11 15 16 16 18 18
47 45 52 53 59 61 53 48 46 48 64 65 62 64 66 54 26 11 7 8 14 19 19 21 24 23 22 25 26 27 25 29 28 28 28 27 26 29 28 25 25 19 17 12 10 8 10 12 14 18 17 16 14 15
51 57 67 54 55 56 60 46 43 47 46 57 63 64 67 68 66 60 41 20 9 7 10 15 17 18 21 23 20 21 19 22 25 25 25 27 24 21 20 18 18 13 12 10 9 9 12 12 10 13 12 10 12 12
82 82 79 60 58 57 52 45 43 42 46 49 48 56 63 63 63 68 66 63 62 46 23 10 7 8 10 14 17 17 16 16 14 15 16 17 17 16 16 16 16 14 13 13 13 14 13 13 10 10 10 8 13 14
79 74 80 69 57 66 60 51 46 45 50 52 52 49 49 53 52 57 62 67 70 69 72 69 37 20 15 10 8 8 7 7 6 6 7 8 9 11 11 12 14 15 14 13 13 13 12 10 9 10 10 8 12 15
56 56 62 66 71 71 70 61 54 56 53 55 57 53 51 52 48 43 44 50 55 59 67 69 66 65 62 56 25 10 10 9 9 9 9 9 9 7 6 6 8 11 10 8 9 9 8 8 10 11 8 11 14 14
75 64 51 55 53 60 70 69 63 62 59 52 52 54 57 51 52 52 45 46 43 42 47 52 50 54 57 58 60 57 53 35 15 8 8 8 8 7 7 8 7 5 5 6 7 8 10 10 12 10 10 12 15 21
89 80 69 53 49 47 50 50 62 64 63 60 55 52 52 62 60 55 47 44 45 44 44 42 45 43 42 44 45 46 48 49 41 35 21 14 10 9 9 8 7 8 8 6 6 7 8 11 11 10 14 17 20 22
60 79 72 72 54 47 52 74 57 53 57 51 56 55 50 52 54 56 48 38 38 37 36 46 46 41 39 40 39 39 39 39 40 43 42 35 37 18 13 12 10 10 10 8 6 6 7 9 11 14 17 17 20 22
58 52 54 56 48 48 47 52 49 52 42 42 39 39 47 49 44 40 38 34 27 27 23 44 49 43 41 37 34 35 33 32 31 34 38 38 49 45 32 23 16 13 13 14 14 10 10 11 12 13 16 18 21 25
71 62 54 51 52 48 45 44 47 51 45 45 46 41 39 36 34 38 40 36 28 25 26 34 40 40 39 39 37 34 31 30 27 26 30 31 53 54 49 46 40 28 17 16 16 18 16 14 14 16 21 25 29 34
55 46 37 32 31 38 41 36 38 41 44 46 41 40 40 38 29 29 26 32 33 32 32 32 31 31 32 33 35 34 34 29 24 24 24 25 52 44 54 58 54 55 50 33 23 22 23 23 24 25 28 33 39 48
14 6 4 2 6 9 18 26 29 30 38 40 40 35 32 35 30 23 22 26 31 32 30 33 36 34 31 33 32 33 34 31 29 26 21 31 39 56 72 73 75 71 73 65 54 48 41 39 38 38 40 44 50 57
3 2 2 2 4 12 22 22 17 22 30 51 54 46 35 24 22 27 32 38 40 46 47 42 40 38 39 38 39 34 42 47 32 23 44 42 42 52 71 81 88 86 81 80 79 77 74 71 68 68 64 66 70 71
3 3 3 2 4 6 7 7 9 16 15 18 20 19 11 17 24 29 37 42 46 52 56 55 58 53 58 74 73 56 60 48 48 88 91 86 81 71 87 95 88 97 98 91 88 89 97 96 88 74 72 71 77 92
5 4 4 5 5 6 6 6 6 7 8 8 8 8 9 16 17 21 17 13 18 24 34 33 40 59 77 85 72 63 72 83 100 100 99 91 93 90 100 100 100 93 93 98 92 97 96 97 94 80 69 77 88 97
7 5 6 9 8 8 8 8 8 7 8 6 4 5 6 8 10 8 5 4 4 4 6 19 32 81 88 81 65 78 86 100 98 95 99 100 100 100 100 100 97 92 92 95 98 97 98 99 97 92 83 83 87 97
6 7 8 9 9 9 10 10 10 9 8 5 4 4 4 4 4 4 4 4 4 4 4 14 64 100 78 59 41 67 100 100 98 98 100 100 100 100 100 95 99 90 88 88 95 99 92 97 100 99 96 95 98 98
8 9 9 10 11 12 11 10 11 9 7 6 5 5 5 5 4 4 4 5 5 14 29 9 6 22 14 43 88 100 100 95 92 99 95 100 100 100 100 93 82 82 85 86 87 94 98 98 99 99 99 99 100 99
12 12 11 12 13 11 10 7 7 8 5 5 6 6 5 5 5 4 4 4 6 26 38 28 6 5 8 38 60 63 83 100 98 90 82 89 100 100 100 99 87 86 87 88 86 92 98 99 100 99 99 100 100 99
11 9 10 11 13 11 9 6 5 5 5 5 5 7 6 5 5 5 5 15 39 19 8 10 7 6 7 13 7 16 34 72 100 94 73 71 100 100 100 100 100 94 84 86 88 95 99 100 100 99 100 100 100 99
11 13 13 16 15 14 8 5 6 6 7 6 7 8 8 6 6 6 11 13 9 7 21 25 25 50 61 82 85 77 44 20 10 24 39 74 91 100 100 100 100 97 94 91 92 98 100 100 99 100 100 100 100 100
26 25 30 35 40 26 8 13 13 13 13 10 14 15 9 8 8 10 14 10 10 12 41 48 43 64 66 63 64 44 39 32 47 72 71 94 100 100 100 99 97 95 96 100 100 96 100 100 100 99 100 100 100 100
77 95 81 63 43 31 27 28 26 26 24 21 20 16 15 16 18 19 16 11 12 16 20 20 18 24 59 95 54 39 30 28 27 45 100 100 94 100 100 99 100 100 96 94 93 93 100 100 98 100 100 100 100 100
99 100 93 74 54 46 49 44 42 39 25 27 24 20 21 21 23 24 17 11 14 12 12 15 22 28 53 70 89 69 52 37 18 18 76 98 88 88 96 95 100 100 100 95 96 98 100 100 100 100 100 100 100 100
92 87 90 81 68 61 51 43 42 39 44 36 26 23 23 26 28 23 17 18 17 14 15 23 21 14 15 16 25 51 43 91 91 67 38 45 65 85 90 80 92 98 98 98 100 100 100 100 100 100 99 100 100 98
99 96 90 59 65 61 60 44 50 64 73 59 41 31 31 33 28 23 25 27 21 21 43 54 34 82 100 61 43 88 100 99 77 71 54 37 36 36 47 51 43 71 90 100 100 100 100 100 100 98 96 94 99 100
81 83 77 76 68 81 94 97 91 96 100 100 100 100 100 100 83 43 28 26 29 70 100 90 35 86 96 86 99 100 77 71 100 100 100 99 96 72 36 30 28 34 76 98 100 100 100 100 99 100 99 100 100 100
89 87 100 100 96 89 80 90 96 84 100 100 100 100 99 70 45 35 34 36 32 24 24 44 34 51 64 49 72 89 100 100 90 88 99 100 100 100 100 100 100 71 70 94 100 100 100 100 100 99 100 100 100 100
63 71 84 89 94 88 74 85 84 100 100 100 100 100 91 58 33 48 44 28 30 27 22 25 29 32 24 19 16 29 68 68 52 67 74 89 100 100 100 100 100 97 76 99 100 100 100 100 100 100 100 100 100 100
100 100 100 100 97 86 84 93 92 100 100 99 92 87 52 57 61 47 28 21 25 26 28 23 23 22 20 18 17 13 9 15 16 33 60 62 84 100 100 100 100 100 100 100 100 100 100 100 100 100 100 100 100 100
83 83 92 97 91 99 90 80 78 76 81 79 66 62 63 64 36 20 22 29 24 21 20 20 20 18 17 16 14 12 11 12 24 31 36 52 86 100 100 100 100 100 100 100 100 99 100 100 100 100 100 100 100 100
70 62 69 75 76 79 89 100 97 81 78 70 62 67 65 50 18 15 20 24 26 21 20 19 19 17 14 11 10 10 9 12 27 64 44 58 75 87 98 100 100 100 100 100 92 97 100 100 100 100 100 100 100 100

GFSWCAN_500_rhum_108.txt.gz
RH
26 35 43 35 16 48 50 60 54 48 42 45 56 61 61 57 37 11 7 9 11 18 23 24 25 25 25 23 21 20 21 22 22 24 24 25 26 29 26 28 21 22 20 20 18 12 8 9 12 12 11 12 14 12
45 47 55 52 33 47 55 56 62 54 47 43 49 58 59 59 59 61 55 25 9 7 8 13 20 24 25 22 27 28 25 27 27 22 23 21 21 21 24 23 21 17 17 16 14 12 10 10 12 13 11 9 11 8
70 60 59 59 52 46 51 56 57 63 57 47 45 48 57 62 62 65 64 63 65 45 21 12 8 8 12 16 17 19 20 19 18 16 14 14 13 12 14 14 14 15 15 14 13 14 14 13 14 12 9 9 9 10
70 62 70 60 66 74 72 59 57 58 60 56 51 50 48 48 55 56 62 67 65 65 69 65 54 42 21 12 8 7 10 14 12 9 8 10 8 7 8 7 7 8 9 10 9 11 10 10 9 9 8 8 9 10
79 70 66 68 68 79 74 71 63 56 54 55 56 60 59 53 50 52 56 53 55 60 64 66 67 70 68 63 54 48 43 22 18 14 10 9 8 8 8 7 8 10 10 6 5 5 5 6 7 8 8 8 8 9
87 88 77 67 80 76 73 74 66 62 60 64 57 56 59 62 57 56 52 53 48 47 46 51 58 64 59 60 58 55 53 49 44 41 40 31 22 12 9 10 9 7 7 7 7 7 7 6 6 7 9 8 9 9
95 100 96 79 68 60 59 61 65 72 70 64 65 62 57 55 55 56 53 51 51 51 48 46 46 56 53 53 49 48 48 46 44 44 42 43 44 33 29 33 18 13 11 10 9 9 8 6 5 5 6 8 9 9
83 99 99 94 89 91 86 70 60 56 60 72 69 76 69 64 62 58 51 47 44 45 47 47 48 47 48 46 42 41 39 37 36 36 39 42 46 45 47 37 36 37 26 17 12 11 12 12 10 6 6 8 10 13
92 91 95 93 90 93 97 99 95 80 57 53 63 72 68 60 63 61 61 56 49 46 39 37 52 48 44 42 40 40 37 34 31 32 32 30 37 40 37 40 41 42 44 38 26 17 16 14 15 13 11 10 13 14
95 95 94 89 82 79 74 74 90 98 96 92 88 71 62 59 57 51 45 42 40 41 43 44 45 44 45 43 39 37 32 32 28 26 27 26 29 40 32 32 36 41 44 54 53 32 24 20 18 18 17 15 14 15
98 100 100 97 84 78 74 65 65 66 61 60 53 54 50 45 52 61 57 52 44 40 39 40 37 32 32 32 37 36 33 30 23 19 20 16 24 33 36 38 34 33 33 34 52 66 52 38 27 23 22 21 20 22
98 100 98 88 84 77 69 58 58 62 64 60 55 46 42 36 34 32 31 31 37 41 42 44 41 41 39 34 30 30 33 31 29 26 23 20 31 26 29 30 34 35 36 38 52 67 79 55 33 24 27 31 32 33
95 95 95 90 92 89 79 65 64 60 57 52 46 44 27 14 14 13 13 16 21 26 31 35 36 36 35 36 34 37 34 32 30 28 28 34 30 33 34 33 33 42 63 74 72 81 86 65 48 57 60 49 60 68
97 90 81 78 75 51 55 59 43 36 33 34 36 39 36 32 27 19 9 9 14 22 26 26 26 27 34 37 44 46 44 39 34 37 46 54 54 50 47 55 64 78 87 94 99 98 87 82 94 95 91 90 96 98
57 45 44 35 25 14 12 13 9 8 10 12 15 18 24 18 13 12 9 10 14 15 15 17 18 21 30 40 54 52 69 70 66 94 96 76 66 65 77 100 100 100 100 99 98 96 95 99 100 98 99 99 99 100
14 16 13 7 6 6 5 5 5 5 4 5 7 12 10 5 4 4 6 7 7 8 9 10 11 13 16 18 18 21 26 32 44 61 65 65 70 73 95 100 100 100 100 100 97 95 99 99 97 96 96 99 100 100
8 7 10 9 10 12 12 12 10 7 8 4 3 3 3 2 3 4 4 4 6 6 6 7 7 6 8 8 9 12 13 16 32 37 62 97 83 86 84 100 100 100 99 89 91 91 91 94 99 98 97 96 99 100
14 14 16 16 14 14 15 15 14 11 6 4 3 3 4 3 3 3 4 4 4 5 5 6 6 6 6 6 6 6 6 6 32 28 22 46 64 53 78 99 99 99 100 100 98 83 78 89 97 100 98 97 100 100
15 14 13 13 13 14 14 13 13 10 6 6 4 4 5 4 4 5 6 6 6 7 6 7 7 5 4 4 4 5 8 10 12 7 24 58 97 97 74 78 86 100 100 100 97 93 97 88 97 100 100 99 99 100
13 12 12 13 12 12 12 8 8 8 5 5 6 6 7 6 6 6 6 7 6 6 6 6 5 4 5 5 7 11 12 15 17 14 15 72 94 100 100 96 87 99 100 98 95 95 92 90 100 100 100 100 100 100
17 15 19 21 24 19 15 11 9 8 8 8 8 8 7 6 5 5 5 6 6 5 4 4 4 5 6 6 6 13 40 38 12 28 18 10 18 24 15 30 100 100 97 81 89 100 100 97 100 100 100 100 100 99
20 34 37 44 44 49 37 13 12 13 12 8 7 8 7 5 5 5 6 5 5 4 4 5 5 6 6 9 17 28 18 21 34 36 59 81 60 37 30 27 18 26 62 60 85 99 91 100 100 100 100 100 99 100
46 47 46 44 51 52 32 17 20 14 12 8 10 11 7 6 7 7 6 5 4 4 7 8 7 9 16 23 23 16 29 26 22 56 87 75 60 25 11 11 54 48 46 99 100 98 96 100 100 100 100 100 99 100
53 56 54 76 70 63 32 28 19 20 16 14 14 15 13 15 17 14 8 6 5 7 9 10 13 15 30 35 21 15 17 54 53 32 28 17 12 13 17 10 8 41 71 98 100 99 99 100 100 100 100 100 100 100
98 95 85 78 86 96 87 58 39 31 19 21 39 37 34 37 32 32 19 8 9 11 13 18 23 27 25 18 15 15 20 21 29 13 13 22 14 15 15 13 10 7 39 71 84 100 100 100 100 100 100 100 100 100
98 86 72 71 85 92 79 59 42 38 50 55 48 44 37 42 49 56 19 14 14 17 25 44 41 35 30 25 26 18 17 24 22 15 9 15 63 95 71 63 68 51 32 45 55 96 100 100 100 100 100 100 100 100
99 83 67 64 76 91 92 59 57 65 55 55 47 56 69 71 56 36 35 32 31 25 31 54 99 100 94 67 73 76 51 35 24 25 15 56 100 100 78 68 60 72 42 40 56 84 74 86 95 99 100 100 100 100
73 76 64 68 77 77 78 81 82 83 63 55 55 66 85 69 58 56 46 58 96 82 98 62 87 90 77 100 92 41 36 88 100 68 47 95 100 87 96 100 100 94 85 87 52 45 45 55 63 85 100 100 100 100
60 65 75 70 86 94 99 98 94 77 77 100 100 100 92 81 47 35 36 69 88 77 54 47 48 64 51 43 48 48 39 71 96 44 50 78 66 85 100 88 90 100 100 100 100 100 93 96 72 94 100 100 100 100
55 58 80 87 92 91 79 85 83 87 100 100 94 71 45 29 36 55 61 62 56 50 49 58 52 38 28 30 26 38 65 50 36 25 16 22 52 80 95 97 100 99 100 100 100 100 100 100 100 100 100 100 100 100
100 100 94 68 78 85 76 89 100 100 95 82 75 64 31 27 28 32 38 38 45 52 51 49 47 38 22 24 37 33 32 34 26 16 12 10 27 54 49 51 77 83 96 100 100 100 100 100 100 100 100 100 100 100
86 78 73 71 75 84 94 82 86 83 72 83 68 59 38 36 16 15 37 69 66 66 72 85 83 39 27 23 32 31 24 20 18 17 15 12 10 13 23 24 46 68 100 100 100 100 100 100 100 100 100 100 100 100
73 57 56 58 56 54 52 69 65 62 61 67 70 77 68 34 15 18 26 42 60 68 78 75 64 43 27 20 18 19 19 17 15 13 11 11 11 12 26 42 32 56 99 100 100 100 100 98 100 100 100 100 100 100

GFSWCAN_500_rhum_114.txt.gz
RH
63 54 50 52 60 51 47 44 36 30 40 36 46 54 54 48 48 60 64 66 54 31 13 6 6 7 7 8 9 12 11 13 14 15 17 20 22 24 22 22 22 19 18 18 17 16 15 14 14 13 12 11 11 10
63 63 67 61 57 64 55 48 48 40 44 53 36 33 45 60 52 45 54 66 70 72 66 55 31 12 8 7 7 7 8 8 8 8 9 9 12 11 10 8 10 10 10 9 10 10 9 6 7 7 7 8 8 8
59 74 68 64 69 74 69 60 39 45 54 52 50 30 45 50 65 62 46 48 59 64 70 75 72 69 68 59 39 41 25 18 12 13 13 14 10 8 10 9 9 11 7 5 5 9 8 8 8 8 8 7 6 7
70 77 74 75 70 75 73 70 45 42 50 54 52 50 42 49 58 55 68 58 47 51 59 66 70 72 74 74 73 72 70 69 63 57 56 53 47 38 44 46 50 16 10 15 27 25 15 13 12 10 10 10 9 10
84 79 80 82 77 73 74 63 60 59 49 58 55 61 58 54 52 67 58 62 67 51 53 56 60 61 63 65 65 66 67 65 62 61 54 52 50 44 41 43 53 48 42 39 40 37 35 42 39 37 31 20 17 14
90 90 89 81 78 73 66 70 69 65 63 59 61 60 63 59 67 77 68 59 52 50 50 53 58 57 59 60 61 61 61 62 59 57 56 53 52 48 42 39 48 40 36 35 32 31 30 29 29 28 33 34 34 37
96 100 88 88 85 82 78 77 79 79 75 67 60 62 61 70 76 82 83 84 74 59 53 54 57 60 62 61 61 59 56 54 54 54 54 52 49 45 42 42 38 37 35 34 29 25 27 26 26 26 26 26 28 29
98 92 93 93 94 87 90 92 86 80 73 82 78 65 71 80 76 80 89 95 88 93 93 82 93 92 88 77 71 69 71 69 59 54 51 50 52 52 50 46 38 34 32 30 29 28 24 27 31 30 28 27 29 30
96 88 99 99 96 96 94 87 89 80 69 79 91 87 83 78 69 67 75 83 90 94 93 94 95 96 97 94 90 84 74 68 65 67 64 54 45 44 44 44 42 40 36 33 34 31 31 29 28 26 28 29 30 30
89 82 86 94 95 97 98 96 96 89 84 88 90 91 80 76 71 74 81 80 76 76 75 86 86 82 77 70 70 69 68 59 57 52 43 38 38 41 43 39 31 28 26 24 23 26 28 27 27 29 33 34 36 36
98 100 98 92 94 97 97 97 100 98 90 98 96 94 84 85 96 96 89 89 80 77 74 76 67 58 53 47 44 40 35 29 26 24 22 20 17 15 14 14 14 13 13 12 12 14 18 23 28 31 38 45 50 56
100 100 100 97 96 97 97 100 100 100 100 96 95 99 100 100 100 98 80 80 79 75 70 63 54 46 41 37 35 32 29 26 25 25 25 24 21 19 16 13 12 11 10 10 11 15 20 29 45 63 70 67 65 68
100 100 100 100 100 100 100 99 100 97 98 97 95 96 93 96 92 90 87 96 86 68 59 54 49 44 38 34 32 30 28 27 24 22 21 20 18 16 13 12 11 9 9 11 18 42 65 91 100 96 77 65 74 74
100 100 100 100 100 100 100 100 100 100 96 94 96 91 98 87 75 87 92 96 89 83 74 64 54 48 42 37 35 32 29 25 22 20 17 17 13 12 12 10 9 7 6 9 34 66 74 83 95 76 45 75 92 98
100 100 100 100 99 99 99 98 100 96 97 96 91 88 82 81 86 94 92 93 96 96 85 69 60 51 42 36 32 30 28 25 20 14 9 9 10 9 8 8 7 5 5 6 8 17 38 36 28 23 64 94 100 100
100 100 100 100 100 100 100 99 99 98 94 93 81 73 78 87 95 95 93 89 81 75 64 56 48 42 39 36 33 27 22 17 11 9 7 6 5 5 5 4 3 3 3 3 4 6 7 12 21 23 86 100 100 100
100 100 100 100 100 100 100 100 99 98 88 76 75 83 88 85 88 87 80 66 52 50 39 31 29 22 24 25 23 15 9 8 6 6 5 5 4 4 4 3 3 3 4 4 4 4 4 6 9 15 32 81 90 47
43 58 76 84 90 94 96 100 100 93 84 76 75 76 73 73 68 57 44 29 23 19 16 12 13 11 12 11 8 6 6 5 5 5 4 4 4 4 4 4 4 4 4 4 4 4 4 4 6 11 11 14 60 96
16 16 17 25 35 41 44 48 58 65 67 66 65 60 55 41 27 22 18 14 12 12 12 11 11 8 7 7 6 5 5 5 5 5 5 5 5 4 4 4 4 4 4 4 4 5 4 5 5 5 5 6 8 23
38 31 26 28 26 30 31 24 23 24 22 23 23 20 18 16 14 14 14 14 14 13 13 11 9 8 7 6 6 6 5 5 5 5 5 5 5 4 4 4 4 4 4 4 4 4 4 4 6 6 7 8 7 8
71 68 62 49 44 38 34 27 22 16 15 16 16 15 14 13 13 14 15 16 14 12 10 8 8 8 8 7 7 7 7 8 7 6 5 4 4 4 4 4 4 4 4 4 4 4 5 4 6 8 10 18 23 13
50 52 52 53 54 53 46 41 28 19 16 14 13 13 13 13 12 13 16 12 11 12 12 14 15 14 11 11 11 11 9 9 7 6 5 4 4 4 4 4 4 4 4 4 4 4 4 5 6 6 6 6 7 8
73 62 64 73 75 56 34 28 20 14 12 10 10 12 12 13 14 18 15 16 15 15 17 16 12 12 11 10 9 9 9 8 6 5 5 4 4 4 4 4 4 4 4 5 5 4 5 7 8 6 6 7 10 10
100 100 98 90 81 61 35 22 15 14 14 11 10 10 10 9 12 12 12 11 10 11 11 12 14 13 12 15 13 11 10 11 8 7 7 7 6 7 8 6 7 7 7 7 9 7 9 11 12 14 42 49 41 12
100 100 100 98 75 58 38 24 24 30 25 28 31 26 13 26 26 15 14 13 11 18 31 36 34 34 32 28 28 21 18 17 13 13 17 16 16 14 12 12 11 11 13 11 14 14 18 49 100 100 98 68 57 29
100 100 96 72 50 43 45 48 49 54 67 69 60 48 39 46 53 57 20 24 36 38 37 40 40 36 36 39 38 33 31 28 27 24 24 23 36 43 25 21 34 56 54 48 44 36 100 100 100 100 95 94 72 47
100 93 75 70 69 64 67 65 69 82 78 68 54 59 76 78 62 35 44 42 42 36 37 38 42 42 43 42 45 40 40 42 41 43 39 49 55 45 64 100 89 58 38 77 99 95 97 97 100 100 100 100 100 80
90 84 68 66 78 75 83 85 81 73 62 68 87 95 96 77 48 50 39 36 37 37 37 36 43 49 54 56 54 54 50 54 98 98 78 71 62 59 100 100 100 69 47 94 99 100 100 99 100 100 100 100 100 100
58 50 73 70 76 83 82 86 90 84 89 100 100 97 74 59 51 38 33 37 38 40 40 39 41 51 53 47 46 48 46 55 71 100 100 63 37 82 100 100 100 82 83 80 87 90 78 92 98 99 100 100 100 100
49 63 77 80 90 98 87 100 92 93 100 100 95 65 48 41 38 40 36 35 40 45 48 56 55 59 69 66 44 28 31 36 44 61 80 78 66 56 97 96 72 62 77 56 53 64 42 79 84 88 99 100 100 100
61 83 95 99 89 82 86 100 100 80 60 52 47 42 30 36 31 32 44 50 54 61 70 64 58 59 72 77 65 35 20 26 39 57 79 74 56 48 68 66 47 30 31 44 45 30 29 44 53 64 86 93 93 100
92 93 98 82 48 47 62 62 72 65 53 49 45 66 77 91 64 49 99 100 94 86 62 50 49 63 61 67 68 40 18 16 26 38 42 44 41 33 28 25 21 21 27 37 29 22 25 53 61 58 75 90 100 100
68 64 64 66 72 89 100 95 68 60 66 73 87 100 100 100 85 87 100 99 65 52 80 91 88 61 42 44 43 32 23 18 19 25 31 34 39 42 35 24 19 20 26 29 24 18 20 34 51 70 56 87 100 100

GFSWCAN_500_rhum_117.txt.gz
RH
55 59 62 56 57 58 59 59 51 51 50 48 41 38 37 47 55 58 55 50 61 60 58 53 33 13 8 11 13 12 14 13 16 17 15 14 17 19 19 18 16 13 12 12 13 12 12 11 10 9 8 7 7 8
93 93 59 47 55 56 62 65 62 58 56 54 50 42 43 43 32 60 63 61 52 51 61 62 65 69 65 38 22 19 13 10 8 8 9 9 9 8 8 10 9 11 10 7 6 8 8 9 12 10 9 10 10 9
90 92 94 75 57 62 62 70 60 64 66 63 50 45 45 48 47 38 64 78 68 65 53 50 56 58 64 68 69 71 62 72 60 44 37 30 31 30 41 45 60 41 17 14 18 31 41 47 44 40 40 36 34 31
94 92 94 92 74 58 62 68 70 65 61 63 57 46 48 54 47 45 40 50 58 71 76 65 53 53 55 60 64 70 69 62 66 68 66 66 65 58 55 52 53 54 49 45 43 40 36 36 33 29 28 26 24 22
98 86 90 90 83 57 63 74 75 72 63 60 56 50 56 54 56 54 55 56 64 74 65 77 87 59 57 58 60 58 58 55 55 58 60 59 58 53 47 45 50 50 50 43 39 39 36 34 30 28 27 26 24 24
94 95 92 94 86 69 70 76 75 76 68 62 58 54 56 59 55 58 57 54 55 80 80 64 67 91 90 75 62 62 61 60 59 58 59 58 58 57 55 49 50 44 42 42 42 41 36 32 32 28 28 28 27 27
97 95 95 96 91 81 77 83 79 76 71 69 69 66 63 57 62 59 56 62 62 66 80 92 85 80 85 74 66 65 65 64 62 58 58 60 58 54 51 53 50 52 54 56 54 51 44 40 37 35 29 25 26 28
91 98 98 99 96 90 83 87 91 80 75 69 70 74 76 71 69 61 65 58 65 76 85 90 95 90 89 85 79 73 68 67 66 64 70 77 77 76 77 74 69 64 56 48 47 56 53 42 31 26 22 20 20 20
98 100 100 97 95 90 89 95 90 88 84 73 69 66 74 79 74 71 73 77 71 72 79 93 99 95 84 84 88 84 82 88 83 84 82 77 62 58 60 48 44 40 31 26 20 18 17 16 14 14 13 13 11 11
99 99 100 94 97 96 94 95 88 89 89 85 76 72 69 77 76 74 80 87 84 79 73 82 94 95 90 88 86 85 77 69 59 61 61 56 42 36 30 27 26 25 24 22 22 21 19 17 15 13 11 10 10 11
100 98 100 97 96 91 94 95 88 87 94 88 84 81 76 80 81 81 83 90 89 85 80 85 97 97 98 98 88 81 79 68 52 48 40 31 29 27 26 25 23 20 18 16 16 15 14 13 12 12 11 11 12 16
100 100 100 100 99 96 94 84 82 82 88 90 88 85 89 90 89 90 81 89 98 94 88 96 97 95 95 96 86 71 61 54 48 41 38 36 34 32 29 25 23 21 19 17 15 14 14 14 13 11 8 9 12 27
100 100 100 100 100 100 100 99 100 100 96 98 100 100 100 100 94 80 87 97 100 95 95 93 97 95 88 84 82 77 68 59 56 55 51 45 37 32 30 28 24 21 19 16 14 13 12 11 9 7 6 6 7 32
100 100 100 100 100 100 96 92 91 96 100 97 95 91 100 96 92 100 100 100 100 97 95 93 88 84 82 83 84 77 73 66 64 62 48 42 38 34 30 26 22 18 16 14 11 10 8 7 6 3 3 3 2 4
100 100 100 100 100 100 100 100 100 100 99 99 97 90 85 97 100 100 100 100 98 100 100 99 96 90 90 88 84 81 76 67 61 50 43 40 35 30 27 24 20 16 13 10 8 6 5 4 3 3 2 3 3 3
100 100 100 100 100 100 100 100 100 100 98 96 86 85 91 95 99 100 100 100 98 96 95 92 84 78 78 74 69 70 63 60 47 33 37 36 26 22 19 14 11 9 7 6 6 4 4 3 3 3 3 3 3 4
99 100 100 100 100 100 100 100 100 98 94 85 80 90 96 98 100 100 100 100 99 98 98 93 86 88 79 69 62 65 64 44 30 25 20 22 20 12 9 7 6 5 4 4 3 3 3 4 4 4 3 4 4 4
100 100 100 100 100 100 100 100 100 99 92 92 85 90 100 100 100 100 100 99 96 96 97 92 87 80 75 65 69 51 40 33 26 21 17 13 9 6 5 4 4 3 3 3 3 4 4 4 4 4 4 3 3 4
100 98 99 100 100 100 99 99 96 98 99 91 87 90 92 98 99 100 98 95 83 64 52 51 54 62 55 39 26 20 16 13 12 10 9 7 7 6 5 4 4 4 4 4 4 4 4 4 4 3 3 3 3 3
40 50 59 54 38 36 31 30 39 43 38 38 42 45 48 52 55 51 45 38 34 30 29 28 26 20 18 17 16 15 13 11 10 8 6 6 6 5 4 5 5 5 5 5 4 4 4 3 4 4 3 3 3 3
74 67 61 57 57 52 46 33 28 26 25 18 16 14 12 14 15 20 23 24 22 20 21 20 19 18 19 18 16 14 13 12 10 8 6 5 6 6 6 6 6 5 5 4 4 4 4 4 4 4 3 3 3 3
72 86 79 77 73 65 60 55 50 46 38 33 23 23 20 18 19 22 21 16 14 13 14 16 16 17 16 16 18 18 16 15 12 11 10 9 6 6 6 5 5 5 5 4 4 4 4 4 4 4 4 4 4 4
76 72 68 63 58 55 55 50 45 39 34 25 24 22 21 22 20 18 15 14 13 11 12 14 18 22 23 22 20 18 18 17 13 11 10 9 8 7 6 5 4 4 4 5 5 4 5 7 7 7 7 9 12 11
99 92 82 97 89 66 45 37 30 26 26 23 19 18 14 11 11 10 8 7 7 8 14 16 18 18 20 21 21 18 14 17 12 9 8 7 6 6 6 7 11 10 10 8 9 9 10 10 12 19 18 16 20 43
100 100 100 99 77 66 57 51 47 42 32 36 35 24 18 23 23 20 12 10 15 19 20 22 20 19 20 19 18 16 17 19 14 17 15 20 17 17 17 20 20 20 24 18 22 18 21 42 63 42 48 60 98 100
100 100 100 90 81 78 72 60 53 52 46 38 29 32 46 48 37 28 21 26 22 22 22 19 20 26 29 37 39 40 37 40 42 37 31 35 36 35 28 28 23 38 71 71 58 52 100 100 90 60 96 100 98 91
100 96 86 80 81 77 71 64 57 50 40 36 44 53 69 73 63 33 34 35 34 31 37 46 48 42 36 35 38 40 41 43 39 36 37 35 32 33 36 35 30 32 75 100 100 100 99 100 89 100 86 93 100 94
98 93 91 89 85 78 72 68 65 50 42 55 80 90 94 68 34 39 37 40 48 49 47 42 42 40 37 37 40 40 38 34 30 28 31 32 32 30 31 54 70 69 58 74 100 100 100 100 84 100 99 84 96 90
92 90 88 85 70 57 57 53 51 62 84 99 99 77 55 43 41 38 39 51 49 46 43 45 49 47 40 38 41 38 39 42 41 31 29 26 24 26 39 56 100 95 71 49 78 100 94 62 60 91 89 88 99 100
82 73 64 60 70 75 67 68 67 70 76 72 64 53 47 31 31 50 55 74 94 100 80 53 42 39 35 35 33 34 38 40 43 45 38 29 20 21 33 55 95 100 93 70 66 81 82 62 54 60 67 94 92 93
65 58 61 58 56 54 55 87 94 79 70 62 61 63 48 63 49 86 100 100 99 69 56 52 45 45 44 40 46 65 58 57 55 53 55 49 30 21 23 29 51 73 76 71 58 35 52 41 40 34 33 68 79 78
52 58 70 61 46 51 57 58 67 64 57 55 57 94 99 94 38 51 100 96 69 63 91 100 81 50 64 86 90 100 100 100 100 72 54 44 33 24 25 27 34 51 62 64 43 38 32 30 41 36 32 60 60 63
72 85 75 67 60 70 92 96 61 58 65 75 88 100 100 100 73 67 77 91 95 100 93 84 84 80 83 99 100 71 67 60 66 87 69 48 36 23 23 30 36 42 54 51 36 23 21 31 37 33 33 54 70 79

GFSWCAN_500_rhum_120.txt.gz
RH
91 74 72 68 67 69 61 61 62 62 63 58 55 56 53 43 36 40 43 59 54 49 59 66 71 72 63 46 26 10 10 10 13 15 17 19 19 17 18 17 15 14 13 10 8 7 7 7 7 9 12 11 12 15
97 91 87 86 75 62 56 48 58 62 67 73 66 64 59 57 43 39 43 35 56 66 56 52 53 60 68 68 66 61 64 61 40 39 24 13 11 10 10 11 11 22 33 33 27 26 17 24 42 42 41 42 38 36
95 97 92 90 92 90 89 48 47 63 66 73 74 74 68 63 52 45 43 49 48 69 80 69 64 60 57 57 56 62 65 68 70 68 70 69 64 58 47 48 54 57 58 53 51 53 53 48 44 39 37 35 32 28
100 96 88 91 94 92 93 91 86 74 65 65 69 69 70 69 54 42 49 48 52 45 45 50 57 66 73 69 56 55 53 57 66 67 61 65 68 67 65 62 55 54 55 52 48 46 44 42 39 38 37 34 32 31
99 100 95 92 87 95 95 94 86 92 69 62 73 70 68 64 64 52 50 53 44 46 50 53 59 68 83 90 76 67 60 58 55 54 55 54 58 58 59 56 55 51 52 53 51 46 42 43 47 49 47 43 44 43
99 98 100 97 92 90 96 91 93 90 80 62 68 70 68 63 58 55 57 62 57 51 52 51 57 64 72 71 72 94 88 84 71 65 62 59 59 48 48 52 51 49 50 48 45 49 59 63 69 66 59 59 58 48
99 98 100 99 100 89 89 98 100 97 92 83 70 73 72 72 64 58 52 57 58 58 57 52 57 68 74 86 80 74 85 87 76 71 70 66 64 62 60 62 63 73 78 68 60 64 72 72 61 42 40 33 22 20
100 98 100 100 100 100 97 99 100 100 96 94 85 76 75 74 70 62 62 59 56 58 58 60 67 69 72 76 84 89 87 87 85 79 78 81 86 88 86 87 85 88 82 78 77 68 54 46 39 37 32 26 22 18
100 97 98 100 100 99 97 98 100 100 100 100 94 81 75 77 78 68 59 61 65 65 62 70 80 76 82 85 89 87 84 86 88 94 94 92 89 82 66 61 55 57 62 66 56 49 35 26 22 20 18 17 15 14
95 97 100 100 100 98 100 99 100 100 100 98 100 87 80 87 78 71 64 63 63 70 65 73 93 89 84 86 89 90 85 85 79 85 86 84 80 71 58 54 49 36 34 32 31 30 28 27 24 21 18 17 15 14
98 98 100 100 100 100 100 100 100 100 100 100 97 98 91 90 83 76 68 67 62 67 73 82 96 98 98 92 94 93 89 88 83 83 87 79 75 68 64 59 51 47 46 47 44 43 39 34 27 22 19 18 15 13
100 100 100 100 100 100 100 100 100 100 100 100 99 100 97 90 83 78 71 74 77 73 79 90 98 100 100 99 98 91 91 90 90 81 78 76 79 83 80 73 66 62 57 54 50 45 38 32 28 24 19 15 12 10
100 100 100 100 100 100 100 100 100 100 100 100 100 100 90 86 85 78 84 91 92 92 89 94 96 100 100 100 99 99 94 88 86 83 80 84 80 82 77 73 69 64 58 52 47 42 37 31 25 20 15 10 8 7
100 100 100 100 100 100 100 100 100 100 100 100 100 94 94 95 100 100 100 100 100 99 96 92 89 92 98 99 99 100 98 92 84 87 88 83 80 70 62 60 56 53 48 44 41 39 34 28 22 10 6 5 4 3
100 100 100 100 100 100 100 100 100 100 100 100 100 100 98 100 100 100 100 100 99 99 94 90 90 89 91 88 85 85 84 77 75 81 77 74 69 65 61 57 54 50 49 48 42 36 30 22 14 8 4 3 3 3
100 100 100 100 100 100 100 100 100 100 100 100 100 100 100 100 100 100 100 100 97 93 91 88 88 85 82 76 69 70 65 70 84 87 79 70 67 64 58 54 55 56 50 45 36 25 18 10 6 4 3 3 3 3
100 100 100 100 100 100 100 100 100 100 100 91 100 100 100 100 100 100 98 95 93 94 94 89 84 91 80 71 60 65 73 94 94 80 75 69 58 55 64 60 54 49 41 29 20 13 7 5 4 3 3 3 4 4
100 100 100 100 100 100 100 100 100 100 97 100 100 100 100 100 100 100 100 98 100 95 94 96 87 79 74 62 67 83 80 76 70 63 60 61 63 61 53 43 35 24 20 14 9 6 5 4 4 4 4 4 4 4
100 100 100 100 100 100 100 99 100 100 100 100 100 100 100 100 100 100 100 100 100 100 96 89 83 66 74 78 74 74 71 68 64 60 54 48 36 28 23 19 17 14 10 8 6 5 5 5 5 5 5 4 4 4
100 100 100 100 100 100 100 100 98 100 100 100 100 100 100 100 100 100 100 100 98 94 85 79 73 66 59 54 47 42 38 33 27 24 20 18 17 15 12 10 8 7 6 6 6 7 6 6 6 6 5 5 4 4
96 100 100 100 100 99 99 98 100 97 100 96 94 89 75 62 62 50 39 36 37 29 22 18 15 14 15 14 12 12 12 12 11 10 7 6 6 7 6 6 7 7 8 7 7 7 7 6 6 6 5 4 5 4
54 60 71 78 85 87 85 74 68 63 67 67 65 60 56 49 36 32 27 23 19 20 23 21 19 18 17 15 15 15 13 13 12 11 10 8 7 6 6 6 6 6 6 6 6 5 4 4 5 5 5 6 8 7
82 70 62 64 61 48 38 39 38 40 44 42 36 33 32 31 28 24 20 18 20 22 21 18 16 14 12 10 9 8 7 8 8 7 6 7 8 6 6 7 6 6 6 7 8 6 5 8 10 10 11 12 11 10
84 78 74 68 64 56 35 33 38 34 29 26 23 21 19 17 23 26 21 20 20 17 14 13 13 12 11 10 9 9 9 14 16 12 12 11 10 8 8 9 11 12 14 14 13 12 13 18 26 23 26 50 72 33
86 100 96 71 51 50 50 53 48 33 26 29 31 33 34 38 35 26 18 13 10 9 9 11 11 13 15 16 19 22 22 27 32 36 26 28 24 21 20 19 15 12 22 22 25 23 30 48 53 59 99 100 99 66
100 100 96 88 80 73 66 77 64 54 48 54 58 57 48 49 43 29 11 14 16 20 27 30 34 33 33 39 46 46 48 55 58 53 36 37 35 30 20 14 14 17 35 41 48 40 50 88 96 85 94 99 100 100
100 100 98 81 72 73 91 100 100 85 71 60 60 62 61 53 37 19 19 23 32 38 49 50 47 43 45 48 45 39 33 32 34 29 31 29 28 27 25 22 20 22 36 38 50 62 74 80 98 93 95 100 100 100
99 94 91 80 76 99 100 100 100 88 73 69 68 59 51 40 28 21 28 41 49 49 44 36 34 35 28 22 22 23 22 24 22 21 21 21 22 24 24 30 34 30 29 30 40 52 47 55 64 93 90 94 100 99
88 92 92 96 100 100 100 100 92 78 72 64 57 50 43 30 27 38 45 46 43 53 46 35 30 42 36 36 44 56 62 57 50 46 46 50 49 42 51 54 53 49 39 31 37 46 51 58 51 70 87 95 84 75
83 100 100 100 100 100 98 100 94 79 67 56 45 36 32 33 40 63 67 82 99 96 83 74 55 41 57 95 100 96 100 100 100 100 100 96 89 84 76 59 52 54 51 43 34 41 61 98 74 46 53 66 71 81
100 100 100 100 100 99 92 84 73 59 46 32 33 42 42 44 46 79 100 100 100 74 70 64 60 74 92 97 97 87 73 94 100 93 91 93 91 87 85 79 78 63 61 50 31 35 56 86 88 84 41 48 55 57
100 100 95 87 74 61 56 50 40 37 44 53 44 46 54 86 66 45 82 100 100 64 36 34 49 72 81 85 91 99 100 100 92 91 79 67 52 70 92 84 71 70 54 35 28 34 59 81 79 53 33 35 40 38
68 59 51 42 35 30 39 66 66 56 51 49 48 64 80 98 80 92 94 73 62 54 53 57 63 69 68 82 96 99 100 94 74 40 42 42 56 93 88 54 53 52 39 29 28 36 62 65 43 34 31 32 37 38

GFSWCAN_500_rhum_123.txt.gz
RH
92 90 94 86 73 71 71 72 72 68 71 64 64 67 67 62 55 46 39 38 43 60 59 54 59 68 70 69 71 61 36 17 17 13 10 12 13 13 13 12 13 14 13 13 11 10 11 14 12 11 18 33 45 48
85 90 91 95 78 77 79 77 75 67 73 61 62 67 75 73 74 64 50 38 41 42 55 69 66 58 55 55 56 62 68 71 68 62 56 59 60 45 32 23 21 21 29 36 33 38 45 48 49 48 46 42 40 38
89 85 92 92 94 93 89 87 84 73 71 54 56 68 72 77 77 74 69 49 39 45 46 51 75 72 65 65 67 67 61 62 67 74 73 68 63 62 65 63 61 59 53 52 49 45 46 48 47 45 44 41 42 44
81 88 87 95 96 91 95 90 90 90 91 88 82 87 74 66 75 79 74 60 44 36 43 51 44 46 55 58 62 70 83 67 62 66 73 73 66 62 60 59 60 55 59 59 57 54 51 50 50 50 50 50 51 55
87 86 89 88 98 95 90 95 87 93 95 96 90 90 91 67 71 71 72 68 56 50 49 44 42 47 49 54 61 64 73 94 82 67 65 65 64 62 61 60 61 59 56 56 58 61 62 61 55 54 52 55 59 66
79 88 93 93 92 97 95 98 94 94 96 93 88 85 84 76 64 70 72 68 66 59 54 52 54 54 49 50 56 65 75 77 78 83 81 84 87 84 69 67 88 81 57 55 61 65 70 87 84 80 77 71 61 68
72 78 90 95 97 95 96 98 99 94 94 100 100 98 94 93 86 75 71 73 69 63 58 56 58 57 56 56 57 62 71 83 85 80 79 88 89 82 80 71 67 66 67 72 82 85 85 92 90 84 70 57 36 26
84 78 86 92 97 96 99 100 98 96 92 94 95 100 100 100 95 88 82 79 72 65 62 58 62 62 64 60 60 64 66 70 77 80 90 92 91 90 87 85 87 87 87 82 76 59 41 40 39 36 35 33 35 38
100 98 98 99 97 100 100 96 98 98 97 93 94 97 100 100 100 96 90 84 81 74 64 67 67 60 62 63 64 66 70 74 72 82 89 88 95 92 87 81 86 85 78 75 71 66 51 43 42 46 52 51 48 43
100 100 100 100 100 100 99 99 97 99 97 98 100 99 95 100 94 94 91 87 83 82 78 75 74 64 65 65 66 73 71 76 70 78 87 91 100 94 84 79 83 81 75 72 73 71 67 65 67 68 63 54 44 38
100 100 100 100 100 99 99 99 99 98 97 100 100 98 97 100 98 96 89 86 82 87 84 80 75 70 69 63 71 76 75 80 77 75 87 82 92 97 99 98 90 87 84 81 78 79 76 72 67 60 53 46 40 35
100 100 100 100 100 100 99 98 100 97 100 97 97 100 100 100 100 97 83 85 95 89 86 80 78 75 72 73 80 87 88 84 86 86 92 88 93 98 99 97 94 92 93 92 82 73 64 56 50 47 45 42 39 38
100 100 100 100 100 100 100 100 100 99 100 100 99 99 100 100 97 84 84 89 100 93 85 82 84 85 86 92 94 99 98 94 95 95 98 97 100 99 96 98 94 88 77 69 65 62 58 54 53 46 41 42 42 42
100 100 100 100 100 100 100 100 100 100 100 100 100 100 100 98 93 94 96 98 94 90 88 89 93 94 90 90 91 96 96 96 88 86 83 88 92 89 84 76 69 68 65 63 62 60 54 46 39 41 46 45 47 45
100 100 100 100 100 100 100 100 100 100 100 100 100 100 98 100 100 100 100 100 96 94 96 94 91 91 92 90 87 84 85 80 76 74 78 79 74 70 64 60 60 57 57 56 51 46 45 44 38 33 49 49 38 32
100 100 100 100 100 100 100 100 100 100 100 100 100 99 100 100 100 98 98 100 100 100 98 96 90 88 88 80 75 76 77 76 84 81 71 66 56 53 52 50 52 52 47 43 43 42 39 35 35 38 44 32 22 18
100 100 100 100 100 100 100 100 100 100 100 100 100 100 100 100 100 100 99 98 99 99 98 92 85 91 86 84 78 78 86 95 86 77 70 64 58 59 64 62 55 49 45 41 38 39 39 40 34 28 22 16 10 8
100 100 100 100 100 100 100 100 100 100 100 100 100 100 100 98 99 99 100 100 100 100 99 97 93 90 85 76 81 88 84 78 71 62 56 60 68 66 63 55 53 50 41 33 27 19 15 14 11 9 8 7 6 5
100 100 100 100 100 100 100 100 100 100 100 100 100 100 100 100 100 100 100 98 98 99 95 93 96 84 92 88 82 82 78 74 73 70 62 59 60 56 49 32 18 12 8 6 6 7 7 8 7 7 7 6 6 6
100 100 100 100 100 100 100 100 100 100 100 100 100 100 100 100 100 100 98 98 94 92 98 99 95 91 84 73 73 74 75 71 62 57 52 46 38 22 15 11 8 7 6 7 8 9 9 8 7 7 6 5 5 5
100 100 100 100 100 100 100 100 100 100 100 100 100 100 100 100 100 100 99 92 89 95 100 94 88 85 80 73 70 64 59 44 36 26 22 14 9 7 6 5 6 6 6 5 5 6 6 6 5 6 5 5 5 5
100 100 100 100 100 100 100 98 100 100 100 100 100 100 100 100 100 100 96 86 82 74 57 53 46 42 41 37 27 18 16 10 8 7 6 6 5 4 4 6 7 7 7 6 7 7 7 7 6 8 8 10 12 12
75 86 92 98 100 99 100 99 98 98 94 95 95 94 90 84 72 63 59 53 31 31 28 26 27 23 17 12 9 7 8 7 8 8 8 8 8 7 6 7 7 7 8 8 10 8 8 10 14 20 21 22 32 30
86 84 84 82 79 64 60 58 56 54 48 44 34 28 25 24 23 21 17 15 23 24 22 21 17 15 12 10 10 8 8 8 9 11 11 7 7 9 12 12 12 13 13 15 15 17 19 19 22 20 28 32 88 72
100 100 99 82 73 61 51 52 49 39 30 27 28 27 25 28 28 20 14 14 14 23 21 18 13 12 10 9 8 8 9 17 29 30 16 17 25 26 22 23 25 22 27 28 30 35 35 34 30 27 28 64 93 85
90 86 76 65 58 51 46 53 48 40 37 44 52 51 60 55 33 15 10 17 26 20 23 21 18 16 14 18 22 24 26 28 35 28 22 29 32 32 30 30 28 23 34 38 35 30 28 33 32 32 36 55 88 87
100 98 77 57 68 53 39 41 46 54 71 88 88 82 70 57 44 14 25 32 31 30 30 24 28 34 35 28 28 28 26 25 28 29 35 53 65 71 74 63 42 33 34 34 33 35 32 29 30 32 34 36 50 91
100 92 76 76 97 81 67 68 71 85 92 86 91 100 100 94 30 37 35 36 41 36 35 39 43 46 42 43 37 35 37 43 48 69 83 84 95 100 100 91 71 62 60 52 44 46 44 41 32 31 36 36 42 89
100 100 99 100 100 99 79 84 96 100 94 100 100 100 83 67 49 46 51 43 32 33 39 47 52 74 62 59 49 43 41 44 63 86 89 67 57 74 100 70 59 71 82 81 69 62 52 44 36 30 34 41 50 90
96 96 100 100 100 99 99 100 97 100 100 100 91 83 80 67 59 57 45 32 35 41 74 84 54 49 48 51 48 44 61 82 93 89 79 62 66 75 84 94 100 100 100 100 95 92 80 56 44 29 33 48 60 72
55 55 62 75 93 100 100 100 100 99 90 84 84 77 62 57 43 31 29 43 70 94 70 54 46 43 35 31 34 39 36 62 76 83 84 83 81 87 94 69 51 58 77 88 100 100 85 66 46 31 34 51 72 61
100 100 100 100 100 100 100 100 92 87 83 74 62 52 50 42 35 29 45 74 100 100 62 44 36 35 41 45 50 58 72 81 82 82 79 89 88 70 40 38 40 49 52 70 100 100 80 48 32 32 37 41 54 52
100 100 100 100 100 99 96 84 70 60 53 52 47 37 38 50 42 44 65 80 72 56 71 86 71 66 66 67 81 96 91 84 87 83 75 76 55 38 33 32 42 56 73 89 77 68 40 30 31 32 36 44 44 41

GFSWCAN_500_rhum_126.txt.gz
RH
88 80 80 90 91 71 62 44 52 58 66 70 72 66 60 58 66 62 59 54 42 44 54 63 60 63 68 70 69 68 58 36 26 21 14 11 11 11 11 10 9 9 10 11 11 11 11 16 22 27 31 39 44 45
85 89 82 75 82 91 94 92 79 74 74 77 78 65 55 60 65 72 72 66 59 43 42 44 62 68 62 60 58 59 58 58 67 65 62 59 59 60 54 51 45 38 38 31 27 24 25 29 35 41 44 42 43 43
88 89 84 82 76 81 93 92 95 87 80 78 80 72 62 54 66 68 70 69 63 59 41 41 45 55 74 74 68 64 69 74 75 68 66 72 65 64 64 65 62 64 63 63 60 56 55 53 51 50 48 49 50 48
96 96 93 93 86 86 84 89 94 97 95 86 94 93 93 79 83 83 67 66 65 60 58 39 36 49 49 46 43 51 56 62 64 74 92 61 65 66 64 59 59 65 64 66 66 66 63 60 59 58 56 56 59 59
92 93 91 96 97 92 83 84 90 94 96 98 96 98 100 100 96 93 89 67 70 68 59 54 51 48 44 44 45 44 44 46 46 50 67 83 71 68 64 59 63 64 66 66 67 71 68 66 70 74 79 88 94 94
99 92 78 83 96 100 94 88 85 88 92 98 99 98 96 97 99 97 96 80 67 66 71 64 59 56 54 53 52 51 47 47 50 56 61 65 72 71 72 75 82 87 82 76 75 73 74 70 75 83 89 86 77 71
28 88 95 90 96 97 98 94 92 88 84 90 98 99 97 96 99 97 88 92 88 79 71 70 74 72 66 61 56 52 52 51 51 54 59 65 71 66 68 74 78 82 84 80 75 74 75 79 80 76 66 55 46 39
9 95 100 99 99 91 93 97 95 98 96 87 93 100 97 96 98 97 97 92 90 87 84 79 80 79 78 72 67 60 55 53 52 52 58 60 61 61 60 74 85 90 92 92 93 90 87 84 80 77 75 72 68 65
2 18 95 100 100 100 90 89 100 98 98 98 93 100 97 96 97 95 92 90 86 82 74 76 83 82 81 80 74 67 60 56 52 56 59 60 68 68 68 80 87 89 90 89 87 87 84 82 81 81 82 82 79 74
2 25 89 100 100 100 100 99 99 100 100 99 97 99 96 100 100 96 92 89 86 81 74 74 82 76 75 77 75 73 66 60 51 56 60 52 60 70 74 83 86 89 91 91 95 96 98 98 94 92 91 86 76 66
2 8 24 68 100 100 100 100 100 100 99 96 99 99 96 100 98 95 94 87 82 78 80 88 92 84 78 74 76 75 71 69 60 53 64 55 72 89 94 94 92 92 94 97 100 100 100 100 98 97 89 78 68 62
4 34 98 100 100 100 100 100 100 97 99 100 97 99 100 99 98 98 95 87 83 81 86 94 98 93 87 88 85 79 78 72 62 61 64 60 84 99 100 95 91 89 93 94 92 92 90 88 85 82 73 66 62 59
30 91 86 94 100 100 99 100 100 100 99 99 100 100 98 99 98 93 94 90 99 100 100 100 99 93 89 93 92 88 83 80 78 67 70 78 88 90 90 90 90 89 84 77 69 63 60 59 59 54 50 51 47 38
62 100 100 100 100 100 100 100 100 100 100 100 100 100 100 99 93 94 99 100 100 100 100 100 100 98 98 98 94 96 94 95 83 80 81 84 81 78 76 73 71 67 64 62 59 60 64 62 54 48 45 39 33 28
100 100 100 100 100 100 100 100 100 100 100 100 100 100 98 99 100 100 100 100 100 100 100 100 100 100 100 99 97 99 100 92 86 84 86 86 82 78 73 68 63 58 56 58 57 52 50 48 46 40 39 37 35 29
100 100 100 100 100 100 100 99 100 100 100 100 100 98 99 100 100 100 100 100 100 100 100 100 100 100 100 97 89 93 92 90 90 91 86 80 75 72 66 57 53 56 56 52 50 45 39 38 39 38 37 36 30 24
100 100 100 100 100 100 100 100 100 100 100 100 99 100 100 100 100 100 100 100 100 100 100 100 100 100 99 94 83 80 85 87 85 84 79 71 64 62 59 52 50 51 51 54 54 50 44 44 46 43 33 24 16 12
100 100 100 100 100 100 100 100 100 100 99 99 100 100 100 100 100 100 99 99 100 100 99 100 100 99 94 89 88 88 88 82 80 74 70 68 63 62 61 58 61 63 62 62 60 54 46 34 25 18 12 8 7 6
100 100 100 100 100 100 100 100 100 100 100 100 100 100 100 100 100 100 100 99 97 98 98 99 96 96 100 91 90 88 87 84 78 72 64 60 63 66 67 67 63 56 52 49 44 33 21 12 8 6 6 6 5 5
100 100 100 100 100 100 100 100 100 100 100 100 100 100 100 100 100 99 99 98 97 100 100 96 96 94 96 99 95 87 84 82 73 63 60 63 66 63 57 51 44 40 32 18 10 7 6 6 6 6 6 6 7 7
100 100 100 100 100 100 100 100 100 100 100 100 100 100 100 100 100 99 99 94 91 98 100 96 98 100 99 94 91 82 74 72 66 59 53 49 46 43 39 31 18 10 6 5 5 5 6 7 7 8 7 9 11 11
100 100 100 100 100 100 100 100 100 100 100 100 100 100 100 100 100 100 92 83 91 100 99 93 90 83 76 70 64 60 56 51 46 38 28 25 22 14 8 5 5 5 5 5 5 6 6 8 10 11 15 17 16 16
100 100 100 100 100 100 100 100 100 100 100 100 100 100 100 100 98 94 80 76 88 64 71 63 54 49 43 41 37 31 23 15 12 9 7 7 6 6 6 6 5 6 7 10 18 22 23 25 28 28 27 31 30 23
100 100 100 100 100 100 100 100 100 100 100 99 100 100 100 98 99 91 78 77 39 32 29 22 19 17 16 14 12 11 9 9 9 9 8 7 7 7 7 9 15 18 18 19 21 22 25 28 27 24 28 32 34 29
81 88 92 97 99 100 100 100 100 99 97 96 82 73 67 53 47 50 49 30 25 21 19 18 17 19 17 12 10 9 8 8 9 10 7 12 18 17 18 20 22 37 60 58 70 54 29 23 23 22 22 24 25 26
69 73 65 58 54 59 72 76 82 79 68 62 54 49 44 39 34 29 25 22 20 19 19 20 20 24 22 17 12 9 11 18 26 24 20 21 23 29 38 68 68 51 99 100 91 73 62 64 55 38 29 26 23 22
82 51 53 52 49 55 67 79 74 68 54 51 54 46 41 31 28 23 17 19 30 30 25 20 28 36 39 28 17 19 22 27 37 40 34 34 46 56 64 70 64 50 70 83 90 92 80 79 94 66 47 39 34 26
81 50 54 55 43 48 56 53 53 64 97 87 74 54 57 46 29 25 28 48 41 34 34 42 48 47 30 21 23 27 36 55 51 54 47 39 47 54 73 80 72 71 71 77 95 87 86 90 100 100 87 57 45 43
86 83 63 60 60 48 44 54 66 76 77 73 58 47 40 35 30 50 58 45 43 43 48 54 38 26 22 28 32 44 48 52 50 44 44 40 35 44 59 58 59 64 74 94 100 100 100 94 90 97 98 83 53 48
100 99 96 99 100 96 93 80 63 62 57 58 65 64 57 59 67 62 52 51 55 51 40 30 32 46 41 44 47 42 34 33 46 53 63 65 52 49 47 48 64 82 93 86 67 50 49 48 65 90 94 98 64 52
77 100 100 100 100 100 100 100 100 100 100 96 88 80 74 79 68 61 48 38 37 40 41 43 49 48 53 57 48 42 44 62 75 93 100 87 72 65 70 78 85 85 60 32 32 42 53 53 56 92 100 89 60 45
65 59 61 71 82 86 84 78 73 77 78 74 76 77 70 63 46 25 30 44 56 59 59 60 67 67 55 49 69 72 70 80 99 100 100 99 87 83 82 86 71 38 28 27 33 55 79 88 93 90 84 71 45 34
74 84 90 83 72 71 77 76 66 67 70 69 58 58 53 44 31 34 51 66 59 52 51 52 52 49 56 76 82 85 98 100 99 98 100 91 87 86 92 58 37 38 34 34 36 47 61 69 66 57 43 38 33 34

GFSWCAN_500_rhum_129.txt.gz
RH
84 80 80 93 97 74 38 45 78 23 13 20 42 57 67 72 66 59 64 59 56 51 42 48 62 59 68 69 67 64 56 39 22 15 14 13 12 13 15 15 14 12 12 13 13 13 12 11 12 15 20 23 29 31
85 85 84 82 89 94 94 98 99 99 38 43 53 65 71 76 64 58 65 68 69 65 58 42 45 53 65 57 58 60 57 59 61 61 62 60 46 38 40 36 33 30 29 26 25 24 26 29 36 40 47 48 48 48
84 85 83 80 90 91 89 88 98 100 99 98 95 78 76 77 70 59 62 69 67 66 63 60 42 42 48 65 77 72 67 64 66 71 69 70 68 61 66 70 67 66 64 62 61 60 57 55 53 50 52 53 52 53
89 93 86 79 72 88 88 88 91 96 100 98 98 97 81 84 81 82 58 66 79 66 65 61 60 45 38 46 55 62 52 52 54 60 61 61 60 75 73 66 62 65 64 63 62 62 63 64 65 65 65 65 64 62
83 89 89 82 74 78 88 88 90 92 98 100 98 99 97 94 92 94 97 93 89 89 67 65 61 54 48 45 43 46 48 48 48 47 43 50 49 59 76 73 69 70 69 69 66 68 69 69 70 78 82 81 75 76
37 100 96 84 78 82 88 92 93 95 94 98 97 98 99 98 97 99 96 99 99 95 94 73 66 67 60 54 51 52 52 51 47 46 45 46 50 51 50 62 76 76 78 79 84 89 89 89 86 82 76 76 80 80
3 28 87 89 88 93 85 90 90 97 98 97 99 98 96 96 98 99 100 99 97 96 95 92 92 81 73 69 65 62 60 57 54 51 49 49 49 43 44 58 76 76 78 79 76 77 79 81 85 90 91 92 87 81
2 3 16 52 92 100 97 93 92 94 100 98 97 98 97 96 96 94 96 97 96 94 91 84 89 93 94 85 76 71 67 64 61 56 55 53 51 49 48 63 72 75 77 78 81 82 85 88 93 96 96 94 92 91
1 1 3 20 21 64 100 100 100 94 95 96 98 97 96 95 99 100 100 96 96 94 84 77 84 91 89 85 80 75 70 66 60 62 61 55 52 48 52 59 68 73 79 84 89 94 99 100 100 100 100 93 87 86
1 1 1 5 3 2 13 98 100 100 100 100 99 92 95 99 99 98 96 93 95 98 84 80 94 89 90 88 82 77 69 70 61 60 60 53 52 61 54 56 60 67 78 87 90 93 97 100 100 100 100 99 97 95
1 1 1 2 2 2 5 55 100 100 100 91 92 96 99 100 100 97 95 94 91 87 88 90 99 98 100 94 93 88 79 78 67 61 65 53 60 71 67 64 65 75 86 98 100 100 100 100 100 100 96 91 86 79
1 1 1 1 1 2 3 34 100 100 100 91 99 100 99 100 99 98 88 88 90 94 92 100 100 99 98 97 97 89 90 80 71 66 63 54 67 74 72 69 72 76 81 87 93 92 93 90 84 77 76 74 64 56
2 2 1 1 2 2 4 5 80 100 100 100 100 100 100 99 95 75 68 78 99 100 99 99 99 99 100 99 98 99 93 84 83 72 65 69 76 79 80 79 77 79 82 84 83 81 75 68 62 59 58 56 50 47
2 2 2 2 2 2 6 54 100 100 100 100 100 99 100 96 73 70 78 93 96 93 96 100 100 100 100 100 99 98 94 89 80 76 77 81 81 84 86 87 86 85 81 76 72 70 67 65 63 58 54 52 51 47
2 2 2 2 2 3 24 76 100 100 100 100 100 100 88 72 66 70 90 93 95 95 100 100 100 100 100 100 100 100 98 93 89 90 96 95 91 89 86 82 80 77 73 69 63 55 52 52 51 50 54 52 50 42
2 2 2 2 3 10 64 100 100 100 100 100 100 96 74 76 80 82 96 99 100 100 100 100 100 100 99 100 97 98 100 98 97 99 95 91 90 85 79 72 67 64 62 60 59 54 51 48 47 44 43 47 42 34
3 2 2 2 6 23 96 100 100 100 100 100 98 92 81 87 100 97 89 99 100 100 100 100 100 100 100 100 97 100 100 100 99 96 93 89 86 78 68 60 59 60 59 54 49 45 42 45 47 44 40 42 42 37
52 55 29 19 46 100 100 100 100 100 99 94 94 88 94 100 100 100 100 100 100 100 100 100 100 100 99 99 100 100 99 97 96 94 91 87 80 76 74 69 62 54 47 48 51 52 51 49 46 43 40 31 24 18
85 69 96 87 100 100 100 100 100 99 95 86 92 98 100 100 100 100 100 100 100 100 100 100 98 93 99 100 100 96 92 91 91 88 81 77 76 72 66 61 58 59 61 60 55 48 42 37 30 19 12 9 7 5
100 98 71 82 100 100 100 100 100 100 100 95 100 100 100 100 100 100 100 100 100 100 100 94 99 100 100 100 100 99 96 95 87 80 77 76 72 70 68 69 66 58 49 41 35 26 16 10 6 5 5 5 5 5
100 100 100 100 100 100 100 100 100 100 100 100 100 100 100 100 100 100 100 100 100 99 97 100 100 100 100 100 100 100 100 97 90 80 76 69 68 65 58 49 40 34 28 23 18 10 5 4 4 5 6 6 8 9
100 100 100 100 100 100 100 100 100 100 100 100 100 100 100 100 100 100 100 99 98 100 100 100 97 100 98 100 100 95 94 89 81 72 62 53 46 40 35 30 25 20 14 7 5 5 5 6 7 9 13 14 15 16
100 100 100 100 100 100 100 100 100 100 100 100 100 100 100 100 100 98 100 100 100 99 98 97 98 93 95 92 83 71 59 54 49 42 37 33 28 21 17 15 10 7 5 5 6 6 7 12 17 21 30 44 53 43
100 100 100 100 100 100 100 100 100 100 100 100 100 100 100 100 99 94 100 100 100 98 98 94 83 74 64 48 35 30 26 22 26 24 20 14 10 8 7 6 7 10 13 10 14 15 18 29 51 60 78 83 84 72
100 100 100 100 100 100 100 100 100 100 100 100 100 100 100 100 98 90 91 99 92 86 76 60 43 31 31 25 22 18 16 14 13 12 10 9 8 7 8 15 22 27 30 36 38 53 65 74 68 64 68 72 81 85
100 100 100 100 100 100 100 100 100 100 100 100 99 100 100 95 86 72 76 72 64 55 39 29 26 22 22 25 19 16 13 13 12 10 8 9 13 20 35 42 36 34 46 46 48 49 54 55 53 59 68 78 85 79
78 86 90 94 98 100 100 100 100 100 100 98 95 92 88 76 67 59 57 44 35 29 28 24 24 39 38 35 27 20 15 11 12 12 14 21 29 38 48 44 36 35 34 32 32 31 34 37 45 64 76 82 98 99
55 54 53 52 46 57 64 76 85 89 88 81 77 80 71 54 41 40 38 33 34 27 25 34 52 61 51 37 24 15 14 17 20 21 24 26 32 45 66 70 70 62 50 40 40 43 47 55 63 73 83 80 72 83
64 51 54 53 52 49 37 39 42 49 50 49 49 48 44 43 38 38 43 32 32 42 55 64 64 57 40 22 19 18 22 37 43 39 46 41 45 60 82 81 72 75 74 67 74 87 94 91 84 78 50 36 42 55
80 78 77 74 62 46 53 66 71 66 60 57 56 51 44 40 43 39 36 46 52 62 63 59 47 36 22 23 20 19 28 35 44 53 53 50 55 80 100 95 80 79 79 80 86 90 97 92 60 42 42 50 53 67
96 94 89 88 70 69 80 100 97 86 84 78 80 77 77 84 68 62 59 60 59 56 45 34 24 22 25 32 31 26 27 46 52 50 46 54 91 100 93 89 89 96 99 99 93 88 65 43 38 45 64 62 57 78
100 100 100 96 95 99 92 83 75 67 68 73 70 70 70 68 61 53 46 39 35 31 25 23 24 29 40 42 44 41 34 30 35 52 84 99 96 83 86 93 93 98 98 99 86 53 42 38 40 56 89 97 98 97
79 69 62 59 59 59 64 61 54 52 52 52 50 43 37 39 32 26 30 50 72 50 36 26 29 35 40 42 42 42 44 65 91 98 99 93 91 95 98 95 98 97 73 49 41 34 36 36 36 51 76 89 72 45

GFSWCAN_500_rhum_132.txt.gz
RH
100 96 81 80 86 87 95 58 29 17 17 19 18 14 13 26 58 65 58 51 61 64 60 52 42 59 61 67 72 70 61 48 23 15 14 14 17 19 21 20 20 19 18 18 16 15 16 16 16 14 13 13 12 14
90 100 96 84 85 82 80 92 81 69 60 18 25 83 15 27 53 69 65 56 53 65 71 70 60 43 48 63 62 63 64 64 66 61 52 55 49 34 24 18 17 17 16 16 14 12 12 13 11 13 18 24 26 35
97 97 91 89 86 88 85 84 90 97 94 94 83 94 90 46 69 71 74 66 52 61 64 66 66 63 48 44 52 70 68 66 64 64 66 72 73 70 69 72 68 67 67 64 60 62 60 59 56 56 54 54 52 52
100 92 88 81 86 86 88 89 90 92 95 98 97 98 97 97 94 92 83 77 61 54 63 68 63 64 64 51 43 48 61 73 65 59 58 62 65 68 73 74 78 75 71 72 70 65 64 64 65 64 65 65 65 66
98 90 92 85 88 100 94 92 93 93 94 96 96 98 98 95 97 97 94 87 84 68 60 74 74 66 66 60 53 43 41 47 51 51 51 51 53 47 45 50 67 84 80 75 72 72 71 68 68 71 83 88 86 83
65 64 64 70 60 100 100 100 100 93 92 93 95 94 98 98 98 95 96 100 93 88 83 82 83 77 67 65 68 62 54 51 51 50 49 49 50 47 44 47 60 73 74 76 77 76 82 86 89 92 92 90 89 88
11 10 22 41 42 86 100 100 100 100 98 92 96 96 95 96 96 97 97 96 95 95 96 92 90 91 88 82 76 67 63 61 60 57 54 51 51 46 46 49 52 51 53 53 55 59 64 72 75 79 83 87 93 98
1 2 5 14 33 58 82 100 100 100 100 99 98 99 98 96 96 99 98 96 95 93 88 83 93 100 96 94 90 86 84 80 72 66 64 62 60 58 58 61 59 54 52 52 53 56 62 66 72 77 81 86 88 91
1 1 2 12 31 50 46 66 100 100 100 100 99 99 96 91 95 100 99 92 92 93 89 80 92 100 99 97 95 92 84 78 67 64 64 57 60 63 61 63 65 64 62 61 59 60 63 70 76 81 86 91 95 93
1 1 1 2 12 10 7 58 80 100 100 100 98 93 87 97 100 100 96 95 87 90 81 80 92 98 98 99 96 94 88 85 73 67 66 57 63 76 69 66 62 62 62 64 65 65 68 75 81 84 86 90 94 97
1 1 1 1 2 2 2 14 18 97 100 97 89 87 96 100 100 98 97 88 85 73 71 75 86 94 100 97 98 97 88 82 73 65 74 62 76 85 77 72 65 62 61 64 68 69 71 76 82 89 96 100 100 99
2 1 1 1 1 1 1 2 30 78 100 92 65 97 100 100 100 99 82 71 67 69 66 84 100 99 93 98 99 91 93 87 76 66 69 62 79 84 81 77 73 70 70 73 77 77 78 81 89 97 98 95 87 78
2 2 1 1 1 1 1 2 8 67 51 77 42 71 100 100 98 82 65 62 72 87 94 96 95 91 91 97 97 98 94 84 81 73 65 69 86 87 83 78 78 78 78 81 86 88 89 92 93 90 88 86 87 85
2 2 2 2 2 1 2 2 11 31 37 58 39 48 100 98 82 62 61 71 73 79 87 85 84 88 92 98 97 95 95 90 78 74 78 90 88 89 87 83 82 84 89 95 98 98 98 96 94 93 90 78 64 54
3 2 2 2 2 2 2 2 4 10 13 22 64 100 41 77 77 71 70 69 70 82 76 77 77 80 86 96 95 96 99 86 78 84 91 91 87 86 84 83 89 95 97 98 98 96 91 81 67 58 55 52 50 45
5 3 2 2 2 2 2 2 3 5 30 59 74 100 46 61 81 68 68 74 80 88 90 81 80 84 95 100 96 100 100 98 98 93 88 88 86 84 85 89 91 90 89 89 85 74 64 58 56 51 47 48 45 43
8 2 2 2 2 2 2 2 2 5 61 42 90 80 80 90 89 86 74 85 93 96 98 100 100 100 100 100 95 96 98 100 94 94 92 91 91 91 93 95 92 88 81 73 67 62 56 52 46 43 42 44 41 37
6 5 3 3 2 2 3 5 14 34 100 100 85 79 86 99 100 70 65 99 86 93 100 100 100 100 100 96 92 95 100 99 100 99 94 91 92 92 86 81 79 73 66 60 56 54 52 50 48 48 46 44 38 31
6 4 3 3 2 2 19 63 31 94 95 51 57 94 80 94 93 85 97 100 100 100 100 100 97 94 100 100 100 99 98 97 93 92 91 88 84 76 71 70 67 64 59 60 60 56 52 50 47 40 32 26 22 19
88 40 16 4 7 19 57 56 75 100 98 92 81 100 99 99 99 100 100 100 100 100 100 95 99 100 100 99 100 100 96 90 88 85 84 83 80 73 73 70 72 72 67 65 60 52 41 32 27 23 19 14 8 5
97 42 52 56 46 94 100 100 100 100 100 74 79 100 100 100 100 100 100 100 100 97 96 100 100 100 91 95 98 100 99 91 84 80 81 82 84 75 70 71 70 64 58 44 33 28 23 19 16 12 6 4 5 7
100 100 100 100 100 100 88 56 64 66 78 99 100 100 100 100 100 100 100 100 100 100 100 100 99 95 96 100 100 100 99 94 92 91 84 74 67 67 68 63 50 38 31 25 20 16 13 8 5 4 5 8 13 24
100 100 100 100 100 100 100 100 100 100 100 100 100 100 100 100 100 100 100 100 100 100 100 100 98 100 100 100 100 100 100 97 90 83 73 66 64 56 43 35 29 23 18 13 8 5 4 5 7 11 16 26 48 57
100 100 100 100 100 100 100 100 100 100 100 100 100 100 100 100 100 100 100 100 100 98 97 100 98 97 99 100 100 100 100 95 86 79 66 51 42 34 27 21 14 10 7 6 6 6 9 17 26 32 40 46 43 41
100 100 100 100 100 100 100 100 100 100 100 100 100 100 100 96 94 95 99 100 100 100 100 98 100 100 100 100 96 94 84 70 59 51 40 29 22 16 12 8 8 8 11 11 12 19 32 35 32 28 29 30 29 29
100 100 100 100 100 100 100 99 100 100 100 100 100 99 98 98 92 97 100 100 100 98 98 100 100 99 94 87 77 64 52 36 32 28 20 13 11 10 8 8 8 15 35 27 30 31 33 39 32 37 47 56 58 56
100 100 100 100 100 100 100 100 100 100 99 98 97 98 94 87 83 96 100 100 100 98 98 92 85 73 66 53 43 35 26 20 16 13 11 12 11 9 9 17 25 35 49 50 68 64 47 45 44 49 59 64 74 72
100 100 100 100 100 100 100 100 100 99 96 94 95 97 89 83 85 86 84 81 75 69 62 53 47 40 34 28 23 19 16 16 16 14 12 10 10 13 26 31 45 46 46 48 70 86 79 67 65 69 75 83 85 83
74 88 97 100 98 98 98 96 94 94 93 93 90 86 77 75 75 71 63 53 45 38 34 36 36 35 25 20 18 16 17 18 16 11 10 12 17 27 38 36 35 41 45 73 83 94 89 84 84 80 91 91 76 37
47 48 58 64 65 63 62 64 59 55 51 48 45 43 41 38 37 36 34 34 33 37 45 47 38 31 25 23 18 17 20 18 16 17 21 22 24 28 33 45 57 78 88 84 83 86 96 91 84 96 100 75 37 38
56 44 43 42 41 44 49 50 44 40 44 44 40 36 36 37 35 30 24 28 41 37 35 29 20 18 18 20 22 19 15 23 26 31 31 34 38 50 68 82 85 84 83 86 89 92 91 89 92 85 52 37 42 68
92 92 86 68 63 63 67 64 59 49 44 44 44 48 47 44 34 29 35 35 32 30 23 19 16 16 18 18 20 23 27 31 33 35 42 53 79 87 88 85 90 90 88 90 88 85 75 54 40 40 36 41 66 83
32 45 74 94 100 100 100 100 99 86 84 86 74 58 47 40 33 30 29 26 23 19 17 17 17 17 20 25 28 30 33 39 48 66 90 96 91 86 77 65 45 36 35 35 34 35 35 33 33 32 34 41 57 55

GFSWCAN_500_rhum_135.txt.gz
RH
96 95 95 98 98 100 100 98 80 84 38 23 22 20 16 17 15 13 30 60 70 64 66 69 62 47 48 63 68 74 74 64 36 18 18 20 22 23 23 23 23 23 24 23 22 21 22 21 21 20 19 18 18 16
97 95 93 89 95 100 100 100 97 97 96 54 31 22 18 17 48 27 28 50 67 75 65 70 72 70 57 44 60 66 67 72 71 69 49 26 19 18 16 18 17 18 16 16 16 15 14 14 13 12 12 11 11 15
100 95 92 89 95 96 100 100 100 90 98 98 88 46 67 58 35 65 41 55 69 76 77 66 70 68 67 66 48 46 64 68 66 67 66 68 73 71 72 72 65 66 60 54 43 49 47 48 48 49 54 52 52 54
100 96 93 84 100 99 98 97 100 99 90 96 100 97 92 91 93 91 97 83 86 77 79 80 67 71 75 66 65 56 44 52 66 78 76 69 67 66 66 64 67 70 68 73 72 69 68 70 65 60 60 61 62 63
100 100 94 81 91 100 100 100 97 100 100 95 98 100 100 100 98 95 96 97 91 91 78 82 82 78 85 86 73 66 60 49 41 44 49 50 51 49 47 45 49 55 56 52 56 72 70 68 66 66 67 67 68 69
100 100 100 98 92 92 100 100 100 98 100 100 99 100 100 100 100 98 97 96 97 95 89 77 80 84 89 90 88 76 65 63 61 57 54 53 53 51 47 48 54 49 48 47 46 48 52 58 61 61 64 70 76 79
100 100 100 100 100 100 90 100 100 100 100 100 100 99 99 100 98 97 94 97 96 94 92 87 88 90 94 98 94 85 79 72 65 61 62 63 61 60 60 63 58 55 51 49 50 49 50 50 53 58 59 60 62 66
98 91 98 99 100 100 98 95 100 100 100 100 100 100 96 99 98 98 98 96 93 93 88 81 88 97 97 95 94 92 89 87 81 73 72 70 67 66 68 68 65 64 63 59 57 56 55 54 53 52 51 52 54 57
73 74 50 74 99 100 100 98 97 100 99 72 93 100 94 96 100 100 99 95 92 87 77 73 85 90 98 96 96 96 95 90 80 78 80 76 73 77 85 82 74 70 68 65 63 62 61 60 60 61 62 62 63 65
5 62 22 6 18 34 46 83 99 74 57 74 97 92 80 97 100 100 96 94 87 86 69 67 80 91 98 98 96 95 92 90 80 77 78 70 73 89 87 85 85 83 82 79 74 71 69 67 66 67 69 71 73 76
2 3 31 6 4 3 3 14 52 50 100 100 94 66 75 100 100 100 96 84 81 72 70 74 86 100 100 97 98 96 81 78 72 70 74 60 67 85 92 88 84 82 80 81 80 78 75 74 73 74 76 79 80 86
2 2 2 4 2 2 2 6 90 100 100 100 99 94 93 100 100 100 79 68 65 66 71 92 100 96 92 93 91 85 86 85 73 66 66 61 72 77 84 82 81 81 83 87 88 86 82 80 79 79 82 87 93 99
3 3 2 2 2 2 2 2 20 94 98 100 100 100 100 100 98 74 55 51 62 76 81 93 92 92 94 95 91 90 83 74 74 66 59 64 71 73 72 71 74 79 84 88 91 90 86 85 89 96 100 100 100 100
3 3 3 2 2 2 2 2 2 2 3 10 99 100 100 94 42 24 42 63 68 78 89 94 100 96 92 91 83 79 73 66 58 53 57 66 66 64 64 65 70 78 84 89 90 86 86 96 100 99 98 100 100 100
4 3 3 3 3 2 2 2 2 3 3 4 13 58 54 16 17 11 26 53 42 66 92 100 100 99 98 90 79 73 66 57 53 58 62 62 61 61 64 67 72 82 88 90 87 89 97 100 100 100 100 99 96 86
6 4 3 3 3 3 3 3 3 3 3 3 5 9 7 17 2 3 4 10 14 37 97 100 100 99 100 92 67 67 67 61 74 71 62 57 59 62 66 73 77 80 81 83 87 92 94 94 91 87 78 68 59 50
6 5 5 5 5 4 4 4 3 3 3 3 3 2 2 2 4 3 12 18 19 18 63 100 99 100 95 81 66 68 74 90 86 73 68 72 73 77 80 82 81 82 86 88 84 77 73 68 58 52 48 46 40 36
5 6 6 6 9 9 5 4 3 3 3 3 2 2 2 2 2 4 12 15 19 37 70 93 100 100 84 74 77 100 100 100 100 97 90 88 89 92 91 87 83 80 79 76 68 61 55 48 44 44 41 39 36 36
5 5 5 5 6 8 9 6 4 3 3 3 2 2 2 2 9 55 74 28 33 94 100 100 100 87 79 89 100 97 100 100 100 100 100 99 95 88 80 76 74 72 68 62 57 52 45 45 46 44 41 39 32 24
5 5 5 5 6 8 9 9 6 4 3 3 2 2 2 2 45 100 88 65 99 100 100 99 99 99 100 100 99 99 95 95 100 100 100 98 95 95 88 80 75 68 62 59 56 52 50 49 51 43 32 24 18 14
9 10 46 22 18 12 10 8 6 5 3 3 2 4 12 11 19 81 51 46 99 100 100 100 100 100 100 100 94 95 100 98 100 100 97 92 87 88 85 82 73 64 62 59 54 49 47 44 34 25 19 14 9 5
88 100 100 99 100 81 23 6 5 4 4 3 6 33 75 57 47 97 100 88 98 100 100 100 100 100 100 97 100 100 100 96 91 87 86 82 77 73 77 77 69 66 64 59 54 48 37 27 20 15 9 5 4 5
100 100 100 100 100 68 15 7 5 5 5 6 11 36 53 54 91 100 100 100 99 100 100 100 100 99 100 100 100 100 99 94 86 83 80 79 77 77 77 73 69 63 59 55 42 30 23 17 9 5 5 6 9 12
100 100 100 100 100 73 36 15 8 8 22 95 98 96 70 86 100 100 100 100 100 100 100 100 100 99 99 100 100 100 96 91 88 80 77 75 74 74 71 69 67 56 43 34 23 16 10 6 6 8 11 15 22 28
100 100 100 100 100 100 100 100 42 21 48 81 100 99 92 100 100 100 100 100 100 100 100 99 100 100 100 100 100 100 94 85 77 72 80 79 73 70 68 57 44 30 19 16 11 7 6 8 13 25 31 32 31 26
100 100 100 100 100 100 100 100 100 100 100 100 100 100 100 100 100 100 100 100 100 99 97 100 100 100 100 100 100 98 99 94 83 74 76 75 64 51 40 32 24 14 11 8 7 7 10 18 36 33 36 41 34 40
100 100 100 100 100 100 100 100 100 100 100 100 100 100 100 100 100 100 100 98 99 99 100 100 100 100 100 100 92 89 86 84 75 65 58 48 34 26 20 15 10 9 9 8 8 11 22 33 35 39 44 46 60 65
100 100 100 100 100 100 100 100 100 100 100 99 98 100 100 100 100 100 100 100 100 100 100 100 100 100 92 83 73 70 68 62 55 48 36 25 17 12 10 9 10 10 11 13 19 29 34 37 44 50 60 69 75 86
100 100 100 100 100 100 100 100 100 100 100 100 100 100 100 100 100 100 100 100 100 100 99 100 98 83 71 69 64 58 49 36 26 19 14 11 11 13 12 12 13 18 26 34 46 56 64 61 60 71 80 82 81 86
91 93 96 98 100 100 100 100 100 100 100 100 100 99 100 100 97 96 98 95 86 74 71 76 70 63 55 47 35 26 18 14 13 13 11 10 11 11 12 15 26 43 58 52 45 53 70 74 67 62 66 71 75 67
53 67 66 67 78 89 87 83 84 83 82 80 72 68 66 63 59 54 50 45 39 37 38 39 37 32 25 19 15 13 14 15 14 12 11 11 11 19 34 54 61 48 48 63 68 59 39 29 27 27 30 32 33 32
36 40 43 46 45 45 46 47 50 50 47 43 41 37 34 36 39 39 38 38 35 35 31 26 21 17 15 14 13 12 10 10 12 14 16 24 44 68 60 50 46 61 75 63 31 24 23 22 24 27 29 27 26 28
29 30 37 41 40 37 37 39 37 35 34 33 30 30 27 25 23 26 28 23 21 19 18 16 15 14 13 12 13 17 20 19 23 33 56 79 71 70 62 59 67 50 34 48 53 42 25 23 28 29 25 22 22 24

GFSWCAN_500_rhum_138.txt.gz
RH
99 100 100 100 87 88 90 89 82 73 54 48 32 53 35 19 18 17 18 15 21 50 70 68 72 75 72 56 61 69 76 69 34 17 21 24 26 28 30 30 29 26 24 21 19 18 19 18 18 19 20 20 19 18
100 100 99 100 99 94 86 95 93 92 94 88 87 42 68 26 22 18 19 32 40 36 60 71 70 74 72 71 64 53 63 70 75 77 56 25 16 17 19 22 22 22 22 22 22 21 21 21 21 20 19 18 16 14
100 99 98 96 93 97 98 97 100 97 100 100 100 95 86 72 33 35 23 23 32 64 51 68 71 69 73 73 69 66 52 49 69 66 67 70 71 71 74 69 62 52 46 44 38 38 34 29 31 33 36 39 44 51
100 100 100 98 97 100 100 100 100 99 100 100 99 100 100 99 92 49 56 80 76 93 82 80 74 72 67 71 80 71 66 59 44 54 74 83 75 71 69 63 63 66 62 58 62 69 68 64 58 57 58 59 60 60
100 100 100 99 99 100 100 100 100 98 99 95 97 98 100 97 100 99 85 87 97 100 100 96 89 74 78 77 82 87 82 70 61 45 40 43 52 58 50 49 56 52 44 39 40 44 44 49 52 55 57 58 58 57
100 100 100 100 99 100 100 97 98 97 97 98 99 98 96 100 100 99 96 97 98 98 98 96 92 87 77 79 82 87 92 85 70 64 58 55 51 47 46 53 54 48 48 46 44 43 44 44 44 45 45 46 46 48
98 100 100 100 100 100 100 90 92 97 98 100 97 100 97 97 98 99 94 93 94 96 95 92 92 96 96 95 95 89 85 91 87 81 77 70 67 62 61 66 62 65 63 61 59 59 60 61 59 56 55 54 54 54
52 89 100 100 100 100 100 100 100 100 100 100 99 99 97 94 91 93 98 96 88 94 96 84 85 97 97 94 92 90 85 84 81 83 86 86 79 75 75 89 85 78 72 72 78 77 69 58 57 58 59 60 60 59
3 10 58 100 99 100 100 100 100 99 100 100 100 100 92 84 95 100 95 98 95 85 83 88 96 100 99 98 96 95 93 90 82 80 79 75 75 79 87 90 93 89 85 84 81 77 75 74 75 74 74 71 68 65
3 3 3 47 98 100 100 100 100 100 100 100 100 98 82 85 99 96 94 88 84 80 68 77 95 99 100 98 96 93 88 88 77 76 76 68 68 90 92 92 91 86 81 77 74 73 72 72 73 73 75 76 75 75
3 3 3 3 28 96 100 99 100 100 100 100 99 88 83 98 100 97 90 76 74 68 68 83 100 99 97 96 97 95 83 81 72 68 70 60 67 86 88 92 91 82 76 75 74 74 74 74 74 76 78 82 85 86
3 3 3 3 3 14 92 100 97 100 100 100 100 100 100 100 100 98 75 63 54 58 69 96 99 92 88 91 93 87 88 84 72 67 68 57 66 69 69 66 63 61 58 58 58 58 59 62 70 82 90 92 92 90
3 3 3 3 3 3 13 88 99 49 100 100 100 98 100 100 93 80 53 48 49 63 80 85 79 80 84 88 82 81 78 73 74 63 58 66 68 63 59 54 52 51 52 55 60 66 73 78 84 88 89 89 88 90
3 3 3 3 3 3 3 7 83 90 27 98 100 100 100 97 77 54 47 60 70 65 66 72 77 76 80 86 84 82 77 72 62 60 62 61 53 49 45 43 43 47 49 51 59 69 81 88 90 87 86 91 97 99
4 4 3 3 3 3 3 3 4 33 78 13 92 100 97 90 66 55 51 62 68 63 69 86 87 81 82 75 78 82 77 66 60 66 63 56 50 43 39 42 42 42 46 52 62 80 91 90 88 92 96 96 90 82
6 5 4 4 4 4 4 4 3 3 5 28 17 41 66 71 69 64 58 58 57 64 66 86 87 67 74 69 61 78 68 55 78 68 60 51 45 40 46 49 50 55 63 73 80 86 86 81 80 82 79 71 64 55
7 6 6 6 6 5 4 4 4 3 4 3 9 41 54 34 48 62 55 17 17 73 73 58 28 45 49 32 22 36 63 100 82 64 51 46 41 50 58 60 63 67 74 81 86 87 84 81 78 74 67 61 55 51
6 6 8 8 7 7 7 6 5 4 3 3 2 2 3 13 6 2 5 5 3 13 17 34 49 26 30 19 6 31 99 97 86 76 67 63 65 67 67 71 76 81 87 92 90 84 79 71 66 62 58 54 49 46
6 6 6 7 8 8 8 7 7 4 3 3 3 3 3 2 2 2 2 2 2 4 30 55 63 9 5 9 40 90 100 100 94 89 84 81 78 75 74 74 74 81 90 90 86 82 76 73 68 62 57 51 44 42
6 6 6 7 7 8 8 7 6 5 3 3 3 3 3 2 2 2 3 3 3 13 42 31 8 3 20 37 68 97 100 100 95 95 86 84 80 75 69 71 72 74 82 83 79 72 64 61 61 57 54 49 47 47
8 8 8 9 8 7 7 6 6 5 5 4 4 4 3 3 3 3 3 3 4 7 7 8 15 60 75 57 88 100 100 100 99 84 85 86 83 86 87 81 76 76 77 74 69 64 60 59 58 59 57 57 51 43
11 11 10 9 9 7 7 6 5 5 5 5 5 6 5 4 3 3 3 3 4 5 15 7 42 100 98 93 100 100 99 91 91 94 90 89 89 93 88 74 66 66 64 62 58 54 55 59 59 57 55 47 36 24
40 49 35 19 43 25 16 15 10 6 6 5 6 9 8 7 5 4 4 4 6 7 8 21 96 100 100 100 100 100 97 96 99 100 95 94 94 83 75 70 62 57 60 66 59 59 58 60 57 49 40 27 16 9
100 100 100 100 100 100 91 80 66 74 69 51 30 20 11 8 6 5 5 5 11 24 54 98 100 100 100 100 100 100 100 98 96 92 94 88 82 78 70 70 71 64 58 52 57 57 56 50 41 31 19 9 6 6
100 100 100 97 95 100 100 97 83 100 100 72 22 9 6 7 6 8 58 96 76 100 100 100 99 100 100 100 100 100 100 100 97 95 97 89 78 71 72 71 68 69 66 59 60 51 44 34 22 11 6 7 7 8
100 100 100 99 100 100 100 100 100 100 100 100 91 35 14 17 24 17 25 59 79 83 94 100 100 100 100 100 100 100 98 98 93 88 85 75 71 67 65 67 72 72 62 53 46 38 27 13 8 7 7 8 15 26
100 100 93 100 100 100 99 99 99 98 100 100 99 100 68 94 98 98 97 98 100 100 100 100 100 100 100 100 100 100 99 94 80 71 71 72 74 78 76 70 61 50 44 37 28 16 9 7 6 7 9 17 30 42
100 100 100 100 100 100 100 100 98 93 98 100 100 100 100 91 90 97 100 100 100 100 100 100 100 100 100 100 100 97 87 74 69 71 74 80 81 71 60 54 44 34 25 15 11 9 8 8 9 15 27 39 47 51
100 100 100 100 100 100 100 100 100 100 100 100 100 100 100 100 100 100 100 100 100 100 100 100 98 92 88 87 86 82 83 87 82 78 75 70 57 42 41 30 24 16 11 10 10 11 13 18 32 44 42 27 19 20
91 99 100 100 100 100 100 100 100 100 100 100 100 100 100 100 100 99 99 99 100 100 90 82 76 73 77 85 95 95 86 78 70 62 55 44 34 27 21 15 12 11 11 12 16 21 32 53 55 41 26 22 21 22
64 85 88 92 97 100 100 100 100 100 100 100 100 100 100 100 100 99 100 99 100 99 87 79 79 86 88 82 72 57 46 43 37 32 28 24 19 14 12 11 11 12 21 25 32 52 63 40 39 54 42 25 25 25
30 36 52 77 83 82 82 88 98 100 99 97 96 92 90 90 91 87 87 85 82 77 72 66 58 52 46 42 38 33 29 25 22 18 15 13 12 11 11 14 30 40 40 45 63 57 42 59 79 80 49 25 25 24
29 30 36 42 51 58 56 53 50 59 72 80 84 80 73 65 51 48 52 50 47 43 39 35 32 29 26 23 21 18 16 14 13 12 12 12 15 31 45 45 46 49 59 62 48 35 50 82 85 88 46 27 27 24